GFSNW_prec_cloud_003.txt.gz
Cloud_Cover
43 47 16 72 26 78 100 100 100 100 100 100 100 100 87 100 100 100 100 100 100 100 100 100 100 100 100 89 97 81 61 98 82 22 51 100 100 100 100 100 100 100 87 2
66 33 12 87 100 100 100 100 100 100 100 100 100 98 76 100 100 100 100 100 100 100 100 100 100 100 78 63 100 100 97 99 74 82 83 100 100 100 100 100 100 54 97 95
72 5 14 30 98 100 100 100 100 100 100 100 70 78 94 100 100 100 100 100 100 100 100 100 100 100 98 100 98 49 54 90 48 27 100 100 100 100 100 100 100 28 100 92
82 68 100 99 100 100 100 100 100 100 100 100 81 100 100 100 100 100 100 100 100 100 100 100 100 100 100 94 94 86 100 100 100 93 100 100 100 100 100 100 71 86 97 99
17 70 100 33 100 100 100 100 100 100 100 100 100 100 100 76 98 96 100 100 100 100 100 100 100 100 100 100 100 74 100 100 100 100 100 100 100 100 100 100 48 53 98 88
7 5 97 94 100 100 100 100 100 100 100 100 100 100 96 28 76 100 100 100 100 100 100 100 100 100 100 100 100 100 100 100 100 100 99 100 100 100 100 96 100 57 99 100
5 5 5 36 100 100 100 100 100 100 98 99 93 40 47 93 44 76 100 100 100 100 100 100 100 100 100 34 97 78 100 100 100 100 100 100 100 100 100 100 100 100 100 100
5 5 5 5 100 100 100 100 100 100 100 100 100 100 100 100 46 96 100 100 100 100 100 99 100 100 96 100 95 73 82 100 100 100 100 100 100 100 100 100 100 100 100 100
5 5 5 5 81 100 100 100 100 100 100 100 100 100 100 94 100 100 100 100 100 100 99 100 100 100 51 98 94 91 99 100 100 100 100 100 100 100 100 100 100 100 100 100
5 5 5 5 59 100 99 100 100 100 100 100 100 100 97 100 100 100 100 100 100 97 100 100 100 100 78 6 97 100 100 100 100 100 100 100 100 100 100 100 100 100 100 100
5 5 5 5 58 97 90 100 100 100 100 100 100 100 86 100 76 56 100 100 100 100 100 100 100 99 83 33 81 100 100 100 100 100 90 94 100 100 100 100 100 100 100 100
4 5 5 5 5 61 100 100 100 100 100 100 78 99 100 100 98 100 100 100 98 100 100 100 100 86 98 5 98 100 100 100 96 99 49 76 56 75 100 100 100 100 100 100
5 5 5 5 5 27 47 98 100 100 100 100 100 100 100 100 100 100 100 100 100 100 100 100 100 100 88 64 44 96 100 88 100 100 88 71 68 73 73 98 100 100 100 75
5 5 5 5 65 100 100 73 100 100 100 100 80 78 100 100 100 100 100 100 100 100 100 100 100 100 22 8 44 6 41 86 100 98 100 100 81 99 84 82 56 91 85 87
5 5 5 54 7 5 100 100 100 100 100 99 48 88 100 100 100 100 100 100 100 100 100 100 100 99 78 72 79 73 73 74 82 96 81 69 61 100 100 100 46 100 100 100
5 5 100 61 83 65 100 100 100 100 100 100 92 94 100 100 100 100 100 100 100 100 100 100 100 90 80 100 100 92 73 5 27 100 45 60 12 78 91 99 97 100 100 100
5 5 5 5 37 70 97 100 100 100 100 100 100 100 100 100 100 100 100 100 100 100 100 100 100 100 100 100 100 100 99 100 100 100 96 23 40 56 97 100 98 97 100 100
5 5 5 8 59 90 100 100 100 100 100 100 100 100 100 100 100 100 100 100 100 100 100 100 100 100 100 100 98 100 100 100 97 98 96 99 100 80 100 100 100 100 100 100
2 5 72 100 100 100 99 100 100 100 100 100 100 100 100 100 100 100 100 100 100 100 100 100 100 100 100 100 88 64 62 100 100 100 100 100 99 98 100 100 100 100 100 100
3 5 79 100 94 100 100 100 100 100 100 100 100 98 82 80 100 100 100 100 100 100 100 100 100 100 100 100 100 100 53 100 100 100 100 100 100 100 100 100 100 100 100 100
51 62 98 100 64 100 100 100 100 100 100 99 100 98 90 62 100 100 100 100 100 100 93 96 100 94 100 100 100 100 100 100 100 100 100 100 100 100 100 100 100 100 98 89
97 98 100 100 92 100 100 100 100 100 92 100 100 100 43 92 100 100 100 100 100 100 70 99 100 77 100 100 100 100 100 100 100 100 100 100 100 100 100 100 100 98 96 98
11 89 100 100 100 100 100 100 100 100 100 100 100 96 90 100 100 100 100 100 99 54 89 92 97 100 91 100 100 100 100 100 100 100 100 100 100 100 100 100 100 100 100 100
100 100 96 91 100 100 100 100 100 100 100 100 100 100 100 84 100 100 100 70 91 100 100 96 64 100 100 95 96 100 99 98 100 100 100 100 100 100 100 100 100 100 100 97
99 96 62 70 94 93 96 100 100 100 100 100 100 100 100 66 100 100 100 100 100 100 66 100 100 100 100 100 100 100 100 100 100 100 100 100 100 100 100 100 89 100 100 87
100 99 72 99 46 63 87 100 100 100 100 100 100 100 100 100 87 100 100 100 100 100 84 40 97 100 100 100 100 100 100 100 100 100 100 100 100 100 100 100 100 100 100 100
100 97 100 97 99 97 68 100 100 100 100 100 100 100 98 76 90 100 100 100 100 96 11 33 87 80 96 99 97 100 100 100 100 100 100 100 100 100 100 100 100 100 100 99

GFSNW_prec_cloud_006.txt.gz
Cloud_Cover
68 5 5 97 98 97 100 100 100 49 100 100 100 100 100 100 100 100 100 100 100 84 99 100 100 100 100 100 100 90 28 97 87 45 10 24 59 98 100 100 100 100 100 84
57 38 5 5 99 100 100 100 100 88 100 100 100 100 100 100 100 100 100 100 89 100 100 100 99 100 100 100 63 24 68 97 57 98 29 74 100 98 100 100 100 95 100 100
51 46 5 7 54 100 95 100 100 100 100 100 100 100 100 100 100 100 100 100 100 100 100 100 100 100 100 71 75 100 85 92 46 95 100 100 100 98 100 100 100 87 90 100
12 5 5 5 58 100 100 100 100 100 100 100 100 99 100 100 100 100 100 100 100 100 100 100 100 100 95 100 100 94 79 100 81 48 62 100 100 100 100 100 48 100 100 100
5 5 5 53 84 100 100 100 100 70 100 99 93 65 94 100 100 100 100 100 100 100 100 100 100 100 52 100 98 99 100 79 96 100 96 100 100 100 100 100 100 100 99 100
5 5 5 5 17 87 100 100 100 100 100 100 98 74 82 99 100 100 100 100 100 100 100 80 100 100 100 100 100 100 100 100 100 79 79 100 100 100 100 100 100 100 100 70
5 5 5 5 8 56 97 100 100 100 100 100 64 95 100 84 100 100 100 100 100 100 97 100 100 92 100 100 100 100 100 100 100 100 70 98 100 100 100 100 100 100 100 98
5 5 2 5 5 13 92 100 100 100 100 100 100 79 33 8 96 100 100 100 100 100 98 99 100 100 100 100 100 100 98 100 100 100 100 99 100 100 98 100 100 100 100 96
5 5 5 5 1 11 47 100 100 100 100 35 96 92 5 5 12 100 100 100 100 100 100 100 100 100 100 100 100 100 100 100 100 100 100 99 100 100 100 100 100 100 100 100
5 5 5 5 0 2 25 100 100 100 100 99 100 98 84 67 85 99 100 100 100 100 99 100 100 96 100 100 100 81 100 100 100 100 100 100 100 100 100 100 100 100 100 100
5 5 5 5 4 5 67 46 100 100 100 100 100 100 100 100 92 73 100 100 100 100 100 100 100 100 100 100 100 71 12 100 100 71 99 100 100 100 100 98 100 100 100 100
5 5 5 5 5 5 8 59 92 100 100 100 99 100 100 100 98 93 100 100 100 100 100 100 100 100 100 100 100 94 95 97 100 98 98 87 92 100 96 93 85 100 100 100
5 5 5 5 5 5 14 34 86 100 100 100 100 77 65 100 100 100 68 100 100 100 100 100 100 100 100 100 100 31 30 75 100 92 98 100 95 85 61 76 91 100 100 100
5 5 5 5 58 28 21 12 68 97 100 100 100 83 100 98 98 99 80 92 100 100 100 100 100 100 100 96 85 18 75 97 55 95 52 18 92 43 73 59 82 94 88 94
74 23 70 5 96 17 30 54 66 95 100 100 100 100 100 100 93 85 100 100 100 100 100 100 100 96 80 65 24 30 98 100 59 57 16 10 22 7 20 21 26 95 100 100
17 11 18 15 98 9 96 100 100 100 100 100 100 100 100 100 100 100 100 100 100 100 100 100 100 77 98 90 47 99 87 42 6 6 42 53 85 52 66 16 99 100 100 100
5 5 5 41 61 12 62 92 100 100 100 100 99 94 100 100 100 100 100 100 100 100 100 100 100 99 100 100 86 38 92 85 100 100 100 100 100 100 100 97 100 100 100 100
5 5 5 17 100 38 90 100 100 100 100 100 100 96 88 100 100 100 100 100 100 100 100 100 100 100 100 100 91 60 93 100 97 99 100 100 100 92 59 96 100 100 100 100
5 4 97 70 83 21 100 100 100 100 100 100 99 78 100 100 100 100 100 100 100 100 100 100 100 100 100 99 60 30 9 28 55 88 100 100 93 80 82 99 100 100 100 100
5 2 16 100 63 91 100 100 100 100 100 100 100 79 100 100 100 100 100 100 100 100 100 100 100 100 100 100 100 100 58 84 100 100 87 100 100 100 100 100 100 100 100 100
25 48 83 61 44 97 100 100 100 100 100 100 93 7 100 100 100 100 100 100 100 100 100 100 100 100 100 100 100 100 100 66 100 100 100 100 99 100 91 99 100 100 97 96
30 96 100 84 100 100 100 100 100 100 100 100 100 43 87 100 100 100 100 100 100 100 100 100 100 100 98 100 100 100 100 100 97 100 100 100 100 100 100 100 99 88 83 96
7 69 82 74 86 99 100 100 100 100 100 100 100 100 100 100 100 100 100 100 100 100 100 100 100 100 100 100 100 100 100 100 100 100 100 100 100 100 100 100 100 100 100 100
50 45 6 37 29 71 100 100 100 100 100 100 100 100 100 100 99 100 100 100 100 100 100 100 100 100 100 100 100 100 100 100 100 100 100 100 100 100 100 100 100 100 100 100
92 41 57 90 99 97 96 100 100 100 100 100 100 100 100 100 84 76 100 100 100 100 100 100 100 100 100 100 100 100 100 100 100 100 100 100 100 100 99 100 100 100 99 94
90 99 62 78 45 14 5 100 100 100 100 100 100 100 98 98 86 100 100 100 100 100 83 16 15 70 100 100 100 100 100 100 100 100 100 100 100 100 100 100 100 100 100 100
100 94 93 98 99 96 34 5 96 100 100 100 100 100 100 96 74 98 100 100 100 100 85 98 86 83 98 100 100 100 100 100 100 100 100 100 100 100 100 100 100 100 100 100

GFSNW_prec_cloud_009.txt.gz
Cloud_Cover
90 33 35 100 100 100 100 61 100 86 30 100 100 100 100 100 100 100 100 100 100 83 92 71 80 65 55 89 100 100 100 100 100 86 81 39 62 74 97 100 76 100 100 69
91 5 5 36 100 100 100 100 100 86 70 100 100 100 100 97 100 100 100 100 100 100 61 36 71 90 100 100 100 100 99 70 58 51 22 60 95 96 100 100 100 100 100 100
5 5 12 6 96 100 100 82 100 100 92 100 100 100 100 100 100 100 100 100 100 100 91 13 44 31 73 100 100 90 78 80 73 10 11 100 98 100 100 100 100 90 100 100
20 5 5 5 12 89 92 100 94 82 100 99 100 100 100 100 100 100 100 100 100 100 100 56 14 94 100 100 100 80 96 98 74 38 35 61 100 98 100 100 100 100 100 100
5 5 5 5 5 100 72 100 98 100 94 100 100 100 100 100 100 100 100 100 100 100 81 100 100 100 100 100 70 100 99 77 87 100 54 73 98 98 100 100 100 100 100 100
5 5 5 3 5 97 100 97 99 100 63 37 75 56 79 100 100 100 100 100 100 100 98 100 100 100 100 96 100 100 100 99 100 99 68 50 88 100 100 100 100 100 100 100
5 5 5 0 2 82 100 100 100 100 94 97 92 100 89 100 100 100 100 100 100 100 100 100 100 100 100 100 100 100 100 96 100 96 76 92 100 100 100 100 96 100 99 100
95 5 5 5 0 4 96 100 100 100 75 95 55 75 99 100 100 100 100 100 100 100 100 100 100 100 100 100 100 100 100 100 97 97 92 65 100 100 91 100 72 100 100 100
5 5 5 5 4 0 60 56 100 100 100 32 43 41 69 97 100 100 100 100 100 100 100 100 100 100 100 100 100 100 100 100 100 100 100 100 100 100 61 100 100 100 100 100
33 5 5 5 5 2 5 93 99 100 100 100 100 85 87 14 80 100 100 100 100 100 100 100 100 100 100 100 100 100 100 100 100 100 100 95 88 80 90 100 100 100 100 100
100 5 5 5 5 5 4 100 90 55 100 49 18 28 37 11 69 99 100 100 100 100 100 100 100 100 100 100 100 100 100 100 100 100 100 86 81 23 75 98 98 100 100 100
86 5 5 5 2 5 5 90 91 99 99 100 100 29 28 14 97 91 100 100 100 100 100 100 100 100 100 100 100 100 100 100 91 100 100 53 10 58 28 95 35 100 100 100
75 36 5 9 5 10 34 96 84 89 99 100 96 80 37 71 17 97 98 99 100 100 100 100 100 100 92 100 100 100 100 100 92 73 31 5 7 19 59 33 86 75 90 100
9 83 100 94 5 9 71 100 81 92 100 100 100 97 64 69 100 25 81 98 100 100 100 100 100 100 100 100 99 100 100 100 100 98 8 15 6 5 51 7 54 100 89 96
5 93 85 6 5 14 24 31 7 74 98 100 100 100 93 100 100 62 44 83 74 100 100 100 100 100 100 87 97 100 100 93 94 99 52 9 5 5 5 39 24 9 28 96
20 26 5 38 5 100 98 90 68 97 100 100 100 100 100 100 100 93 63 88 85 100 100 100 100 97 100 100 100 72 100 20 48 72 5 12 22 5 34 96 45 52 100 100
8 5 62 98 99 100 100 57 100 100 100 100 100 100 100 100 100 100 100 100 100 100 100 100 100 99 100 100 40 41 98 100 95 20 28 98 64 82 89 100 97 54 100 100
5 8 48 86 93 94 90 78 100 100 100 100 100 100 100 100 100 100 100 100 100 100 100 100 100 100 100 99 92 81 5 5 34 80 82 87 89 100 100 100 100 100 100 99
5 5 14 90 72 71 100 100 100 100 100 100 100 100 100 100 100 100 100 100 100 100 100 100 100 100 94 98 100 24 15 80 99 91 99 100 100 100 100 100 93 94 40 91
3 7 46 99 89 8 95 100 100 100 100 100 100 100 100 100 100 100 100 100 100 100 100 94 100 100 100 100 100 100 99 6 23 56 60 70 98 100 100 100 85 95 100 97
68 94 86 88 57 98 100 100 100 100 100 100 100 99 100 100 100 100 100 100 100 100 100 100 100 100 100 100 100 100 100 97 85 100 100 100 100 100 100 100 100 100 100 97
62 91 100 99 100 100 100 100 100 100 100 100 98 95 100 100 100 100 100 100 100 100 99 100 100 100 100 100 100 100 100 100 100 100 100 100 100 100 100 100 100 100 100 100
26 78 77 99 57 82 44 63 100 100 100 100 98 96 99 100 100 100 100 100 100 100 100 100 100 100 100 100 100 100 100 100 100 100 100 100 100 100 100 100 100 100 100 100
96 80 17 75 66 97 100 100 100 100 100 100 100 100 100 100 100 100 100 100 100 100 100 100 100 100 100 100 100 100 100 100 100 100 100 100 100 100 100 100 100 100 100 100
98 79 58 100 99 94 85 89 100 100 100 100 100 100 89 98 100 100 100 100 100 100 100 98 100 100 100 100 100 100 100 100 100 100 100 100 100 100 100 100 100 100 100 100
88 92 100 100 98 69 28 31 100 100 97 100 100 100 100 100 96 100 100 100 100 100 100 96 65 90 100 98 100 100 100 100 100 100 100 100 100 100 100 100 100 100 100 100
100 100 93 99 100 79 17 5 5 43 90 100 100 100 100 100 100 100 92 93 99 100 100 96 77 69 83 100 100 100 100 100 100 100 100 100 100 100 100 100 100 100 100 100

GFSNW_prec_cloud_012.txt.gz
Cloud_Cover
5 5 5 5 100 100 100 99 100 55 87 100 100 100 100 100 100 82 100 100 100 91 66 82 99 74 97 30 82 32 94 100 77 38 100 100 100 87 74 100 16 69 19 40
5 5 4 30 100 100 98 100 100 50 75 100 99 100 100 100 99 100 100 100 100 100 100 100 100 93 31 25 6 62 75 100 90 100 100 100 91 15 86 70 92 95 100 40
5 13 1 5 100 88 6 93 84 92 100 99 77 100 100 100 100 100 100 100 100 100 100 100 90 14 5 6 89 100 100 100 68 61 80 25 57 10 92 100 100 47 100 7
5 13 0 5 100 60 45 82 47 85 71 100 100 100 100 100 100 100 100 100 100 100 100 76 70 100 13 97 100 100 99 83 7 5 5 5 7 100 93 100 90 100 98 87
5 5 5 5 64 9 56 91 100 99 90 82 100 100 95 94 97 73 100 100 100 100 100 100 100 58 86 100 100 100 16 66 70 100 44 6 94 100 90 100 100 100 100 100
29 19 5 0 5 94 100 100 100 99 5 11 98 37 63 84 84 86 100 100 100 100 100 95 82 68 100 100 100 100 90 94 99 100 46 94 99 100 100 100 100 100 100 100
14 24 14 4 1 85 100 100 100 99 8 17 84 14 100 100 100 100 100 100 100 100 100 100 100 100 100 100 99 100 99 98 100 93 86 72 51 98 100 96 15 100 100 100
7 5 68 5 5 4 93 100 100 100 61 8 5 17 81 100 99 100 100 100 100 100 100 100 100 100 100 53 80 100 100 100 100 100 65 46 72 98 100 100 31 86 100 46
81 78 23 66 5 2 4 100 100 100 100 92 98 73 100 100 100 100 100 100 100 100 100 100 100 100 100 100 100 100 100 100 93 97 100 86 99 80 99 100 100 25 98 100
60 79 99 24 5 2 1 85 100 100 100 76 28 69 92 100 100 69 100 85 100 100 100 89 100 100 100 100 100 100 100 100 100 100 100 64 86 34 100 91 76 65 83 99
98 100 94 13 5 0 3 3 99 100 100 50 53 33 47 100 49 68 76 60 100 100 100 92 100 99 100 100 100 98 98 100 100 100 100 90 73 86 50 5 6 26 97 100
100 100 100 99 8 4 4 7 4 84 100 55 76 37 5 24 61 100 89 100 100 100 100 100 100 100 100 100 100 100 100 100 100 82 83 100 100 98 45 5 5 36 79 96
90 20 90 90 90 68 5 5 16 17 100 96 98 86 17 7 34 100 89 100 100 100 100 100 98 100 100 100 100 100 100 100 90 43 100 95 66 5 6 51 5 28 69 93
26 100 88 92 66 42 5 5 8 41 100 100 97 72 66 48 86 80 66 100 100 100 100 100 100 100 100 100 100 100 100 100 100 73 39 8 5 17 9 8 5 5 18 28
6 26 65 9 9 31 8 2 4 31 99 100 100 92 100 100 98 100 100 89 100 100 100 100 100 100 100 98 100 100 100 94 100 98 56 16 5 5 5 62 10 5 9 32
21 100 44 65 99 96 5 9 7 12 100 100 100 100 100 100 98 100 100 100 99 100 100 100 100 84 93 100 100 78 94 100 96 100 100 63 5 5 5 80 82 9 5 76
100 17 28 76 98 100 76 22 100 100 100 100 100 100 100 100 100 100 100 100 100 100 100 100 100 56 100 100 100 100 100 100 100 100 100 42 18 31 23 93 93 52 70 62
28 5 5 52 10 66 52 13 100 100 100 100 100 100 100 100 100 100 100 94 99 100 100 100 100 100 100 100 100 100 100 83 6 11 53 82 98 100 95 100 91 80 74 100
5 4 48 23 7 88 100 78 100 100 100 100 100 100 100 100 100 100 100 100 100 100 100 100 100 100 96 91 100 100 100 100 11 5 6 74 89 100 100 100 100 85 83 100
4 17 28 89 99 7 69 100 100 100 100 100 100 100 100 100 100 100 100 100 100 100 100 100 100 100 98 100 100 100 91 66 8 15 82 98 100 100 100 100 100 98 100 89
92 100 98 84 90 94 100 100 100 100 100 100 100 100 100 100 100 100 100 100 100 100 100 100 100 100 100 100 100 100 86 98 100 98 71 58 86 100 81 100 100 100 100 100
78 84 52 71 100 100 100 100 100 100 100 99 100 100 100 100 100 100 100 100 100 100 100 100 100 100 100 100 100 100 100 100 100 88 100 100 100 100 100 100 100 100 100 100
88 95 78 99 100 100 100 100 100 100 100 100 100 100 100 100 100 100 100 100 100 100 100 100 100 100 100 100 100 100 100 100 100 100 100 100 100 100 100 100 100 100 100 100
100 100 78 100 100 100 100 100 100 100 100 100 100 100 100 100 100 100 100 100 100 100 100 100 100 100 100 100 100 100 100 100 100 100 100 100 100 100 100 100 100 100 100 100
100 100 97 100 98 100 100 100 100 100 100 100 100 100 93 98 100 100 100 100 100 100 100 100 100 100 100 100 100 100 100 100 100 100 100 100 100 100 100 100 100 100 100 100
98 100 100 100 100 98 12 34 100 100 100 100 100 100 100 100 99 100 100 100 100 100 100 100 100 100 100 100 100 100 100 100 100 100 100 100 100 100 100 100 100 100 100 100
100 100 100 100 92 94 5 5 35 70 100 100 100 100 100 100 100 100 100 100 100 100 74 71 100 100 100 100 100 100 100 100 100 100 100 100 100 100 100 100 100 100 100 100

GFSNW_prec_cloud_015.txt.gz
Cloud_Cover
42 5 14 100 100 6 4 12 99 97 100 100 100 100 100 100 100 94 60 53 79 61 82 85 71 73 100 100 100 100 100 100 69 98 100 100 100 49 59 78 19 6 33 18
41 5 7 99 93 24 37 8 61 100 100 100 100 100 100 100 100 92 100 94 73 85 49 48 96 100 100 100 100 96 97 88 99 100 99 100 71 52 11 46 94 19 100 16
69 56 8 58 10 16 1 15 5 93 78 100 93 100 99 93 100 98 86 75 88 94 97 100 100 100 100 94 100 100 85 96 81 100 100 73 52 5 43 99 99 95 19 12
100 7 5 5 5 0 0 34 56 47 55 39 96 99 100 92 24 95 99 100 100 100 100 100 100 100 83 81 94 100 95 63 100 100 69 37 5 10 100 99 82 100 20 55
100 97 32 3 5 3 52 94 94 83 10 11 55 27 14 6 79 100 100 100 100 100 100 100 100 100 100 78 19 71 90 87 91 90 6 5 46 51 100 100 95 85 93 94
100 100 51 5 3 5 67 93 100 100 5 5 9 27 42 7 100 96 100 100 100 100 100 100 100 82 24 26 97 92 94 81 68 11 37 8 51 100 100 100 83 100 95 90
100 100 5 84 3 21 92 97 100 100 15 5 42 5 29 69 21 98 100 100 100 100 100 100 100 34 72 100 100 100 72 95 62 80 74 58 94 89 100 23 24 99 72 100
100 100 67 5 7 2 26 99 67 100 100 35 43 17 100 51 57 49 100 100 100 100 100 100 100 70 40 80 100 100 99 100 91 95 72 53 100 94 100 77 23 44 73 100
100 100 59 6 7 5 5 100 100 92 100 89 80 53 91 98 74 67 100 100 83 100 100 100 100 86 98 78 100 100 100 100 91 100 95 38 72 100 74 92 53 8 61 93
100 100 100 32 5 5 5 69 90 100 100 87 100 100 99 98 67 74 98 100 100 98 100 99 75 88 79 79 74 94 100 100 100 100 90 40 13 100 69 100 53 72 10 65
100 98 100 85 100 24 5 4 89 64 100 62 100 100 99 47 98 24 25 79 100 100 99 100 96 69 90 74 82 99 100 100 100 100 100 100 29 57 100 100 40 80 8 18
100 100 86 100 100 52 77 5 4 5 58 38 52 100 100 54 58 82 44 48 41 99 95 99 100 100 63 60 100 100 95 76 98 60 88 76 30 100 100 75 58 60 5 13
100 89 100 100 100 100 76 24 4 8 23 8 12 6 71 74 100 62 98 36 80 98 87 92 100 100 99 88 97 100 99 100 99 72 77 88 66 62 100 69 12 57 10 6
100 100 85 50 50 57 54 100 5 28 31 100 58 41 58 24 92 100 92 99 85 99 100 100 77 100 96 98 100 100 95 97 100 75 100 100 100 70 80 65 66 20 69 69
90 100 100 95 29 84 88 13 4 1 39 100 100 100 67 97 31 100 100 87 100 100 100 100 100 85 100 100 100 100 98 69 100 100 100 100 100 99 75 95 94 79 94 63
91 100 100 5 11 99 90 85 70 22 65 100 100 100 100 100 100 94 100 100 100 100 100 100 100 89 94 100 99 79 100 100 100 100 100 100 100 99 52 66 100 89 88 96
100 100 61 43 40 56 94 9 100 94 38 100 100 100 100 100 80 100 100 100 99 100 100 100 100 100 100 100 97 76 100 100 100 100 100 96 83 93 86 100 100 100 96 99
100 100 7 5 21 27 71 67 99 100 100 100 100 100 100 100 100 100 100 100 100 100 100 100 100 88 100 67 86 100 100 100 83 100 42 46 100 86 14 76 73 100 89 99
51 10 60 83 84 95 72 62 74 100 100 100 100 100 100 100 100 100 100 100 100 100 100 100 99 100 100 87 100 94 99 100 98 94 98 65 36 7 14 83 74 100 100 94
84 51 93 69 54 10 32 89 100 100 100 100 100 100 100 100 100 100 100 100 100 100 100 100 100 100 100 100 99 84 77 79 37 38 80 9 9 7 61 99 100 100 100 86
95 100 100 58 56 93 98 100 100 100 100 100 100 100 100 100 100 100 100 100 100 100 100 98 100 100 100 100 100 100 100 90 82 71 23 5 60 45 96 72 100 99 100 99
100 100 100 100 100 100 100 100 100 100 100 100 100 100 100 100 100 100 100 100 100 100 100 100 100 100 100 100 100 100 100 100 99 87 89 100 98 62 67 71 100 100 100 100
100 100 92 100 96 100 97 100 100 100 100 100 100 100 100 100 100 100 100 100 100 100 100 100 100 100 100 100 100 100 100 100 98 100 100 99 100 100 100 100 100 100 100 100
100 95 99 100 100 100 100 100 97 100 100 100 100 100 100 100 100 100 100 100 100 100 100 100 100 100 100 100 100 100 100 100 100 100 100 100 100 90 100 100 100 100 100 100
100 100 100 100 84 100 100 100 96 100 100 100 100 100 96 100 99 100 100 100 100 100 100 100 100 100 100 100 100 100 100 100 100 100 100 100 100 100 100 100 100 100 100 100
100 100 100 100 100 100 96 100 100 100 100 100 100 100 100 100 97 100 100 100 100 100 100 100 100 100 100 100 100 100 100 100 100 100 100 100 100 100 100 100 100 100 100 100
100 100 100 100 100 100 82 13 99 100 100 100 100 100 60 98 100 100 100 100 100 100 100 96 100 100 100 100 100 100 100 100 100 100 100 100 100 100 100 100 100 100 100 100

GFSNW_prec_cloud_018.txt.gz
Cloud_Cover
96 100 5 93 99 0 13 5 14 99 100 90 100 100 100 100 99 76 27 61 59 86 96 100 95 69 99 100 100 100 100 100 100 100 68 10 5 5 7 38 5 70 100 98
97 100 5 1 92 34 16 7 5 4 99 90 100 100 100 98 20 30 16 72 100 100 68 81 77 100 100 100 100 100 100 100 100 61 58 14 11 97 55 70 86 64 85 30
100 100 14 2 0 0 0 10 5 5 98 52 72 69 62 20 23 57 69 68 71 90 100 100 100 100 100 100 100 100 100 100 100 100 100 84 100 72 70 69 81 58 43 5
100 100 69 5 0 0 0 18 41 100 67 35 97 91 98 5 5 8 38 79 94 100 100 100 100 100 100 100 100 100 100 100 100 100 100 69 82 64 46 7 100 100 5 71
100 100 96 10 0 0 5 88 96 100 37 7 5 5 5 5 38 42 55 91 97 100 100 100 100 100 100 100 100 100 100 100 100 100 100 48 68 5 61 100 96 80 55 22
100 83 17 58 3 1 24 18 52 77 8 5 5 5 5 5 5 22 59 26 80 100 100 100 100 100 100 100 72 52 93 100 100 100 56 40 6 8 100 77 5 20 33 40
100 89 30 40 5 0 57 62 100 96 46 5 5 5 5 5 58 90 92 55 100 100 100 100 94 100 97 93 100 100 100 100 100 54 24 48 9 5 5 5 5 5 41 72
100 36 14 19 28 9 88 77 16 98 100 88 5 11 5 9 49 22 74 100 96 100 100 96 97 97 90 100 100 100 100 100 72 74 91 80 9 11 5 5 5 48 46 91
100 100 94 100 5 5 1 95 54 59 100 24 20 5 5 77 33 27 65 100 98 59 94 100 100 100 82 98 100 100 100 100 99 99 73 79 28 36 5 5 54 95 57 71
100 100 100 100 87 8 100 4 6 35 100 75 39 5 30 24 38 48 28 97 100 100 70 100 100 100 100 93 100 100 100 100 100 100 92 98 66 5 5 5 34 98 96 77
100 100 100 100 100 97 78 60 5 4 84 80 29 66 51 83 25 54 81 28 94 100 100 96 100 100 100 99 100 100 92 100 100 100 92 97 60 87 42 5 60 62 100 85
100 100 100 100 92 93 100 32 31 5 10 5 4 65 97 82 78 71 68 62 29 83 99 91 98 100 100 100 100 100 93 80 96 80 74 89 68 74 6 12 80 68 100 82
100 100 100 100 100 68 37 78 85 31 49 18 8 5 94 100 37 96 100 89 52 36 76 99 100 100 100 98 85 100 97 87 97 90 91 100 80 89 52 46 44 65 68 96
100 100 100 100 100 44 100 99 28 89 28 81 4 88 100 100 100 98 100 96 77 80 53 83 100 100 89 82 86 93 80 61 81 54 47 84 53 98 97 100 100 99 100 99
100 100 96 97 100 85 50 82 94 100 81 94 56 13 56 100 100 100 100 100 100 94 53 96 100 100 100 92 100 100 62 56 92 73 92 98 85 84 98 100 100 100 100 86
100 100 54 69 27 56 100 36 97 98 70 99 90 70 95 100 100 100 100 100 100 100 100 100 100 100 100 95 79 96 59 88 100 100 88 100 75 100 100 100 100 100 100 100
100 100 70 66 5 84 100 5 88 99 68 78 92 100 100 100 100 100 98 100 100 81 100 100 100 98 100 100 96 100 100 100 100 82 67 5 50 89 100 100 100 100 100 100
100 100 100 100 72 5 43 5 56 91 98 100 100 100 100 100 100 100 100 100 100 100 100 100 100 100 100 88 42 85 100 100 100 94 100 85 57 82 100 100 100 100 88 39
100 100 100 81 90 57 29 17 40 96 100 100 100 100 100 100 100 100 100 100 100 95 78 100 100 100 100 50 100 84 45 58 94 97 75 97 19 56 74 82 69 58 61 88
100 100 100 93 76 17 18 99 100 100 100 100 100 100 100 100 100 100 100 100 100 100 100 100 100 100 99 96 100 77 37 64 69 87 16 69 43 27 14 5 5 87 100 100
100 100 100 100 76 84 100 100 100 100 100 100 100 100 100 100 100 100 100 100 100 100 80 97 100 100 100 100 100 90 75 100 98 17 34 42 28 33 5 5 49 89 99 100
81 99 98 100 100 100 100 100 100 100 100 100 100 100 100 100 100 100 100 100 100 100 100 98 100 100 78 100 100 100 99 99 100 71 91 91 81 39 14 20 58 100 100 100
100 100 100 100 100 100 100 100 99 100 100 100 100 100 100 100 100 100 100 100 98 96 99 100 100 100 100 100 100 100 100 100 97 100 100 94 78 88 93 100 99 100 100 100
98 100 100 100 100 97 100 100 100 100 100 100 100 100 100 100 100 100 100 100 100 100 100 100 100 100 100 100 100 100 100 100 100 100 100 100 100 100 100 100 100 100 100 100
100 100 100 100 100 100 100 100 74 100 100 100 100 100 100 100 94 100 100 100 100 100 100 100 100 100 100 100 100 100 100 100 100 100 100 100 100 100 100 100 100 100 100 100
100 98 100 100 100 100 100 100 91 100 100 100 100 100 100 100 97 100 100 100 100 98 100 100 100 100 100 100 100 100 100 100 100 100 100 100 100 100 100 100 100 100 100 100
77 100 100 100 100 100 100 100 95 98 100 100 100 100 100 100 100 100 100 100 97 100 94 100 100 100 100 100 100 100 100 100 100 100 100 100 100 100 100 100 100 100 100 100

GFSNW_prec_cloud_021.txt.gz
Cloud_Cover
44 71 67 14 38 0 2 0 4 94 13 57 100 100 100 83 82 52 6 42 57 98 94 89 100 100 100 100 100 100 100 100 100 100 100 100 100 100 97 99 100 100 100 73
100 86 92 21 10 65 5 0 6 5 100 95 74 59 40 80 87 5 88 100 93 95 100 100 100 100 100 100 100 100 100 100 100 100 100 100 100 100 100 100 96 10 96 61
97 90 80 95 0 10 0 8 4 5 48 100 98 86 5 5 5 5 26 77 61 100 100 100 99 100 100 100 100 100 100 100 100 100 100 100 100 86 29 38 74 36 100 100
100 75 100 100 2 0 0 12 78 96 80 90 100 45 5 5 5 5 45 74 78 21 47 100 100 100 100 100 100 100 100 100 100 100 100 98 92 94 52 89 85 100 100 72
100 79 95 100 10 0 8 25 88 96 44 5 5 5 5 5 5 5 46 18 100 71 38 61 100 100 100 100 100 100 100 100 100 100 100 100 100 100 100 100 100 100 50 68
100 100 80 100 99 2 8 19 80 74 4 5 5 5 5 5 5 5 24 96 99 67 44 86 100 100 100 100 100 100 100 100 100 100 100 100 100 100 100 91 100 28 14 28
100 100 99 100 100 30 100 100 100 94 3 0 2 5 5 4 5 38 68 100 100 80 90 99 97 100 100 100 100 100 100 100 100 98 100 100 100 100 84 73 29 5 5 38
100 100 100 100 100 88 20 99 33 97 100 94 1 2 3 4 5 36 100 100 100 100 100 91 70 95 100 100 100 100 93 97 96 97 100 98 90 35 39 5 6 5 19 70
100 100 100 100 100 100 91 13 47 73 100 14 80 84 0 5 7 82 100 100 100 100 100 99 80 88 42 95 96 100 100 100 100 96 99 18 40 19 5 5 5 5 5 69
100 100 100 100 100 100 58 22 5 50 100 84 20 40 55 9 5 5 71 98 97 100 100 100 100 87 90 86 100 100 100 100 100 100 100 10 96 74 5 31 5 15 5 54
100 100 100 100 100 100 100 78 6 56 93 14 7 23 27 99 70 5 5 22 100 100 100 100 100 100 100 97 64 100 100 100 100 100 100 65 100 97 7 5 5 5 7 32
100 100 100 100 100 100 100 100 62 94 95 3 6 2 5 18 93 94 98 29 5 97 100 100 100 100 100 100 98 43 81 9 71 31 52 76 99 98 29 5 5 25 41 86
100 100 100 100 100 100 100 92 100 100 100 32 32 4 0 24 82 100 100 85 94 39 98 100 100 100 98 100 74 98 67 94 71 76 24 64 83 95 84 42 53 61 19 100
100 100 100 100 100 100 100 100 68 97 100 99 6 2 1 8 100 100 68 100 83 100 85 92 100 100 59 34 35 62 66 88 92 96 13 69 100 96 88 46 27 45 56 100
100 100 100 100 100 100 100 99 78 98 100 78 25 0 0 0 97 100 100 100 100 100 89 51 65 88 82 37 51 78 78 45 61 87 96 100 100 100 89 62 75 71 100 100
100 100 100 100 100 100 100 100 90 75 100 100 85 1 0 3 34 72 100 100 100 100 96 64 88 81 90 54 97 100 82 94 100 93 64 86 30 66 90 46 31 99 100 100
100 100 100 100 100 99 100 99 19 35 100 71 71 81 85 75 82 100 100 100 100 100 87 86 88 100 100 100 100 100 88 100 98 100 95 6 98 79 22 92 82 92 100 100
100 100 100 100 100 100 84 8 18 93 84 100 100 100 100 86 100 100 100 100 100 100 100 100 87 90 100 60 27 100 96 99 88 100 100 99 82 40 75 54 52 100 100 100
100 100 100 100 97 63 8 35 100 100 100 100 100 100 100 100 100 100 100 100 100 100 100 70 57 98 99 16 68 99 100 36 64 100 82 75 95 100 90 100 100 86 84 89
100 100 100 100 98 13 69 100 100 100 100 100 100 100 100 100 100 100 100 100 100 100 85 71 82 48 92 71 69 99 100 56 42 86 98 54 80 5 32 58 10 23 29 32
100 100 100 87 35 82 100 100 100 96 100 100 100 100 100 100 100 100 99 99 100 100 89 100 100 85 62 64 78 96 100 78 83 80 98 73 58 47 15 6 10 6 31 27
100 99 76 99 100 99 100 89 99 100 100 100 100 100 100 100 100 100 100 99 99 97 82 99 100 100 74 98 78 80 91 70 88 98 90 97 92 88 69 5 19 23 65 100
100 99 100 100 100 100 100 99 93 98 100 100 100 100 100 100 100 100 100 98 99 82 99 100 100 100 69 93 98 98 100 99 100 99 100 100 98 91 94 97 93 100 100 100
100 100 100 99 100 100 100 100 76 95 100 100 100 100 100 100 100 100 100 100 92 97 100 100 100 100 100 100 100 98 100 100 98 100 100 100 100 100 96 100 100 100 100 100
100 100 100 100 100 100 100 100 79 79 100 100 100 100 79 100 100 100 100 100 100 100 100 100 100 100 100 100 100 100 100 100 100 100 100 100 100 100 100 99 100 100 100 100
79 99 100 100 100 100 100 100 100 88 100 100 100 100 100 100 100 100 100 100 100 100 100 100 100 100 100 100 100 100 100 100 100 100 100 100 100 100 100 98 100 100 100 100
79 99 100 100 100 100 100 100 100 100 100 100 100 100 98 100 100 100 100 100 99 75 78 80 76 99 100 100 100 100 100 100 100 100 100 100 100 100 100 100 100 100 100 100

GFSNW_prec_cloud_024.txt.gz
Cloud_Cover
100 100 95 100 100 6 0 5 5 18 5 34 100 100 100 98 24 5 10 5 20 39 41 76 100 100 100 100 100 100 100 100 100 100 100 100 100 100 100 100 100 100 58 93
99 100 84 100 100 53 10 0 5 5 5 100 100 67 19 23 5 5 6 29 43 86 100 88 100 100 100 100 100 100 100 99 100 100 100 100 100 100 100 100 100 100 100 97
100 100 100 100 100 24 0 5 13 4 5 99 100 71 5 5 5 5 5 23 69 85 99 100 100 100 98 100 100 100 100 100 100 100 100 100 100 100 100 63 99 64 32 30
100 100 100 100 100 73 0 16 93 94 74 5 48 24 12 5 5 5 25 65 34 68 47 33 100 100 100 100 100 100 100 100 100 100 100 95 100 100 100 100 73 99 100 93
100 77 100 62 100 100 17 49 63 96 28 5 3 4 5 5 5 5 5 19 66 72 99 72 86 55 11 97 81 100 100 100 100 100 100 100 100 100 100 100 65 67 100 100
98 99 100 100 100 100 20 50 99 96 6 2 0 4 4 5 5 5 16 24 90 46 85 100 94 84 90 61 98 100 100 100 100 100 100 76 58 100 98 85 99 100 100 100
99 100 100 100 100 100 67 100 100 96 16 7 1 3 1 3 3 4 5 26 85 86 100 93 88 100 90 95 47 94 100 100 100 100 100 99 98 100 100 100 100 100 100 94
100 100 100 100 100 100 100 55 80 99 100 84 3 16 8 4 2 4 5 76 100 100 100 100 86 100 100 98 55 23 92 99 93 100 100 100 100 100 100 100 100 100 19 93
100 100 100 100 100 100 100 100 5 72 99 24 71 99 80 6 5 5 3 6 100 100 100 78 98 86 60 56 98 98 100 68 92 94 100 100 100 100 100 100 100 36 73 20
100 100 100 100 100 100 100 100 79 98 94 19 92 70 94 80 5 5 2 5 60 100 100 100 64 59 13 81 100 100 100 100 100 100 99 100 100 100 100 100 93 41 5 5
100 100 100 100 100 100 100 100 100 100 78 6 6 9 71 57 100 54 10 5 5 24 79 100 100 64 55 76 6 99 100 93 100 100 94 93 83 100 91 74 87 5 5 5
100 100 100 100 100 100 100 100 100 100 100 100 100 100 5 4 96 100 100 62 5 5 59 43 100 100 28 62 98 12 36 6 36 7 7 82 94 86 94 94 16 5 5 15
100 100 100 100 100 100 100 100 100 100 100 100 100 100 52 18 5 94 100 100 100 19 8 61 68 100 92 79 65 34 61 70 64 78 5 84 54 19 86 98 13 5 5 8
100 100 100 100 100 100 100 100 100 100 100 100 100 100 100 100 82 14 100 96 100 100 99 95 90 43 96 54 10 28 9 64 65 99 56 97 82 98 100 100 80 28 47 32
100 100 100 100 100 100 100 100 100 100 100 100 98 55 35 2 2 2 57 91 100 100 100 96 26 22 40 56 5 5 92 100 100 99 27 96 100 26 65 76 87 83 19 12
100 100 100 100 100 100 100 100 100 100 75 100 82 5 3 0 0 0 15 97 100 100 100 73 29 13 58 67 100 18 96 100 100 100 29 84 87 5 83 100 90 15 5 7
100 100 100 100 100 100 100 100 100 91 68 100 63 36 89 89 2 16 75 100 100 100 100 55 43 34 18 35 83 84 91 100 100 100 84 98 92 62 75 38 37 7 31 22
100 100 100 100 100 100 100 100 98 54 94 97 99 100 100 75 42 77 100 100 100 100 100 82 5 52 25 85 88 96 100 100 99 100 99 98 94 100 100 83 14 5 10 42
100 100 100 100 100 100 100 51 100 100 95 100 100 99 100 100 83 100 100 100 100 100 100 100 73 31 99 82 91 54 100 100 77 52 66 100 100 98 100 100 35 5 14 43
100 100 100 100 100 100 100 100 100 100 100 100 100 100 100 100 100 100 100 100 100 100 100 94 88 9 29 100 98 96 95 100 100 76 94 83 100 100 85 74 44 18 48 57
100 100 100 100 100 87 100 100 100 98 100 100 100 100 100 100 100 100 100 100 100 100 100 100 100 93 84 27 5 5 21 100 100 100 100 80 100 100 100 100 65 41 5 5
100 100 100 100 100 100 100 95 98 99 92 100 100 100 100 100 100 100 100 100 100 97 100 100 90 100 61 32 7 5 5 83 100 99 100 100 100 100 90 91 100 29 5 13
100 100 100 100 99 100 100 99 91 100 100 100 100 100 100 100 93 100 100 95 99 92 97 100 100 54 57 53 88 26 86 72 100 97 100 100 100 100 100 100 97 98 99 97
100 100 100 100 100 100 100 99 76 100 100 100 100 100 100 100 100 97 100 74 92 100 100 93 100 100 100 100 100 100 100 100 100 100 100 100 100 100 100 100 100 100 100 100
100 100 100 100 100 100 100 100 100 100 100 100 100 100 100 100 100 93 100 100 100 99 100 100 100 100 100 100 100 100 100 100 100 100 100 100 100 100 100 100 100 100 100 100
74 100 100 100 100 100 100 100 100 100 100 100 100 100 100 100 100 98 100 100 100 83 100 100 100 100 100 100 100 100 100 100 100 100 100 100 100 100 100 100 100 100 100 100
100 92 99 100 100 100 100 100 100 100 100 100 100 100 99 100 100 100 100 100 91 49 69 100 100 100 100 100 100 100 100 100 100 100 100 100 100 100 100 100 100 100 100 100

GFSNW_prec_cloud_027.txt.gz
Cloud_Cover
60 92 97 100 88 62 2 0 5 5 5 70 36 99 98 57 5 5 5 37 49 86 100 100 100 100 100 100 100 100 100 100 100 100 79 79 100 100 100 56 98 100 98 100
100 100 100 99 100 98 14 0 0 5 5 86 100 100 98 45 5 5 5 5 25 11 10 82 100 100 100 100 100 100 98 100 100 100 100 100 98 100 100 100 100 100 100 57
81 100 72 99 100 67 1 5 10 3 5 5 20 6 5 5 5 5 5 15 5 5 63 52 91 100 100 100 100 100 100 100 100 100 100 100 100 100 100 100 100 100 85 98
45 88 82 100 100 90 7 12 96 97 71 5 5 5 5 5 5 5 5 5 5 5 18 10 49 100 100 100 100 100 100 100 100 100 100 100 100 100 100 100 100 100 100 100
25 5 88 99 100 100 32 92 91 96 52 5 5 2 5 5 5 1 5 5 5 5 5 6 8 61 83 94 100 100 100 97 100 100 100 100 100 100 100 100 100 100 100 100
91 5 18 89 100 94 100 100 99 96 15 5 5 4 3 4 5 5 4 54 100 32 5 5 5 5 55 96 100 100 100 100 100 100 100 100 100 100 98 81 6 71 100 100
94 56 96 100 100 99 100 100 100 96 40 6 12 5 5 5 0 5 5 5 7 70 31 17 31 67 72 39 96 100 100 100 100 100 100 100 100 100 100 100 100 100 100 100
89 67 100 99 100 100 99 100 100 94 37 60 8 22 51 5 4 4 5 5 10 5 47 31 10 97 97 100 76 92 100 100 100 100 100 57 50 73 86 100 100 100 100 100
100 100 100 100 100 100 100 100 100 100 100 89 81 100 88 58 5 5 5 5 5 5 21 98 42 13 17 70 99 99 83 76 98 87 79 70 58 63 69 94 99 100 100 100
100 100 100 100 100 100 100 100 100 100 100 100 16 87 59 99 95 8 4 5 5 6 43 76 98 76 68 57 96 100 100 100 99 99 100 39 41 78 100 100 100 100 100 100
100 100 100 100 100 100 100 100 100 100 100 100 100 99 87 99 68 100 36 64 50 77 97 100 100 76 76 15 16 100 90 100 100 100 100 90 34 100 100 100 100 92 100 78
100 100 100 100 100 100 100 100 100 100 100 100 100 100 100 97 99 100 100 100 95 5 28 36 62 98 94 95 97 82 52 49 76 44 23 64 97 100 100 100 100 100 100 64
100 100 100 100 100 100 100 100 100 100 100 100 100 100 100 100 100 100 100 100 100 100 100 87 93 33 70 100 79 100 73 38 70 9 16 71 76 97 99 100 100 87 26 5
100 100 100 100 100 100 100 100 100 100 100 100 100 100 100 100 100 100 100 100 100 100 99 76 100 40 7 16 78 100 90 77 100 57 23 5 5 5 31 100 54 25 5 5
100 100 100 100 100 100 100 100 100 100 100 89 100 98 100 100 100 100 100 91 100 100 100 100 90 6 54 10 16 100 100 100 100 100 25 59 6 18 98 100 98 31 79 68
100 100 100 100 100 100 100 100 100 100 100 100 100 100 100 35 39 1 5 5 32 100 100 100 100 8 59 65 53 83 100 95 100 100 76 12 30 100 100 98 28 7 65 36
100 100 100 100 100 100 100 100 100 100 100 100 71 5 16 63 67 8 12 5 10 88 100 100 100 36 22 6 6 3 99 100 100 100 76 33 96 100 100 100 61 17 48 5
100 100 100 100 100 100 100 100 100 100 100 98 99 32 79 100 98 99 8 5 59 100 100 100 100 93 82 59 3 3 69 100 97 100 26 24 16 90 100 93 50 19 26 28
100 100 100 100 100 100 100 100 100 100 100 79 76 92 99 99 100 96 49 77 100 100 100 100 100 100 100 100 5 5 5 42 64 96 95 11 5 48 66 96 100 92 22 5
100 100 100 100 100 100 100 100 100 100 100 100 100 100 100 100 98 100 100 100 100 100 100 100 100 100 100 100 19 5 5 6 58 14 100 66 7 93 96 95 84 92 57 20
100 100 100 100 100 100 100 100 100 96 99 100 100 100 100 100 100 100 100 100 100 100 100 100 100 100 93 5 5 5 7 54 45 59 59 100 96 98 100 100 86 36 54 18
100 100 100 100 100 100 100 100 100 100 100 100 100 100 100 100 100 99 85 100 100 100 100 100 100 89 40 99 20 5 5 5 5 60 100 100 100 98 100 100 100 100 100 45
100 100 100 100 100 100 100 100 95 97 100 100 100 100 100 100 100 100 100 100 100 100 100 100 100 37 22 45 59 53 6 71 99 100 96 100 100 100 100 100 100 100 98 100
100 100 100 100 100 100 100 100 100 98 85 100 100 100 100 100 100 100 99 86 100 100 92 81 100 98 99 100 63 100 99 100 97 64 60 99 100 100 100 100 100 100 100 100
13 100 100 100 100 100 100 100 100 100 99 100 100 100 100 100 100 100 98 100 100 100 100 100 100 100 100 100 100 100 100 100 100 100 100 100 100 100 100 100 100 100 100 100
72 81 79 100 100 100 100 100 100 100 100 99 100 100 100 100 100 97 92 92 100 90 100 100 100 100 100 100 100 100 100 100 100 100 100 100 100 100 100 100 100 100 100 100
98 76 40 60 85 62 99 100 100 100 100 100 99 100 100 100 100 96 98 100 56 92 100 100 100 100 100 100 100 100 100 100 100 100 100 100 100 100 100 100 100 100 100 100

GFSNW_prec_cloud_030.txt.gz
Cloud_Cover
57 100 49 5 20 69 0 0 0 0 1 9 23 100 100 65 6 5 5 38 46 47 67 25 30 77 94 100 100 100 100 100 100 100 97 68 100 94 99 100 100 92 11 11
38 3 8 5 7 97 83 0 0 1 0 2 5 5 37 66 5 5 5 5 5 6 6 46 100 93 24 58 95 100 100 100 100 100 38 91 97 100 100 100 89 24 8 56
5 10 3 5 5 78 6 2 16 0 0 10 4 4 4 2 0 0 4 5 5 15 66 61 13 100 94 98 91 93 100 100 100 100 100 36 22 70 100 100 100 100 86 94
5 5 5 5 47 49 11 30 91 90 15 5 3 5 2 0 3 4 4 5 4 5 51 23 96 100 100 100 100 100 100 100 98 100 100 100 99 100 100 100 86 100 100 100
5 5 39 6 55 100 100 92 97 89 45 5 4 3 5 5 2 0 5 5 5 5 13 30 61 67 100 100 100 100 100 100 100 100 93 100 100 100 100 100 100 67 100 94
5 5 5 77 95 100 100 87 98 96 8 4 5 3 3 5 5 5 5 8 25 5 53 5 5 81 71 98 100 100 100 100 100 100 100 100 100 100 100 100 100 100 100 100
12 66 55 34 99 100 100 100 95 97 9 5 6 5 16 5 5 5 5 5 5 5 5 19 72 8 85 96 93 91 100 100 100 100 100 100 100 100 100 100 100 100 100 100
57 70 58 93 96 100 100 100 100 100 100 30 7 42 72 12 5 5 5 5 5 5 20 5 64 57 66 94 100 100 100 100 96 97 100 100 100 98 92 100 100 100 100 100
61 16 40 100 100 100 100 100 100 100 100 100 100 60 62 79 16 5 5 5 5 7 66 70 62 97 50 39 85 100 100 95 100 94 98 99 100 100 100 100 100 100 100 100
25 12 43 100 100 100 100 100 100 100 100 100 100 100 70 55 75 55 5 14 20 9 36 61 78 51 100 73 71 82 67 99 80 99 100 62 87 66 87 100 100 100 100 100
62 74 86 100 100 100 100 100 100 100 100 100 100 100 100 100 96 100 56 34 68 90 97 100 100 51 69 99 94 100 92 99 88 98 97 62 38 90 83 100 100 100 100 100
13 67 60 99 100 100 93 100 100 100 100 100 100 100 100 100 73 100 100 100 98 40 100 52 100 47 6 49 100 100 92 100 100 86 20 56 97 86 100 100 100 100 100 100
19 76 97 99 100 100 100 99 100 100 100 100 100 100 100 100 100 100 100 100 100 100 87 98 98 50 76 46 28 77 100 100 100 64 28 9 22 64 64 100 100 100 100 100
76 48 100 90 100 100 100 99 100 100 100 100 100 99 100 100 100 65 100 100 100 100 100 100 100 86 9 5 46 15 86 100 95 92 20 28 5 5 32 90 100 100 87 100
87 78 100 100 100 100 99 100 98 100 100 100 100 100 100 100 95 100 100 100 100 100 100 100 100 100 100 82 14 6 5 50 100 100 36 10 6 24 5 5 70 80 100 92
90 100 100 100 100 100 100 100 100 100 100 100 100 100 100 100 100 98 81 97 100 100 100 100 100 100 100 85 21 14 4 5 79 100 65 5 5 68 5 5 5 5 35 77
100 99 100 100 100 100 100 100 100 100 100 100 100 100 100 100 100 81 63 81 68 70 78 97 100 100 100 79 8 5 0 4 5 100 88 9 8 7 15 35 44 12 27 80
100 93 100 100 100 100 100 100 100 100 100 100 100 86 8 49 82 82 5 32 58 98 22 82 100 100 100 100 100 6 2 0 5 31 97 30 5 59 40 53 50 92 68 92
100 100 100 100 100 100 100 100 100 100 100 100 99 88 38 92 100 83 28 16 46 9 100 100 100 100 100 100 100 74 5 5 4 5 100 99 6 52 62 31 99 66 94 100
100 98 100 100 100 100 100 100 100 100 100 100 95 91 100 100 100 100 100 100 100 98 100 100 100 100 100 100 100 100 54 8 5 5 17 92 20 5 22 15 100 91 69 94
100 100 100 100 100 100 100 100 100 99 97 99 100 100 100 100 100 100 100 100 100 100 100 100 100 100 100 100 100 100 100 18 5 5 5 19 50 99 96 88 98 100 75 84
99 100 100 100 100 100 100 100 100 100 99 100 100 100 100 100 100 100 100 100 100 100 100 100 100 100 100 100 100 100 94 6 5 5 29 86 94 100 100 96 98 100 100 98
8 61 100 100 100 100 100 100 100 100 100 100 99 100 100 100 100 100 100 100 100 100 100 100 98 99 34 70 80 44 5 5 10 97 96 35 99 100 100 100 100 100 100 100
5 4 56 100 100 100 100 100 100 100 100 100 100 100 100 100 100 100 100 99 100 100 100 100 99 75 5 6 5 5 8 79 63 54 9 22 63 82 100 100 100 100 100 100
5 5 3 64 100 100 100 100 100 100 100 100 100 100 100 100 100 100 100 99 100 100 98 79 58 37 94 54 36 90 97 100 75 77 96 100 100 100 100 100 100 100 100 100
6 46 67 6 20 100 100 100 100 100 100 100 100 100 100 100 100 100 100 100 100 100 100 100 100 100 100 100 100 100 100 100 100 100 100 100 100 100 100 100 100 100 100 100
98 28 5 6 28 6 98 100 100 100 100 100 100 100 100 100 100 100 100 91 83 86 98 100 100 100 100 100 95 100 100 100 100 100 100 100 100 100 100 100 100 100 100 100

GFSNW_prec_cloud_033.txt.gz
Cloud_Cover
16 15 12 18 4 0 3 0 86 0 0 18 5 15 100 97 5 5 5 18 96 92 60 99 100 100 98 89 100 100 100 100 100 100 100 100 100 100 100 100 99 100 97 2
83 12 0 2 3 18 100 1 0 0 0 56 8 5 8 12 5 5 5 17 12 5 23 64 54 5 88 100 100 100 100 100 100 89 34 80 100 100 100 100 100 100 15 26
2 13 0 0 0 5 53 23 54 8 1 4 11 5 4 5 0 0 0 2 5 5 6 4 6 9 52 42 99 100 100 100 100 91 89 75 100 100 100 100 100 100 42 95
3 4 4 0 3 67 41 42 97 94 79 13 26 10 3 5 5 5 3 6 5 5 8 5 45 37 51 31 64 40 60 100 100 100 58 5 16 92 98 100 81 70 92 100
5 5 5 2 3 58 100 99 99 80 53 5 5 6 11 5 4 5 7 44 5 5 5 7 21 64 100 100 80 100 100 100 100 100 100 100 100 54 10 85 100 100 100 100
5 5 5 5 5 100 100 47 98 97 22 10 10 45 49 43 3 2 3 13 59 21 12 5 12 59 68 100 100 72 94 100 93 74 97 100 100 100 91 80 80 100 100 100
5 5 5 20 5 43 100 100 99 100 93 6 60 5 6 33 12 50 5 5 75 36 5 5 5 6 47 29 98 100 100 100 96 100 99 91 100 89 99 100 91 100 100 100
5 6 5 59 49 32 98 100 100 100 100 95 18 6 5 5 5 5 18 27 5 5 5 75 88 84 68 54 84 100 100 100 91 100 100 100 100 100 100 100 100 100 100 92
5 5 5 21 15 70 100 99 100 100 100 100 100 80 24 12 50 14 17 7 5 5 14 32 100 100 99 89 79 91 99 100 97 100 100 100 100 100 100 100 100 100 100 100
5 5 5 16 5 34 71 92 100 100 100 100 100 100 100 82 98 42 28 83 48 7 49 100 100 94 100 100 88 90 92 100 100 100 99 96 100 100 100 100 100 100 100 100
5 5 5 5 10 50 36 77 94 100 100 100 100 100 100 100 100 100 86 46 46 58 97 100 99 76 95 100 100 100 99 100 100 100 100 79 100 100 100 100 100 100 100 100
5 82 7 5 22 86 98 100 8 94 100 100 100 100 100 100 100 100 100 91 100 95 68 43 54 44 71 76 100 100 100 100 100 100 61 57 41 53 58 99 100 100 100 100
94 100 82 97 8 64 100 100 88 82 100 100 100 100 100 100 100 100 100 100 98 100 100 98 91 92 76 74 21 70 99 100 100 100 100 100 85 63 5 8 52 65 96 99
13 91 82 100 100 69 100 100 90 72 100 100 100 100 100 100 100 100 100 100 100 88 94 100 100 98 97 81 52 46 54 76 98 96 90 97 100 67 61 5 27 63 100 100
55 12 100 96 100 98 74 100 91 96 100 93 100 100 100 100 100 100 100 100 100 100 90 100 100 100 100 100 100 76 12 5 18 25 17 93 86 100 59 11 5 55 100 100
65 69 96 100 92 68 95 100 100 100 100 100 100 100 100 100 100 100 100 100 100 73 98 100 100 100 100 100 95 100 93 9 5 5 5 22 100 100 97 5 5 7 69 100
5 67 99 45 78 87 100 100 100 100 100 100 100 100 100 100 100 100 98 100 100 99 100 99 99 100 100 100 100 100 100 88 8 5 5 5 39 100 85 42 5 19 43 99
9 47 5 5 85 98 100 100 100 100 100 100 100 100 100 100 100 100 94 92 100 98 91 77 53 67 100 100 100 100 100 100 94 9 3 5 5 49 100 100 94 29 34 83
12 5 5 94 91 98 100 100 100 100 100 100 100 100 100 100 100 100 68 65 100 56 96 69 60 98 100 98 100 100 100 100 100 16 0 3 5 5 100 100 100 100 78 75
5 5 27 99 95 100 100 100 100 100 100 100 100 100 100 100 100 99 100 98 98 97 32 87 37 100 100 100 100 100 100 100 100 63 5 5 6 5 56 100 100 100 100 93
50 34 36 82 100 100 100 100 100 100 100 100 100 100 100 97 100 100 100 100 99 100 100 100 100 96 100 100 100 100 100 100 100 100 88 5 5 6 47 100 100 48 80 97
44 41 19 53 100 100 100 100 100 100 100 100 100 100 100 100 100 100 100 100 100 100 100 100 100 100 100 100 100 100 100 100 100 100 98 5 7 62 100 100 100 74 75 35
14 36 62 54 84 100 100 100 100 100 100 100 100 100 100 95 100 100 100 100 100 92 100 100 100 100 100 100 100 100 100 100 100 100 68 50 94 74 100 100 100 100 100 100
5 5 0 8 5 97 100 100 100 100 100 100 100 100 100 100 100 100 100 100 96 92 87 95 100 96 100 100 100 100 100 98 92 76 92 18 5 54 98 75 99 100 100 100
7 6 1 2 2 5 84 100 100 100 100 100 100 100 100 100 100 100 100 100 100 100 97 100 61 64 64 85 64 41 24 46 95 81 62 61 5 43 64 100 100 100 100 100
18 36 14 4 5 5 5 86 100 100 100 100 100 100 100 100 100 100 100 100 100 100 100 100 100 88 94 72 87 67 71 98 100 100 100 98 100 100 100 100 100 100 100 100
95 15 7 5 5 5 5 0 49 100 100 100 100 100 100 100 100 100 100 100 100 100 100 99 100 100 100 100 100 100 95 98 100 93 100 100 100 100 100 100 100 100 100 100

GFSNW_prec_cloud_039.txt.gz
Cloud_Cover
4 7 0 0 0 7 0 21 44 0 5 20 12 5 0 2 0 0 2 5 5 96 80 100 99 36 96 98 100 100 100 100 100 100 100 100 100 100 100 100 82 68 5 94
4 0 1 0 0 62 100 62 4 4 84 12 2 0 0 2 5 5 4 4 4 5 62 80 94 100 100 100 100 100 99 94 93 99 100 100 100 100 93 100 100 100 29 70
0 0 5 0 0 0 18 66 71 86 7 100 54 11 4 5 3 0 3 4 4 6 11 40 100 89 100 100 100 100 100 100 100 100 64 92 100 100 100 100 100 100 100 39
1 42 2 0 0 0 2 18 99 97 99 79 68 93 91 81 83 5 0 5 5 32 23 5 5 16 14 49 39 96 100 100 100 49 94 14 100 100 100 100 100 100 98 100
0 1 0 0 0 0 0 64 73 100 36 9 20 8 100 100 46 41 28 100 5 60 31 5 5 4 5 5 23 73 50 16 100 100 100 46 19 100 100 100 100 100 100 46
0 1 3 0 0 0 0 5 21 99 99 85 68 100 100 98 5 17 77 96 23 36 36 81 5 5 5 5 5 5 5 5 5 53 26 87 100 100 93 100 100 100 100 100
5 12 3 14 1 0 0 2 9 73 93 99 75 96 100 8 5 47 5 48 91 61 5 5 5 5 5 5 5 5 5 5 12 40 34 41 55 100 92 88 10 100 100 100
5 5 2 5 5 0 0 0 4 6 67 98 100 56 100 5 5 5 14 5 8 38 5 10 33 5 71 44 7 5 57 84 74 35 98 100 75 50 98 100 100 99 100 100
5 5 5 5 5 5 5 5 1 4 46 80 99 71 100 92 24 84 14 5 5 5 5 5 96 100 91 91 100 42 90 100 96 100 100 100 100 100 93 100 100 100 100 100
5 6 5 5 5 5 5 17 49 5 5 37 52 73 100 94 68 100 96 54 8 5 5 18 89 92 78 78 10 57 96 98 94 100 100 100 94 100 100 100 100 100 100 100
5 5 5 5 73 6 28 52 100 17 5 5 7 98 100 78 97 100 100 76 75 86 50 5 5 24 20 17 15 14 5 16 45 100 100 100 88 100 100 100 100 100 100 100
91 5 5 49 76 15 59 96 7 98 55 5 5 46 100 90 97 99 100 100 100 100 100 100 47 22 82 5 21 24 81 26 7 30 100 100 100 100 100 100 100 100 100 100
99 100 8 100 94 86 13 5 11 66 93 13 84 65 80 100 99 100 100 100 100 100 100 100 100 85 66 96 15 28 46 78 98 95 51 53 98 90 100 100 100 91 100 100
100 42 11 100 100 12 19 69 84 43 51 56 100 91 74 100 100 100 96 100 100 100 100 99 100 100 96 89 87 73 92 88 71 98 92 86 81 100 100 100 84 78 75 81
41 53 98 100 85 5 7 8 23 88 64 94 100 98 100 100 100 100 100 100 100 100 100 100 100 100 100 100 68 100 100 100 86 100 89 75 96 99 100 73 84 10 6 5
5 48 100 27 5 5 5 54 98 30 100 100 100 100 100 100 100 100 100 100 100 100 100 100 100 100 74 100 100 100 100 100 99 43 90 100 100 73 50 59 66 89 18 5
5 5 11 5 15 7 5 27 43 66 99 100 100 100 100 100 100 100 100 100 100 100 100 100 100 100 78 46 88 100 100 95 74 98 96 100 96 100 100 72 39 66 43 42
5 2 2 5 16 12 7 12 22 26 100 100 100 100 100 100 100 100 100 100 100 100 100 100 100 100 86 30 5 5 61 100 100 78 100 90 93 100 100 100 66 5 11 57
5 3 5 5 22 40 27 6 66 67 69 100 100 100 100 100 100 100 100 100 100 100 100 100 100 90 17 18 0 2 42 100 100 100 100 100 98 95 100 100 100 46 5 5
5 5 5 8 5 5 6 80 94 100 100 99 100 100 100 100 100 100 100 100 100 100 100 99 21 6 89 99 26 100 81 100 100 100 100 100 100 100 100 100 87 84 35 11
5 15 69 5 5 78 38 100 84 64 28 85 82 100 100 100 100 100 100 100 100 100 92 91 91 100 100 96 99 96 86 100 100 100 100 100 100 100 100 100 100 100 86 100
5 5 32 66 97 39 12 68 45 16 50 48 95 93 100 100 100 100 100 100 100 100 100 100 100 100 99 100 100 100 98 100 100 100 100 100 100 100 100 100 100 100 100 100
12 5 21 5 6 6 1 5 5 11 68 14 14 37 99 100 100 100 100 100 100 100 100 100 100 77 98 100 100 100 100 100 100 100 100 100 100 100 100 100 100 100 100 100
47 12 5 6 5 5 7 5 5 8 40 31 24 84 66 89 100 100 100 100 100 100 100 100 100 100 100 100 100 100 100 100 100 100 100 100 100 100 100 100 100 100 79 79
76 5 5 5 5 48 61 98 21 7 20 39 36 78 35 96 100 100 100 100 100 100 100 100 100 100 100 98 100 100 100 100 100 100 100 100 100 100 100 100 100 100 80 91
92 62 25 8 18 7 65 82 75 16 14 22 58 80 90 40 100 100 100 100 100 100 100 100 100 100 100 100 97 71 97 100 100 100 100 100 100 100 100 100 100 100 95 78
100 99 24 61 66 21 31 6 6 5 5 67 9 56 12 60 87 100 100 100 100 100 100 99 98 100 100 100 100 100 100 100 100 100 100 100 100 100 92 67 52 82 93 92

GFSNW_prec_cloud_042.txt.gz
Cloud_Cover
0 70 61 67 0 0 3 6 19 5 48 89 39 5 5 5 5 5 5 24 6 39 99 100 100 100 45 26 75 74 86 99 100 100 99 96 74 84 63 95 60 57 5 1
0 99 21 1 0 0 7 74 3 10 30 16 0 0 0 4 4 2 4 4 5 5 68 76 66 85 100 100 100 100 77 85 95 100 100 100 100 100 99 100 100 64 54 41
3 35 4 0 0 0 0 24 18 5 58 19 5 5 5 5 4 0 0 0 5 5 25 100 74 43 33 84 73 91 100 91 99 88 77 99 100 100 86 84 70 98 26 69
92 62 6 0 0 0 0 1 60 71 45 99 98 71 5 41 80 5 2 0 5 5 5 5 45 87 86 63 100 100 30 84 98 99 70 54 9 63 87 99 100 52 100 80
70 26 0 0 0 0 0 5 64 10 100 100 51 95 98 91 98 5 5 22 6 5 5 5 5 5 5 6 20 58 97 100 100 100 98 88 40 69 100 100 100 100 78 83
2 4 0 0 0 0 0 0 10 69 87 93 91 82 95 100 67 12 17 75 24 36 5 5 5 5 5 5 5 14 78 100 100 100 94 100 44 88 46 100 100 100 96 100
5 3 0 0 0 0 0 0 4 8 40 100 100 100 100 97 5 92 5 50 67 37 69 6 5 5 5 5 5 5 5 5 9 26 5 34 54 100 100 74 100 88 100 100
4 5 4 1 0 0 0 3 0 1 5 78 88 100 100 100 49 19 33 73 62 62 55 32 5 5 5 5 7 5 6 11 8 43 50 36 5 5 5 8 9 18 17 36
5 5 5 5 4 0 0 5 3 5 4 30 75 100 92 100 100 67 33 10 16 14 5 57 23 37 97 68 100 94 100 100 90 81 58 38 61 5 10 27 25 100 55 38
5 5 5 5 5 5 4 5 5 4 5 5 51 82 100 100 100 97 100 83 5 5 5 5 34 5 33 98 8 6 96 100 99 97 100 22 10 74 100 100 100 92 92 100
65 31 12 37 5 5 5 5 5 8 5 4 5 75 100 78 100 100 56 75 41 83 37 52 52 5 5 12 60 58 80 67 46 100 100 85 93 100 64 53 100 87 100 100
100 100 96 100 48 7 5 5 5 95 6 5 5 61 91 88 84 100 80 80 100 100 100 97 95 75 88 5 7 5 54 96 89 97 100 100 93 98 84 98 97 100 100 100
5 5 5 98 21 5 5 8 53 19 6 5 5 65 99 93 82 99 100 100 99 100 100 100 100 100 73 63 5 8 5 6 98 100 100 99 100 100 92 100 100 100 100 100
5 5 5 6 11 5 5 54 6 6 37 44 25 30 95 72 100 76 100 100 100 100 100 100 100 100 100 100 100 100 97 92 84 54 95 86 100 85 100 100 100 100 100 100
5 5 6 6 5 5 4 0 5 5 4 5 10 25 84 100 100 85 93 100 100 100 100 100 100 100 92 100 100 100 99 96 18 99 32 100 100 100 100 86 74 81 86 72
40 5 5 5 0 5 5 70 6 5 5 32 5 28 100 90 100 100 98 100 100 100 100 100 100 100 100 100 100 100 100 100 99 99 98 74 100 100 71 90 100 96 73 66
98 7 5 2 4 0 2 5 10 5 5 6 8 11 69 99 100 100 100 100 100 100 100 100 100 100 100 100 100 100 95 99 84 100 100 95 100 100 100 100 91 86 89 90
93 96 26 5 2 0 5 5 23 6 13 13 30 6 45 73 100 100 100 100 100 100 100 100 100 97 100 100 81 63 2 3 4 93 83 100 100 98 89 100 99 100 98 79
100 100 9 5 3 2 2 7 100 90 7 48 10 77 67 94 79 94 100 100 100 100 100 100 100 100 100 100 100 98 16 93 89 43 100 91 100 100 100 100 100 64 100 100
100 79 50 5 5 5 5 14 93 98 99 27 10 51 44 25 98 100 100 100 100 100 100 100 100 100 100 100 100 42 7 98 100 100 100 100 100 100 100 100 100 100 100 100
99 96 25 6 5 5 15 90 92 69 10 60 88 51 96 13 81 85 100 100 100 100 100 100 100 100 100 100 100 100 96 100 98 100 100 100 100 100 100 100 100 100 100 100
83 75 28 9 28 28 22 78 30 18 13 39 84 10 20 12 90 100 100 100 100 100 100 100 100 100 100 100 94 100 100 100 100 100 100 100 100 100 100 100 100 100 100 100
42 86 33 6 6 9 5 5 4 12 44 33 37 50 10 8 96 100 100 100 100 100 100 100 100 100 100 100 100 100 100 100 100 100 100 100 100 100 100 100 100 100 100 100
96 93 85 87 20 13 21 9 6 5 97 23 54 98 50 6 65 74 100 99 100 100 100 100 100 100 100 100 96 100 100 100 100 100 100 100 100 100 100 100 100 100 100 100
76 76 98 62 20 57 71 99 41 8 34 34 32 95 49 64 87 48 93 100 100 100 100 100 100 100 100 100 100 74 97 84 100 100 100 100 100 100 100 100 100 100 100 100
100 100 100 83 75 40 73 94 55 16 16 25 92 99 100 99 100 100 100 100 90 100 100 100 100 100 100 100 100 97 82 100 100 100 100 100 100 100 100 100 100 100 100 100
100 100 100 100 73 83 42 44 46 5 5 23 61 72 7 94 95 100 65 79 5 42 100 100 100 100 100 100 100 100 100 100 100 100 100 100 100 100 100 100 100 100 100 100

GFSNW_prec_cloud_045.txt.gz
Cloud_Cover
16 92 87 56 0 0 2 0 45 17 45 100 99 6 5 5 5 5 5 5 76 22 100 100 100 82 93 79 100 100 100 100 100 100 95 94 32 15 92 7 7 18 5 1
25 48 2 0 0 0 0 48 17 78 100 43 5 5 5 5 4 4 5 5 5 30 97 21 25 100 97 99 96 99 87 100 100 100 100 99 100 100 98 45 70 35 88 11
7 11 0 0 0 0 0 2 4 39 87 39 5 5 5 5 4 0 0 0 5 5 23 45 49 85 96 100 100 82 78 58 100 94 88 73 84 100 74 60 82 53 10 13
5 5 3 0 0 0 0 4 33 24 52 7 5 5 5 29 74 5 3 5 5 5 5 27 68 43 92 81 83 100 100 100 100 100 100 100 97 70 91 84 100 46 100 26
5 5 0 0 0 0 4 1 3 5 5 82 64 48 98 65 100 50 7 6 6 5 5 5 5 5 5 40 100 100 69 99 100 100 100 76 12 100 95 99 44 100 92 98
5 5 4 0 0 0 0 0 4 13 32 80 98 81 52 30 100 27 88 100 85 84 7 5 5 5 5 28 17 69 94 100 96 38 51 6 21 94 88 100 100 100 92 100
5 5 4 0 0 0 0 0 0 5 5 54 100 92 63 57 43 94 28 96 97 67 97 86 5 5 5 5 5 5 7 38 53 100 100 100 100 97 5 43 100 91 100 100
5 5 5 0 0 3 0 0 0 0 2 5 43 100 100 72 16 95 68 58 60 73 56 61 15 10 52 20 5 5 5 5 29 18 65 49 8 5 5 9 95 4 38 97
5 5 5 0 5 5 1 0 0 0 2 4 5 43 93 86 95 57 79 16 9 81 94 65 12 6 6 61 69 100 100 90 34 6 42 24 10 5 5 5 8 5 5 49
5 5 5 3 5 5 5 4 1 3 5 5 5 5 66 12 97 100 100 100 50 7 22 81 85 58 35 56 99 76 78 100 68 99 100 81 45 27 5 6 24 6 35 5
5 5 5 5 5 5 4 4 5 5 5 5 5 5 22 24 22 97 100 48 17 35 14 24 82 25 17 17 41 99 100 82 53 72 96 98 69 68 13 49 11 28 71 70
5 5 5 5 5 5 5 4 5 10 4 5 5 1 5 11 65 97 100 100 92 94 100 91 64 79 87 5 5 5 50 80 99 99 99 83 96 93 66 100 100 99 100 100
80 10 5 14 5 5 5 0 10 1 4 5 5 5 4 25 12 31 100 100 100 93 93 78 79 100 45 11 5 5 5 12 87 69 94 80 37 43 68 100 100 100 100 100
100 76 5 8 5 5 5 3 20 4 5 5 29 5 5 5 34 26 90 100 100 96 100 100 100 100 100 100 100 77 80 8 5 12 5 5 5 42 88 82 92 100 100 100
89 7 3 4 2 12 3 4 20 5 3 5 5 5 5 5 5 11 97 100 100 100 100 100 100 100 100 100 100 100 100 31 5 80 8 70 99 93 99 100 100 100 100 100
100 6 0 0 0 0 0 5 5 6 5 5 5 5 5 30 40 31 24 65 99 100 100 100 100 100 100 100 100 98 100 100 100 100 100 31 100 82 100 100 100 100 100 100
32 5 5 0 0 1 0 4 32 18 5 5 5 5 5 5 8 96 53 50 78 99 100 100 100 100 100 100 100 100 100 100 60 59 99 100 100 89 100 90 86 64 76 100
66 9 8 3 1 0 0 5 7 2 5 5 14 5 5 5 8 78 100 100 82 100 100 100 100 100 100 100 100 100 100 100 57 62 70 82 99 100 96 100 100 100 63 39
100 74 16 5 4 3 3 5 9 5 4 47 19 98 52 5 5 91 100 97 98 46 84 100 100 100 100 100 100 100 100 100 71 63 100 78 50 100 98 100 98 99 100 100
100 100 88 23 8 5 5 17 5 11 80 8 10 84 63 64 17 81 97 85 100 100 98 98 100 100 100 100 100 100 100 100 100 100 100 100 100 100 100 100 100 100 100 100
100 100 94 40 9 13 5 15 16 27 5 27 70 32 51 27 92 99 95 100 100 99 100 100 100 100 100 100 100 100 100 100 100 100 100 100 100 100 100 100 100 100 100 100
100 100 76 23 83 48 22 68 12 5 5 10 22 10 22 9 97 100 100 97 92 100 100 100 100 100 100 100 100 100 94 100 100 100 100 100 100 100 100 100 100 100 100 100
100 100 100 90 79 100 85 5 5 12 7 47 68 32 16 5 81 67 100 100 100 100 100 100 100 100 100 100 100 100 100 95 100 100 100 100 100 100 100 100 100 100 100 100
100 96 78 98 96 100 8 5 5 5 99 55 75 85 82 10 64 97 100 99 99 100 100 100 100 100 100 100 100 100 100 100 100 100 100 100 100 100 100 100 84 100 100 100
87 100 100 100 100 98 69 86 78 23 59 23 19 56 57 86 99 92 100 99 99 20 6 79 98 100 100 100 100 100 100 100 100 100 89 100 100 100 100 100 100 100 100 100
100 100 94 100 30 7 99 100 76 20 14 65 61 52 94 95 100 100 100 100 95 5 24 5 9 3 56 100 100 100 100 100 100 100 100 100 100 100 100 100 100 100 100 100
100 100 100 81 57 35 38 12 7 5 5 15 46 6 6 77 100 93 100 99 5 5 3 10 8 1 2 38 88 100 100 100 100 100 100 100 100 100 100 100 100 100 100 100

GFSNW_prec_cloud_048.txt.gz
Cloud_Cover
45 93 6 5 0 0 2 0 88 29 100 100 100 35 5 5 5 5 23 97 95 99 99 76 8 99 100 100 100 100 100 88 100 100 100 72 92 7 5 5 7 24 5 8
100 40 5 5 0 0 0 3 89 100 100 82 5 5 5 5 5 5 5 75 23 8 97 99 67 5 100 100 100 100 100 100 99 100 84 53 99 100 96 47 72 6 25 4
95 5 6 5 0 0 0 5 7 85 100 88 5 5 5 5 5 3 5 5 63 5 10 65 100 100 100 86 100 100 100 100 100 100 100 100 82 80 91 71 96 62 10 3
58 31 14 5 1 0 0 3 34 8 41 32 5 5 5 6 58 5 5 5 5 5 5 5 5 46 100 100 100 97 100 100 100 100 100 100 96 53 53 32 69 57 88 5
16 62 52 5 0 0 6 0 5 5 5 5 8 18 6 12 67 35 8 5 6 5 5 5 5 5 6 59 92 100 100 99 86 82 100 100 90 100 85 84 100 100 100 60
100 58 40 5 0 0 0 1 5 10 5 5 77 99 40 31 8 8 99 100 96 86 11 11 12 5 5 5 10 82 18 28 84 100 99 60 100 100 81 86 100 43 92 100
100 50 36 4 4 1 0 7 1 5 5 5 69 95 94 84 98 53 93 100 84 60 85 79 73 52 6 5 14 33 55 90 98 84 24 49 97 90 63 58 100 25 82 100
28 100 20 5 5 2 4 9 0 3 5 5 5 77 99 62 18 96 93 92 51 96 79 90 87 92 76 25 16 5 5 5 22 66 94 100 97 38 6 48 9 11 100 100
96 89 5 47 5 78 19 12 0 0 2 5 5 5 5 46 26 44 96 87 74 95 96 92 58 17 6 54 79 100 100 100 82 58 55 49 75 43 48 50 8 5 5 5
97 53 16 20 74 100 3 1 0 3 5 5 5 5 5 5 5 86 94 96 98 70 23 16 49 22 64 63 89 41 88 100 71 98 99 75 5 5 15 52 56 5 5 5
11 62 100 100 100 100 7 4 4 2 5 5 5 5 5 5 5 38 98 96 84 97 35 14 5 6 41 58 20 26 78 71 46 34 74 60 10 30 20 44 24 13 37 56
100 31 100 100 100 100 74 0 0 0 2 5 0 4 5 5 5 5 20 9 100 100 98 91 62 23 80 5 5 5 10 73 99 84 17 5 24 5 28 46 7 34 13 77
100 100 100 100 100 100 8 8 40 0 5 5 5 5 0 1 5 5 56 98 100 67 71 66 75 99 66 26 5 5 5 5 84 74 34 10 6 19 69 100 100 97 79 97
100 100 100 100 97 12 96 18 44 2 5 5 5 5 5 5 5 12 67 34 95 100 100 71 41 55 79 84 62 41 19 32 5 5 2 5 14 22 69 100 100 100 84 52
100 100 100 100 100 91 83 19 31 0 3 5 5 5 5 5 5 5 5 34 71 100 100 100 100 100 82 100 100 100 100 74 28 36 5 15 51 4 4 6 78 97 100 100
100 100 100 100 100 88 35 5 5 4 0 5 5 5 5 5 5 88 5 5 86 100 100 100 100 100 100 100 100 100 100 100 100 100 100 58 100 98 5 64 99 90 70 100
100 100 50 85 100 98 23 11 4 0 0 5 5 5 4 5 5 23 46 36 95 86 99 100 100 100 100 100 100 100 100 100 100 100 100 100 100 100 73 80 37 99 99 76
100 100 97 100 100 97 14 52 5 2 4 5 24 5 5 5 5 62 100 100 95 70 95 100 100 100 100 100 100 100 100 100 100 100 95 100 100 100 100 100 97 91 100 95
100 100 100 83 36 99 37 5 5 5 3 33 48 83 42 5 5 66 100 92 17 5 43 97 100 100 100 100 100 100 100 100 100 100 100 100 100 100 100 100 100 100 100 100
100 100 100 68 100 46 6 5 5 22 5 6 47 97 64 5 7 77 52 93 89 60 60 100 100 100 100 100 100 100 100 100 100 100 100 100 100 100 100 100 100 100 95 100
100 100 100 100 61 42 95 29 7 15 5 15 7 16 11 24 29 54 41 95 93 85 100 100 98 100 100 100 100 100 100 100 100 100 100 100 100 100 100 100 100 100 100 100
100 100 100 100 100 100 83 73 99 68 5 17 31 11 22 6 35 96 71 73 78 80 96 95 100 100 100 100 100 100 100 100 100 100 100 100 100 100 100 100 100 100 100 100
100 100 100 100 88 90 100 100 100 11 11 52 71 5 17 5 10 24 93 93 71 100 100 88 84 97 96 100 100 100 100 100 100 100 100 100 100 100 100 100 100 100 100 100
100 100 100 93 69 100 100 100 70 53 94 96 77 54 84 39 79 98 95 39 96 100 70 14 5 2 2 5 23 71 99 99 100 100 100 100 100 100 100 100 100 100 100 100
100 100 97 82 100 100 100 100 100 69 98 50 62 28 44 55 100 99 96 97 98 57 7 74 5 3 0 0 3 5 6 24 82 100 100 100 100 100 100 100 100 100 98 100
100 100 100 100 100 100 100 100 100 81 70 72 11 37 45 88 100 98 85 59 60 48 14 22 5 3 0 1 5 5 5 5 7 92 100 100 100 100 100 100 100 100 100 100
100 100 100 100 100 100 99 30 85 40 22 14 54 4 6 58 100 86 98 93 9 100 7 7 7 5 5 5 5 5 5 5 5 5 80 100 100 100 100 100 100 100 100 100

GFSNW_prec_cloud_051.txt.gz
Cloud_Cover
100 90 85 16 100 10 5 5 71 79 100 99 100 83 5 21 75 74 98 100 100 86 65 64 100 100 100 100 98 52 25 84 100 100 98 50 64 30 97 5 12 5 86 98
100 91 10 100 100 6 5 5 73 90 100 88 13 5 5 5 5 48 100 100 96 100 100 76 84 100 100 100 95 100 86 27 93 100 100 100 96 100 100 88 95 70 16 30
100 100 56 100 97 18 5 4 35 100 100 100 89 5 7 5 5 5 78 78 99 100 100 100 100 50 100 100 100 100 100 100 100 100 97 71 87 73 15 9 65 61 59 97
90 100 90 98 54 70 5 4 1 6 91 76 5 5 5 6 5 5 2 5 5 24 99 87 73 56 100 100 100 100 100 100 100 100 100 100 100 52 81 100 98 63 97 20
98 96 56 95 66 83 5 0 5 5 5 19 8 30 60 12 5 6 6 5 5 5 78 78 100 100 74 68 99 70 100 100 100 100 100 100 100 100 67 19 26 57 27 16
100 100 100 65 100 35 5 5 25 5 5 27 67 87 49 96 68 27 22 33 45 22 8 5 5 5 38 94 100 73 91 99 95 100 99 100 100 100 64 84 99 19 95 100
100 100 100 84 100 13 5 2 91 5 5 16 39 91 89 100 100 28 37 81 72 96 77 68 64 72 58 33 19 26 21 26 58 100 87 94 100 92 50 100 94 17 99 100
100 100 100 100 100 50 5 24 100 55 5 5 5 62 81 100 85 92 76 92 22 44 98 96 100 78 83 100 98 58 10 60 75 100 89 91 95 68 30 95 26 100 100 100
100 100 100 100 100 7 54 100 98 15 4 6 5 10 85 100 100 76 83 100 85 82 88 90 92 83 84 84 84 99 100 100 79 83 80 85 27 6 28 50 7 100 68 5
100 100 100 100 100 31 89 100 26 15 6 5 5 5 42 12 5 37 55 88 86 78 100 100 95 77 35 28 18 38 78 100 96 100 100 19 25 50 13 17 63 75 59 32
100 100 100 98 99 58 100 100 7 30 5 5 5 5 5 3 5 10 50 21 26 81 58 74 22 10 39 50 36 93 95 93 77 98 99 76 42 62 74 59 21 63 5 17
100 100 100 100 91 100 100 100 61 4 5 81 5 5 5 5 5 5 5 32 100 41 94 96 57 69 77 27 5 26 28 84 98 69 77 92 68 89 99 94 98 71 68 61
100 100 100 100 100 100 100 90 57 2 32 54 5 5 2 0 2 5 0 5 5 40 97 100 100 37 73 14 6 7 21 56 69 42 17 10 78 98 38 50 91 53 94 100
80 100 100 100 100 100 100 99 90 12 100 5 5 5 5 5 5 5 4 1 5 5 97 100 100 98 26 96 82 46 72 39 16 5 5 41 29 5 5 58 99 99 100 100
100 100 100 100 100 100 100 100 100 100 100 5 5 5 5 5 5 5 5 5 5 5 40 100 100 100 100 96 78 53 96 100 78 69 20 65 96 92 84 32 19 99 93 60
100 100 100 100 100 100 100 98 100 100 100 8 5 5 6 5 5 5 5 5 54 5 6 58 92 100 100 100 100 100 100 100 100 100 100 100 100 100 100 100 100 83 100 100
100 100 100 100 100 100 100 100 100 100 14 18 87 5 5 5 5 5 37 20 5 5 5 20 97 100 98 100 100 100 100 100 100 100 100 100 100 100 100 100 100 100 100 98
100 100 100 100 100 100 100 100 100 92 98 98 78 16 5 5 5 88 24 5 16 18 7 43 68 74 100 100 100 100 100 100 100 100 100 100 100 100 100 100 100 100 100 64
100 100 100 100 100 100 100 100 95 36 100 61 72 20 2 5 5 45 100 5 19 8 6 5 10 27 46 98 100 100 100 100 100 100 100 100 100 100 100 100 100 100 100 100
100 100 100 100 100 100 100 100 21 96 5 14 51 73 46 5 5 62 61 42 33 75 40 32 24 76 5 5 59 100 100 100 100 100 100 100 100 100 100 100 100 100 100 100
100 100 100 100 100 100 100 23 11 8 53 90 58 22 5 5 14 34 58 98 72 60 5 66 74 50 6 5 5 5 22 69 99 100 100 100 100 100 100 100 100 100 100 100
100 100 100 100 100 100 100 38 100 84 100 100 94 17 24 9 24 100 96 84 91 76 74 90 88 9 5 5 14 5 4 5 5 5 67 100 100 100 100 100 100 99 100 100
100 100 100 100 95 94 100 100 47 95 100 76 100 53 12 18 16 56 98 100 99 97 100 34 5 4 20 0 4 3 0 4 5 5 5 9 100 100 100 100 100 89 100 100
100 100 100 95 92 100 100 100 100 97 98 100 99 53 82 72 75 67 92 74 98 100 98 60 31 6 4 1 0 4 5 5 5 5 5 5 5 74 100 100 100 89 100 99
100 100 100 100 87 99 100 100 100 95 100 100 86 48 31 47 98 99 92 89 97 100 83 22 48 5 16 0 5 5 5 5 5 5 5 5 5 17 90 100 100 100 88 100
100 100 100 100 100 100 100 100 100 100 100 100 77 60 98 72 95 97 100 76 100 56 47 83 100 28 6 5 5 5 5 5 5 5 5 5 5 6 70 100 100 100 100 100
100 100 100 100 100 100 100 100 100 100 100 100 26 53 63 55 99 82 88 100 100 90 100 100 100 97 5 5 5 5 5 5 5 5 5 5 5 68 99 100 100 100 100 100

GFSNW_prec_cloud_054.txt.gz
Cloud_Cover
100 100 100 100 14 5 52 5 48 59 43 95 59 95 26 50 78 58 84 93 99 21 5 100 100 92 100 95 94 82 53 92 98 100 100 100 100 68 68 83 31 5 53 100
100 100 100 53 20 57 87 22 90 87 80 62 34 6 8 18 11 70 30 64 99 63 6 97 100 100 52 51 90 30 21 94 92 100 82 91 100 100 100 94 99 98 100 100
100 100 100 65 98 100 61 6 83 98 100 95 72 6 5 5 5 78 85 46 88 100 51 19 100 100 100 100 100 82 14 9 98 71 86 61 61 27 38 17 44 100 96 100
100 100 100 77 100 100 88 5 1 92 94 47 6 5 5 5 5 5 5 89 54 57 100 64 100 100 70 70 55 16 96 100 91 44 74 76 75 26 17 8 27 19 99 12
100 100 100 96 100 100 95 5 3 100 5 5 6 5 5 5 3 5 5 5 5 5 5 74 5 100 100 100 100 100 100 100 100 100 100 100 100 100 100 100 98 9 67 64
100 100 100 100 100 100 16 5 7 72 5 12 60 11 40 82 5 5 5 5 5 6 15 10 14 67 78 6 34 94 96 100 100 100 100 100 100 100 89 96 64 7 40 85
100 100 100 100 100 92 12 5 28 99 6 9 12 5 5 74 61 5 5 5 32 32 86 34 33 6 5 29 38 84 83 77 95 100 100 100 100 100 100 45 7 5 5 7
100 100 100 100 100 71 60 35 67 63 4 5 5 14 5 21 58 13 5 45 63 63 89 91 93 100 95 63 56 51 100 100 100 100 100 96 100 68 18 5 65 42 6 56
100 100 100 100 100 100 6 19 100 20 0 5 5 89 14 85 97 75 38 70 64 46 53 66 16 73 41 64 78 100 100 100 100 100 85 90 17 39 54 36 75 100 99 61
100 100 100 100 100 100 40 90 13 100 6 5 39 59 19 35 80 64 87 95 21 7 5 69 41 30 5 66 54 44 55 95 88 100 100 34 44 28 68 48 79 90 16 40
100 100 100 100 100 100 84 82 60 100 99 36 100 23 5 5 5 5 6 10 6 16 39 14 9 21 5 26 39 64 80 77 89 90 89 73 99 84 70 19 59 50 18 26
100 100 100 100 100 100 77 75 62 100 100 8 100 70 5 65 2 5 5 6 75 13 55 47 92 100 69 5 86 60 92 65 77 40 99 100 80 100 96 95 100 100 89 26
100 100 100 100 100 100 100 99 73 100 9 19 35 100 95 49 28 4 5 5 5 5 9 91 83 90 100 68 16 22 97 78 86 5 5 5 56 56 68 100 100 74 82 83
100 100 100 100 100 100 96 99 100 92 35 89 100 100 22 63 5 98 5 0 5 5 13 67 100 100 100 100 65 12 79 92 36 9 5 5 5 5 5 33 55 100 87 94
100 100 100 100 100 100 94 55 100 91 59 88 100 95 100 56 38 100 24 5 3 5 5 5 41 86 42 66 80 99 96 100 100 84 53 54 65 85 76 71 23 77 100 100
100 100 100 100 100 99 80 100 45 69 9 100 100 98 85 5 42 100 6 5 5 5 5 5 8 95 90 93 89 46 98 100 100 100 100 100 100 100 100 100 100 100 100 100
100 100 100 100 100 100 88 100 42 64 33 99 50 100 21 6 15 26 6 5 5 5 70 5 5 5 5 21 5 5 76 71 100 100 100 100 100 100 100 100 100 100 100 100
100 100 100 100 100 100 100 100 90 18 100 82 100 100 85 5 19 96 40 6 5 6 26 62 8 5 6 17 69 90 99 48 100 100 100 100 100 100 100 100 100 100 100 100
100 100 100 100 100 100 100 98 89 100 54 100 100 100 98 77 28 99 79 8 7 5 8 40 7 22 27 4 5 5 6 42 98 90 65 25 90 100 100 100 100 100 100 100
100 100 100 100 100 100 100 100 98 67 100 100 100 100 70 33 6 41 99 70 60 22 21 46 37 6 2 5 7 20 30 5 71 100 53 70 100 100 100 100 100 100 100 100
100 100 100 100 100 100 100 100 82 24 98 98 100 98 88 55 8 31 46 98 94 44 65 58 65 10 0 1 4 4 5 5 5 29 40 44 5 5 74 96 100 100 100 100
100 100 100 100 100 100 100 100 8 93 50 82 98 100 100 24 33 100 88 93 79 85 90 82 99 11 25 3 2 2 1 5 5 5 5 5 5 5 8 80 100 100 100 100
100 100 100 100 100 100 100 90 5 5 81 100 98 58 14 28 37 92 98 96 97 85 94 100 99 99 99 97 98 54 6 5 5 26 5 5 5 5 5 5 27 85 79 93
100 100 100 100 100 100 100 79 78 36 41 98 34 98 86 94 62 42 16 71 91 97 97 100 100 100 100 100 98 65 100 100 100 100 65 5 5 5 5 5 5 94 76 99
100 100 100 100 100 97 68 100 100 81 65 95 89 60 13 33 68 86 65 85 94 89 90 100 100 100 100 73 98 100 100 100 100 100 30 5 5 5 5 5 5 38 100 71
100 100 100 100 100 94 100 98 99 96 40 79 100 100 83 86 100 75 90 68 50 47 87 88 90 93 100 100 100 100 100 100 82 23 0 0 1 4 5 29 93 96 100 90
100 100 100 100 100 100 100 100 91 52 83 55 100 51 9 77 100 100 100 40 40 46 27 36 38 100 100 100 100 100 97 7 5 0 5 25 61 5 5 5 5 99 100 99

GFSNW_prec_cloud_057.txt.gz
Cloud_Cover
100 100 100 100 100 100 100 95 100 61 25 95 94 100 69 11 37 97 94 100 99 98 5 69 100 100 100 84 100 98 99 88 61 100 100 100 100 100 100 100 100 98 20 12
100 100 100 100 100 100 100 100 62 60 88 97 95 11 24 24 54 31 97 42 72 17 75 74 100 100 45 97 92 100 100 99 99 100 100 84 52 56 98 100 100 69 88 65
100 100 100 100 100 100 100 100 92 77 96 95 93 44 45 22 5 5 5 31 8 32 70 80 92 98 31 70 89 91 87 100 100 100 100 100 100 100 100 100 100 100 100 100
100 100 100 100 100 100 100 100 35 45 91 32 62 34 23 64 32 5 5 5 14 49 71 92 100 95 97 47 13 75 78 94 100 100 100 100 100 100 100 100 100 76 100 100
100 100 100 100 100 100 100 87 53 64 93 14 36 5 48 58 5 30 5 19 5 5 72 27 100 87 99 36 20 34 66 100 58 59 97 79 100 100 96 100 77 76 66 53
100 100 100 100 100 100 98 98 96 68 17 17 73 25 5 5 5 5 17 5 14 8 44 9 8 53 90 97 96 82 43 25 89 100 88 91 92 88 47 16 11 27 44 66
100 100 100 100 100 100 34 57 74 67 40 26 62 5 5 5 5 6 5 5 52 20 5 5 5 5 46 100 100 100 100 100 100 100 100 100 100 100 100 100 85 24 89 100
100 100 100 100 100 100 64 67 48 92 97 15 5 5 82 29 5 5 5 5 5 44 5 48 19 64 72 79 73 69 82 89 78 79 82 23 74 50 86 100 99 100 100 100
100 100 100 100 100 100 70 54 73 86 98 17 5 6 100 70 96 7 5 5 5 5 9 73 100 98 91 69 43 42 37 40 91 100 98 64 94 100 97 29 50 40 15 30
100 100 100 100 100 100 100 20 6 5 97 71 5 36 100 17 8 58 5 5 5 5 56 99 99 94 15 98 99 95 100 100 100 100 95 75 48 88 83 74 33 99 96 51
100 100 100 100 100 100 100 30 97 5 99 6 5 74 100 19 5 47 6 5 6 10 50 61 86 96 73 42 26 62 87 97 100 100 100 97 100 58 63 44 8 53 24 24
100 100 100 100 100 100 95 95 88 45 86 10 14 96 100 77 16 38 5 10 5 6 56 5 5 12 8 27 82 5 53 19 81 37 86 5 26 94 83 91 100 98 32 60
100 100 100 100 100 100 100 28 62 50 76 8 28 100 80 8 39 94 91 5 5 5 5 14 53 59 25 52 75 44 93 71 55 34 14 31 38 79 84 100 100 96 93 99
100 100 100 100 100 100 100 96 98 98 89 46 11 6 82 100 100 100 100 22 4 2 5 7 49 23 8 7 17 12 92 100 100 24 5 5 6 16 71 66 72 100 100 94
100 100 100 100 100 100 100 99 93 100 43 14 7 5 5 46 100 100 100 42 5 5 4 4 5 5 23 81 99 96 100 92 100 100 75 32 5 15 100 100 100 100 100 100
100 100 100 100 100 100 100 100 49 6 46 45 20 6 36 100 72 100 69 66 38 7 5 5 5 5 5 4 5 31 68 79 98 100 96 100 100 72 100 100 100 100 100 100
100 100 100 100 100 100 100 100 73 26 89 72 25 16 76 100 93 100 100 99 57 5 4 5 5 9 5 5 5 3 5 14 30 95 100 100 100 100 100 100 100 100 100 100
100 100 100 100 100 100 100 100 100 100 87 10 29 62 66 92 92 100 100 99 26 15 29 5 10 83 73 6 5 5 5 5 5 21 71 99 100 77 99 100 100 100 100 100
100 100 100 100 100 100 100 100 100 49 30 38 99 6 58 52 100 100 100 91 64 10 60 19 16 59 46 11 91 0 5 5 5 5 5 5 5 10 86 100 99 100 100 100
100 100 100 100 100 100 100 100 100 100 84 78 52 5 44 100 52 100 95 100 98 98 54 11 6 90 17 17 78 3 1 0 2 5 5 5 5 5 5 5 32 98 100 100
100 100 100 100 100 100 100 100 100 100 100 44 5 5 27 100 100 70 96 100 100 100 98 99 93 20 7 5 85 60 2 0 1 0 3 5 5 5 5 5 5 5 25 99
100 100 100 100 100 100 100 100 100 100 97 41 14 9 100 100 100 85 83 96 96 100 81 98 100 71 5 5 32 23 94 85 67 12 52 84 59 19 5 6 5 5 5 45
100 100 100 100 100 100 100 100 100 98 50 50 5 73 100 100 98 100 92 78 89 58 86 79 97 28 29 75 37 5 30 100 100 100 100 100 100 100 100 53 64 61 5 5
100 100 100 100 100 100 100 100 100 68 9 10 6 18 100 96 84 97 79 43 84 92 93 82 52 38 14 5 50 6 5 5 49 100 100 100 100 100 100 99 42 5 5 5
100 100 100 100 100 100 100 100 99 63 38 5 55 86 43 57 21 10 13 45 94 66 82 31 87 46 5 5 5 17 5 35 34 100 100 100 89 41 2 0 3 5 5 5
100 100 100 100 100 100 100 100 100 95 52 63 91 83 96 100 59 14 16 51 49 89 100 77 78 50 48 7 5 5 4 23 96 75 73 8 0 0 1 0 15 41 68 50
100 100 100 100 100 100 100 100 97 51 23 10 94 100 100 26 28 22 6 99 97 98 100 86 37 80 5 24 75 5 5 3 5 5 0 0 5 5 38 5 96 100 100 100

GFSNW_prec_cloud_060.txt.gz
Cloud_Cover
100 100 100 100 100 100 100 100 100 96 56 87 81 99 59 100 100 100 81 5 35 96 5 9 12 58 72 55 26 76 74 100 97 100 96 92 100 100 100 100 100 100 100 95
100 100 100 100 100 100 100 100 100 100 62 60 92 23 8 100 99 100 100 14 5 5 73 72 99 88 100 100 72 80 100 99 79 100 100 86 100 100 100 100 100 100 100 100
100 100 100 100 100 100 100 100 100 100 70 66 100 37 28 5 24 28 80 23 45 98 96 100 100 100 92 75 69 72 83 85 99 100 100 81 74 100 100 100 100 100 100 100
100 100 100 100 100 100 100 100 100 96 73 39 94 94 14 5 5 14 21 6 25 82 63 100 100 100 98 16 13 51 97 98 95 95 100 100 100 39 89 100 100 100 100 100
100 100 100 100 100 100 100 100 100 88 5 5 84 53 5 76 5 25 5 62 5 5 87 86 99 74 93 77 18 35 57 100 100 100 100 100 100 100 100 93 93 100 100 100
100 100 100 100 100 100 100 97 100 82 5 59 20 8 15 26 3 5 7 50 8 4 0 2 16 8 21 95 48 27 22 44 74 100 88 84 99 100 100 79 92 100 100 100
100 100 100 100 100 100 100 86 95 22 47 8 42 98 19 4 5 3 3 6 13 4 1 5 5 7 99 35 75 84 88 69 42 38 13 58 100 65 44 33 71 100 89 97
100 100 100 100 100 100 100 100 80 72 100 31 75 75 6 38 5 5 3 0 0 5 5 10 5 36 12 33 98 98 97 100 100 99 96 59 83 100 97 48 79 100 100 92
100 100 100 100 100 100 100 100 40 97 66 18 5 5 5 5 14 100 9 1 4 4 5 5 5 77 94 27 5 5 5 5 43 19 9 6 14 100 24 5 18 78 100 97
100 100 100 100 100 100 100 100 66 100 83 64 8 5 33 95 35 100 6 5 5 5 5 5 46 60 12 15 42 5 5 20 54 84 82 21 17 62 80 26 34 99 99 53
100 100 100 100 100 100 100 100 99 100 38 44 5 5 5 5 5 98 5 5 5 5 53 20 25 46 9 30 27 61 6 5 5 5 56 48 60 74 76 36 66 5 26 22
100 100 100 100 100 100 100 100 100 100 92 57 5 5 5 5 21 82 5 5 5 5 80 5 5 5 5 16 83 5 8 6 33 37 23 5 57 15 20 94 100 58 29 64
100 100 100 100 100 100 78 100 100 53 72 5 5 5 5 5 36 58 5 12 23 4 4 5 5 5 5 5 5 5 5 63 5 2 5 5 5 5 6 6 5 8 22 99
100 100 100 100 100 84 100 100 100 54 58 73 17 6 5 5 5 5 5 60 5 5 0 5 5 5 1 5 4 3 5 24 4 4 33 100 89 56 60 66 77 100 100 100
100 100 100 100 100 100 100 100 100 68 80 6 14 5 5 8 1 5 30 5 4 5 0 3 4 4 0 0 1 1 15 5 46 94 99 100 100 100 100 100 100 99 100 100
100 100 100 100 100 100 100 98 96 100 100 13 46 36 22 82 5 12 100 5 63 5 5 5 5 4 3 2 1 0 0 3 4 5 5 20 77 100 100 100 100 100 100 100
100 100 100 100 100 100 100 85 100 100 100 76 90 86 5 75 7 10 92 85 100 18 5 5 5 24 5 5 1 0 0 5 5 3 5 12 39 85 69 84 100 100 100 100
100 100 100 100 100 100 99 100 100 100 100 100 96 19 6 22 98 88 100 100 100 6 6 74 5 28 57 26 5 4 4 8 2 5 4 5 5 4 2 0 0 3 15 80
100 100 100 100 100 100 98 100 92 100 100 100 100 74 8 68 90 98 100 100 89 6 6 14 20 26 59 15 6 5 6 47 5 5 34 3 0 0 2 3 5 13 4 5
100 100 100 100 100 100 100 100 99 91 100 100 58 100 100 82 83 100 100 100 100 97 67 74 99 5 10 5 5 26 8 8 5 5 44 5 4 0 5 5 1 2 5 51
100 100 100 100 100 100 100 100 86 100 97 96 13 100 100 100 88 98 100 100 100 100 100 100 94 64 6 5 5 1 5 5 5 4 36 7 5 5 5 5 36 6 2 5
100 100 100 100 100 100 100 93 100 100 40 58 98 100 100 100 21 97 100 100 100 94 99 100 100 88 83 15 5 3 5 5 5 5 18 77 79 6 5 3 4 5 3 3
100 100 100 100 100 100 100 100 100 100 100 93 100 100 82 83 92 100 100 100 100 58 100 100 93 76 5 5 5 5 7 25 5 4 2 0 0 1 4 5 5 5 5 53
100 100 100 100 100 100 100 99 100 100 100 100 100 84 74 100 83 84 100 100 97 97 77 56 20 20 6 24 17 21 7 4 4 4 4 5 5 5 5 22 6 5 5 1
100 100 100 100 100 100 100 100 100 100 100 100 100 100 96 100 35 32 54 68 100 100 85 22 5 5 51 70 52 5 4 4 1 5 2 1 4 5 5 3 3 0 0 0
100 100 100 100 100 100 100 100 100 100 100 98 98 79 97 96 14 48 94 100 94 52 6 6 29 72 46 85 5 5 2 5 0 0 0 0 0 1 0 0 0 4 5 5
100 100 100 100 100 100 100 100 100 95 100 100 100 100 100 80 100 92 99 27 7 7 90 9 15 94 89 51 8 5 4 2 2 2 5 5 2 5 5 5 0 4 9 100

GFSNW_prec_cloud_063.txt.gz
Cloud_Cover
100 100 100 100 100 100 100 100 100 100 54 52 100 100 100 98 50 8 2 5 5 5 40 29 32 97 11 5 16 23 84 100 98 59 20 100 100 100 100 100 100 100 100 100
100 100 100 100 100 100 100 100 100 100 100 75 97 89 100 100 100 12 5 5 3 5 9 13 95 82 48 97 6 6 100 94 84 96 30 97 100 100 100 100 100 100 100 100
100 100 100 100 100 100 100 100 100 100 100 73 71 5 19 91 100 100 6 2 5 5 21 5 79 68 73 96 39 100 63 76 70 100 100 99 100 94 100 100 100 100 100 100
100 100 100 100 100 100 100 100 100 86 97 92 81 54 8 5 19 37 78 33 11 27 19 54 95 99 100 67 21 8 6 89 42 94 100 92 72 81 100 100 100 100 100 100
100 100 100 100 100 100 100 100 100 100 96 83 73 93 100 5 5 5 81 62 35 6 5 5 40 100 86 15 6 5 5 93 100 100 100 62 100 100 100 100 100 100 100 100
100 100 100 100 100 100 100 100 99 84 100 100 14 5 74 38 5 42 5 57 5 5 5 4 9 64 18 23 5 26 33 76 87 95 84 100 100 100 100 100 100 100 100 100
100 100 100 100 100 100 100 100 90 51 82 100 5 5 23 5 5 6 39 59 5 2 3 5 5 5 5 17 57 37 34 5 8 19 19 56 54 45 73 89 100 100 100 100
100 100 100 100 100 100 100 100 66 76 85 100 14 71 82 5 4 0 5 5 4 3 5 5 5 14 5 5 61 63 12 5 5 50 23 5 6 8 5 5 6 19 79 22
100 100 100 100 100 100 100 100 100 60 100 90 31 99 62 4 5 1 3 0 5 5 5 5 5 30 60 24 5 5 5 15 51 22 72 67 12 10 12 5 23 5 5 5
100 100 100 100 100 100 100 100 100 85 100 65 13 20 5 5 5 0 4 2 5 5 5 5 7 32 8 5 5 5 5 5 22 18 62 75 33 14 16 67 5 55 56 96
100 100 100 100 100 100 100 100 100 100 100 49 40 7 5 5 5 3 4 4 5 5 5 6 5 5 5 21 5 5 5 5 5 51 98 73 5 5 21 55 92 81 100 100
100 100 100 100 100 100 100 100 100 100 100 62 51 17 5 5 5 3 4 4 3 5 9 5 5 5 5 5 5 5 5 5 12 5 8 5 5 5 28 68 89 92 92 98
100 100 100 100 100 100 100 100 100 100 100 59 21 12 5 5 5 5 3 5 5 5 3 3 2 1 3 4 5 5 2 0 5 4 5 5 3 4 73 100 100 85 87 99
100 100 100 100 100 100 100 100 100 100 96 29 25 5 5 5 5 5 5 5 5 5 9 5 4 2 0 1 1 0 0 0 0 4 4 4 5 6 66 53 93 100 100 100
100 100 100 100 100 100 100 100 100 100 88 37 71 5 5 5 3 5 3 4 13 91 38 40 6 5 0 0 4 0 0 0 0 0 0 1 5 5 5 70 93 100 100 100
100 100 100 100 100 100 100 100 100 100 100 22 68 38 5 5 5 5 5 5 48 74 25 81 19 5 5 2 1 0 4 2 0 2 5 4 5 4 5 5 5 6 51 98
100 100 100 100 100 100 100 100 100 100 98 80 62 97 21 5 5 6 93 5 28 100 100 100 85 16 85 5 5 5 4 0 1 4 0 2 5 5 5 5 4 0 0 0
100 100 100 100 82 98 100 100 100 100 85 91 100 100 84 21 75 41 100 16 5 88 100 100 83 41 27 28 5 5 5 4 2 2 4 5 5 5 5 4 5 3 5 36
100 100 100 100 100 100 100 100 100 93 100 100 100 100 87 11 73 75 98 56 7 54 100 100 97 13 65 70 6 25 5 5 10 5 6 5 2 4 6 5 30 6 56 97
100 100 100 100 100 100 100 100 100 78 36 5 50 35 45 23 100 100 89 82 44 25 100 100 29 95 87 21 55 5 5 5 5 65 5 5 5 7 5 5 1 0 5 4
100 100 100 100 98 100 100 100 69 82 99 15 61 19 39 52 87 100 100 100 99 100 99 79 84 89 69 100 41 5 5 2 0 15 5 5 2 5 1 0 0 3 4 5
100 100 100 100 100 100 100 100 100 100 100 79 64 72 85 100 100 100 100 84 99 81 82 100 100 92 100 71 24 5 5 2 4 5 7 0 1 1 1 3 5 5 5 5
100 100 100 52 43 100 100 100 100 100 100 100 38 86 100 100 100 100 100 100 99 78 99 100 100 84 85 52 11 5 5 5 11 7 9 0 0 0 5 5 5 5 5 5
100 100 100 100 100 100 100 100 74 99 100 90 75 68 100 100 100 100 100 100 55 94 80 100 98 52 34 6 5 5 5 5 5 28 5 4 5 5 5 5 5 5 5 1
100 99 100 100 100 100 100 100 98 96 99 91 100 93 100 100 100 100 100 100 100 99 64 85 64 5 5 5 2 5 5 9 19 5 3 5 5 5 5 2 4 3 1 0
100 100 100 100 100 100 100 100 55 99 97 100 100 82 72 100 100 100 100 100 100 80 7 5 6 5 0 4 5 1 4 5 23 5 0 1 5 5 3 3 5 5 5 5
97 100 100 100 100 100 100 100 100 98 100 100 100 88 100 100 100 100 100 100 39 28 22 9 4 2 5 5 4 0 3 4 5 5 5 5 5 5 5 5 1 4 4 5

GFSNW_prec_cloud_066.txt.gz
Cloud_Cover
100 100 100 100 100 100 100 100 100 100 100 87 91 65 100 5 0 0 4 5 5 7 100 78 73 83 93 94 100 63 63 22 74 17 18 100 100 54 36 84 100 96 100 100
100 100 100 100 100 100 100 100 100 100 100 100 100 94 88 5 4 2 5 5 1 5 5 37 86 7 5 7 51 49 5 16 36 21 22 96 100 100 100 39 96 100 60 100
100 100 100 100 100 100 100 100 100 100 100 94 88 100 94 89 5 4 5 5 5 1 5 5 80 93 40 5 1 4 5 5 6 85 15 90 100 100 73 45 72 100 100 100
100 100 100 100 100 100 100 100 100 100 100 88 70 30 85 100 6 4 2 5 5 5 5 4 62 100 100 79 5 5 4 46 62 99 5 51 46 100 100 100 100 99 100 100
100 100 100 100 100 100 100 100 100 100 100 67 29 40 6 5 5 4 5 4 5 5 3 2 5 99 100 100 38 5 54 5 5 5 71 17 29 100 100 100 100 100 100 97
100 100 100 100 100 100 100 100 100 100 100 100 18 58 86 16 5 8 8 10 5 5 5 5 5 5 5 5 5 5 5 5 5 6 44 41 91 75 25 65 100 100 100 89
100 100 100 100 100 100 100 100 100 100 100 98 23 27 79 79 38 7 5 27 5 5 5 5 9 5 5 5 5 5 5 5 9 40 35 14 29 72 96 99 100 100 100 96
100 100 100 100 100 100 100 100 100 100 100 100 50 90 5 90 5 5 5 5 5 5 5 10 5 5 6 6 5 5 5 5 5 5 5 4 5 5 4 5 16 78 100 100
100 100 100 100 100 100 100 100 100 100 100 97 31 81 68 10 5 5 5 5 5 5 5 5 5 18 5 5 7 10 5 5 5 5 5 5 0 0 0 1 5 4 5 64
100 100 100 100 100 100 100 100 100 100 100 99 36 96 62 54 5 5 5 4 5 5 5 5 7 5 5 5 5 5 74 22 5 5 5 9 5 25 5 5 5 66 98 100
100 100 100 100 100 100 100 100 100 100 100 100 47 6 5 5 5 0 1 5 5 9 5 5 5 5 5 5 4 5 2 5 5 5 5 52 0 5 5 5 7 60 98 100
100 100 100 100 100 100 100 100 100 100 100 100 76 6 6 5 4 5 0 0 3 25 5 5 4 5 5 5 5 5 5 0 5 3 4 0 0 5 5 5 2 0 32 98
100 100 100 100 100 100 99 100 100 100 100 100 74 64 24 5 5 5 3 0 0 7 32 22 9 1 2 4 4 5 5 5 5 3 3 5 5 4 5 3 3 5 5 5
100 100 100 100 100 100 100 100 100 100 100 100 96 54 54 5 5 5 5 4 5 5 7 10 70 4 2 3 2 1 0 0 1 5 4 5 0 2 5 3 2 5 5 5
100 100 100 100 100 100 96 100 100 100 100 95 100 98 6 5 5 5 5 27 12 5 5 27 98 8 4 5 0 1 0 0 0 0 1 1 4 5 5 4 4 5 5 5
100 100 100 100 100 100 100 100 100 100 100 97 100 92 36 5 5 5 5 24 5 5 5 6 100 49 5 35 3 4 0 0 0 2 0 0 5 4 5 10 20 52 5 5
100 100 100 100 100 100 100 100 100 100 100 100 100 90 96 47 14 7 20 12 5 6 47 5 7 5 6 60 5 5 0 0 0 0 3 4 3 4 5 5 49 23 5 5
100 100 100 100 100 100 97 100 100 100 100 100 100 88 46 100 100 64 8 5 20 92 75 5 5 8 8 86 5 2 5 4 2 4 1 5 4 5 18 5 8 6 5 5
100 100 100 100 100 100 100 100 100 100 100 100 92 77 79 75 52 99 20 55 100 100 58 6 5 15 43 66 5 5 4 5 5 5 2 5 2 6 14 5 5 7 5 5
100 100 100 100 98 100 100 98 100 100 100 100 88 81 85 34 55 42 100 69 100 100 80 66 31 5 6 42 6 5 5 5 3 5 3 5 5 5 7 8 8 6 12 5
100 100 100 100 100 100 100 99 88 100 100 100 77 72 70 80 92 53 100 98 93 73 100 94 67 70 47 80 8 5 5 5 5 0 4 2 5 11 47 49 5 5 5 4
100 100 100 100 99 82 71 88 100 100 100 86 93 90 64 96 82 98 100 100 76 59 99 100 87 50 92 26 5 32 4 5 4 0 4 5 5 5 10 13 5 5 5 5
100 98 100 88 98 100 100 100 100 100 94 77 100 100 100 100 100 100 100 100 100 98 100 100 100 100 76 43 55 7 2 4 0 0 2 5 5 13 5 6 5 5 5 5
100 100 100 100 80 95 100 100 100 100 100 100 67 32 95 99 100 100 92 95 82 97 100 100 100 86 68 11 10 5 5 4 4 5 4 4 5 5 5 5 5 5 5 0
100 96 96 100 100 100 100 90 100 100 100 100 100 38 7 87 100 100 100 96 77 99 100 97 100 87 29 5 5 5 0 0 0 0 5 5 5 5 5 5 5 5 5 5
100 100 99 100 100 100 86 100 100 100 100 100 100 98 73 70 100 100 100 30 56 78 100 100 86 69 73 21 5 5 0 0 1 2 1 0 5 5 5 5 5 5 5 5
100 100 100 100 80 84 100 88 93 100 100 100 100 90 72 13 81 99 95 28 63 100 100 79 98 100 99 54 70 1 4 1 0 0 0 5 5 6 5 5 1 5 5 5

GFSNW_prec_cloud_069.txt.gz
Cloud_Cover
100 100 99 100 100 100 100 100 100 100 100 100 100 100 83 3 0 0 0 5 5 5 7 5 5 98 40 96 88 53 6 15 59 57 13 5 5 6 7 97 100 100 100 100
100 100 100 100 100 100 100 100 100 100 100 100 100 100 59 3 0 0 1 5 5 5 5 71 13 5 57 5 5 5 34 48 34 12 99 57 63 10 5 46 91 99 99 49
73 100 100 100 100 100 100 100 100 100 100 100 100 100 33 2 4 0 4 5 5 5 5 11 85 5 5 5 3 0 2 2 5 5 5 8 9 17 5 9 73 92 76 37
100 100 100 100 100 100 100 100 100 100 100 100 100 94 40 5 5 4 5 5 5 5 5 5 95 5 5 4 1 0 1 4 5 5 5 5 15 63 87 85 8 5 45 73
100 100 100 100 100 100 100 100 100 100 100 100 100 92 99 89 5 5 5 5 5 2 2 4 6 100 5 5 5 0 0 8 5 5 5 5 5 5 6 84 50 63 5 5
100 100 100 100 100 100 100 100 100 100 100 100 93 52 5 9 5 2 1 0 1 5 5 4 5 32 24 5 5 5 0 4 5 5 5 5 5 0 4 5 3 43 64 64
100 100 100 100 100 100 100 100 100 100 100 100 65 20 5 5 5 2 5 5 5 5 5 5 63 65 26 5 5 5 5 5 9 5 5 4 0 0 2 4 5 5 5 5
100 100 100 100 100 100 100 100 100 100 100 75 56 84 40 37 5 5 5 5 5 5 5 5 6 21 41 19 5 5 5 5 6 4 4 3 0 2 0 1 3 5 12 59
100 100 100 100 100 100 100 100 100 100 76 62 50 100 82 42 6 5 5 5 5 5 5 4 5 17 5 5 8 97 5 5 5 5 5 5 4 5 5 4 5 5 1 5
100 100 100 100 100 100 100 92 100 100 57 25 100 100 59 98 6 5 5 5 5 5 5 5 5 5 5 5 5 35 32 5 5 5 5 2 0 0 3 3 3 5 0 1
100 100 100 100 100 100 100 100 100 100 74 22 93 100 100 41 6 5 6 5 10 5 5 5 5 5 5 4 4 2 5 6 5 5 5 4 0 4 4 0 5 5 5 1
100 100 100 100 100 100 100 100 100 100 31 12 75 48 66 9 5 5 0 1 3 5 5 5 4 5 5 5 5 0 3 2 4 5 4 0 0 0 3 1 5 1 2 5
100 100 100 100 100 100 100 100 100 100 16 56 80 89 52 75 5 5 5 1 0 0 5 5 5 1 2 5 4 2 3 4 2 1 0 0 0 1 5 5 5 5 5 5
100 100 100 100 100 100 100 100 100 100 80 64 92 99 70 65 5 5 5 5 1 5 4 5 5 5 4 5 4 4 1 0 2 3 0 0 0 5 8 15 8 5 5 5
100 100 100 100 100 100 100 100 100 100 97 100 100 100 98 42 5 5 5 17 9 10 5 5 13 5 5 5 4 5 1 0 4 5 1 0 2 5 5 56 11 9 52 13
100 100 100 100 100 100 100 100 100 100 100 100 100 100 98 46 16 33 5 5 5 9 57 5 6 5 5 5 6 5 5 4 5 5 5 5 5 5 6 54 85 48 99 100
100 100 100 100 100 100 100 100 100 100 100 100 100 100 100 83 67 96 93 5 18 86 51 5 28 8 5 5 5 5 5 5 26 5 5 5 5 5 18 62 97 66 99 100
100 100 100 100 100 100 100 100 100 100 100 100 100 100 100 95 100 100 100 100 6 7 10 5 46 37 5 5 5 5 5 5 5 5 6 5 5 7 86 25 80 94 100 96
100 100 100 100 100 100 100 100 100 100 100 100 100 100 100 100 100 100 100 92 5 5 5 5 5 5 35 5 5 5 5 5 5 5 8 88 5 5 33 67 85 98 48 100
100 100 100 100 87 100 100 100 100 100 100 100 100 100 100 100 100 89 100 100 88 30 23 97 10 5 59 5 5 7 7 27 43 63 57 62 5 6 16 76 92 78 15 97
100 100 100 99 100 100 100 100 100 100 100 100 100 100 100 100 100 92 100 100 100 66 68 6 22 30 28 12 95 54 64 100 100 100 100 62 5 17 100 91 47 53 25 5
100 100 100 100 100 100 100 63 100 100 100 96 100 100 100 100 100 100 100 100 100 96 42 73 60 45 35 100 100 100 75 93 100 37 98 28 69 39 31 91 100 16 10 5
100 100 100 100 95 100 100 100 95 100 100 100 86 100 100 100 100 100 86 92 94 91 97 53 8 5 58 74 52 56 45 25 20 10 7 5 13 64 40 56 48 5 5 5
100 84 97 80 100 100 100 100 100 100 100 100 100 100 100 99 100 99 48 82 80 93 97 30 73 56 17 76 27 42 10 5 5 5 5 35 40 5 5 70 5 5 5 5
98 100 88 100 100 100 100 100 100 98 100 97 86 70 57 94 100 100 93 82 100 19 9 60 93 82 27 17 5 19 17 41 10 5 5 6 5 9 8 5 5 5 5 5
88 100 96 100 100 100 100 100 100 98 94 76 80 100 100 100 100 100 100 100 48 63 26 36 60 98 87 16 21 11 5 5 5 4 5 2 4 5 39 5 5 5 5 5
100 100 100 100 100 100 99 84 98 100 100 100 100 100 100 100 100 100 100 60 82 20 70 36 100 100 5 22 28 8 5 5 5 5 4 3 2 5 5 5 5 5 5 5

GFSNW_prec_cloud_075.txt.gz
Cloud_Cover
94 100 100 100 100 100 100 100 100 100 100 100 100 100 100 7 2 0 0 5 5 46 87 64 100 100 97 97 94 100 93 100 68 79 97 74 33 76 100 100 100 100 100 100
100 100 100 100 100 100 100 100 100 100 100 100 100 100 68 3 4 0 0 5 45 5 5 50 8 79 67 42 5 5 5 5 46 5 6 5 5 6 80 71 29 97 100 55
100 100 100 100 100 100 100 100 100 100 100 100 63 100 73 4 0 0 0 5 23 1 67 99 65 84 34 5 2 0 1 5 1 5 2 0 0 4 0 0 13 7 80 63
100 100 100 100 100 100 100 100 100 100 100 100 100 100 5 0 0 0 0 1 0 2 3 5 5 5 5 3 2 0 0 4 5 5 1 0 0 1 4 4 0 0 5 14
5 94 100 100 100 100 100 100 100 100 100 100 100 100 5 0 2 0 0 0 0 0 3 4 5 2 0 4 0 0 0 5 3 5 5 0 0 0 0 2 3 5 5 5
17 100 100 100 100 100 100 100 100 100 100 91 100 100 4 0 0 1 0 0 0 1 0 5 3 5 2 5 1 0 0 5 5 5 2 0 2 5 5 4 0 0 0 0
58 95 100 100 93 100 100 100 100 100 100 94 100 100 4 2 0 0 0 4 2 4 5 5 5 5 5 5 5 1 2 5 5 5 1 4 0 0 0 0 0 1 1 1
96 100 100 90 96 100 100 87 90 94 68 100 100 100 53 5 0 0 0 0 4 5 5 5 5 5 5 5 5 3 0 5 5 4 4 0 0 0 0 0 0 0 0 4
100 99 76 100 88 96 72 50 69 95 49 100 92 100 96 5 4 4 5 5 5 5 5 2 5 18 5 5 5 5 0 1 2 3 4 0 0 1 0 0 0 0 2 4
100 100 100 100 100 83 89 87 26 11 73 100 100 99 94 5 5 5 5 5 5 4 2 5 5 5 5 5 5 5 5 5 4 14 4 1 0 2 0 0 1 5 0 0
100 100 100 100 83 100 87 11 5 20 24 100 100 99 94 5 5 5 5 5 12 5 4 5 5 5 5 5 4 5 5 6 27 11 5 5 5 5 5 5 1 5 5 5
100 100 100 96 96 98 35 92 53 40 22 55 81 82 97 45 5 5 5 4 5 5 3 0 5 5 5 5 9 23 6 76 89 86 5 5 5 5 5 5 5 19 58 5
100 100 100 100 45 76 63 8 31 5 91 16 100 85 93 56 28 32 25 4 5 1 1 5 5 5 5 5 5 12 99 22 37 5 5 5 5 6 7 69 91 92 34 5
100 100 100 100 80 69 72 90 52 25 39 68 76 54 76 5 18 67 18 5 3 1 0 5 26 14 5 5 13 5 27 15 5 5 6 9 33 55 56 74 41 100 82 64
100 99 100 96 98 77 100 76 72 81 29 28 78 92 87 54 9 5 5 5 5 5 8 47 52 5 40 30 37 5 5 5 19 51 17 56 79 53 100 97 100 100 100 92
100 100 100 100 94 100 100 87 68 100 90 52 66 50 68 100 64 58 52 22 5 5 58 86 60 5 5 26 10 5 5 5 40 87 100 77 100 90 100 100 100 100 96 86
100 100 100 100 71 100 100 78 34 91 76 90 86 55 50 88 99 64 100 53 54 56 57 84 97 44 7 6 8 5 11 10 38 98 100 100 100 100 100 100 100 100 78 67
100 100 100 46 100 78 95 100 97 71 100 100 100 96 93 55 26 61 71 76 84 100 74 6 7 74 6 7 22 19 45 5 83 81 100 100 100 100 100 100 100 88 100 46
100 100 100 100 100 100 100 100 100 100 98 100 100 100 100 100 81 12 13 10 5 15 77 94 5 5 16 56 5 5 5 5 89 100 99 99 78 63 96 90 98 98 65 69
100 100 100 100 100 100 96 100 100 100 100 100 100 100 100 100 100 100 96 100 74 96 78 82 6 6 9 64 10 5 34 73 100 100 63 97 51 69 100 91 67 99 56 31
94 100 100 100 100 100 100 72 100 100 100 100 100 100 97 100 100 100 100 100 96 84 5 16 36 13 14 68 24 5 8 94 92 100 35 68 52 59 80 31 35 15 7 5
76 14 100 100 100 100 92 96 99 100 100 100 100 100 95 100 95 61 100 73 61 95 16 74 81 5 51 88 16 5 19 82 91 94 15 31 51 12 17 7 6 5 5 5
69 35 94 100 100 100 100 100 100 100 100 100 100 100 100 100 97 61 23 19 99 37 84 37 59 31 94 92 45 5 5 76 85 81 33 29 52 37 5 5 5 5 5 5
100 100 95 100 100 100 100 100 100 100 100 100 100 100 100 100 100 100 67 92 90 89 80 40 74 84 99 83 24 56 94 72 19 99 16 51 14 20 5 5 5 5 5 1
100 88 31 95 100 100 100 100 100 100 100 100 100 100 100 100 100 100 87 88 100 66 38 21 46 31 65 36 80 100 81 7 47 48 11 44 5 5 5 5 4 5 5 5
100 60 44 100 100 100 100 100 100 100 100 100 100 100 100 100 99 97 67 48 26 25 60 52 57 79 34 87 89 44 5 5 11 6 5 7 5 5 6 5 5 5 5 5
93 13 62 100 100 100 100 100 100 100 100 100 100 100 100 100 100 100 95 44 54 99 99 91 59 98 100 91 17 5 5 5 33 5 5 4 5 5 5 5 5 5 5 5

GFSNW_prec_cloud_078.txt.gz
Cloud_Cover
100 100 100 100 100 100 100 100 100 100 100 100 100 100 100 100 81 5 4 3 5 4 33 100 100 81 100 95 100 100 100 34 91 100 64 66 91 100 100 100 100 90 36 24
100 100 100 100 100 100 100 100 100 100 100 100 100 100 100 12 3 5 10 5 4 5 22 10 22 84 76 15 75 32 92 23 14 6 43 99 23 4 1 5 6 100 93 52
100 100 100 100 100 100 100 100 100 100 100 100 100 99 25 4 5 5 20 5 1 5 5 5 29 5 5 5 5 1 0 4 4 4 42 14 2 8 1 5 34 84 19 55
98 86 100 100 100 100 100 100 100 100 100 100 78 87 9 5 5 5 5 2 0 0 5 5 5 5 5 3 0 0 1 5 5 5 4 0 0 0 4 23 50 45 7 6
5 5 99 100 70 100 100 100 100 100 96 73 100 65 5 4 5 5 0 0 0 5 0 5 5 5 5 0 0 0 0 4 0 0 0 0 4 0 0 0 3 5 6 5
18 83 100 92 50 100 100 98 67 40 52 38 98 32 5 0 0 1 0 0 0 0 2 0 1 0 0 0 0 0 0 3 3 4 0 0 0 0 3 3 0 0 3 0
100 71 38 100 100 98 97 71 84 5 45 28 94 27 1 0 0 4 0 0 0 4 5 5 5 2 2 3 0 0 0 0 2 4 0 1 0 0 0 0 0 0 0 0
79 5 84 80 61 35 94 5 22 5 29 45 98 86 0 0 4 3 0 0 1 5 2 4 5 1 1 2 0 0 0 0 0 1 0 0 0 0 0 0 0 0 0 0
24 55 5 50 68 46 5 5 5 4 5 48 60 89 5 5 4 3 3 5 5 0 0 0 2 4 5 5 4 0 0 0 0 0 0 0 0 0 0 0 0 0 0 0
46 80 92 98 98 11 5 5 5 5 5 88 94 6 12 5 5 4 5 5 5 0 0 2 4 5 5 5 5 5 5 2 2 1 3 2 2 1 0 0 5 1 0 1
100 50 100 15 54 5 5 4 5 1 5 52 26 5 13 5 5 4 5 5 5 2 1 1 5 5 5 5 5 5 5 4 5 5 5 5 5 5 5 5 5 20 5 5
100 100 57 94 50 3 5 4 5 5 3 6 14 68 5 5 5 4 3 0 0 0 0 0 2 1 5 5 5 5 5 0 2 8 51 5 5 12 38 6 5 14 5 8
100 100 100 34 5 5 5 2 5 5 5 6 9 7 35 5 5 4 0 5 5 5 2 5 5 20 50 10 5 5 19 12 5 6 9 86 84 43 27 100 72 39 34 36
100 100 100 80 5 5 5 5 5 5 5 5 12 63 18 5 5 5 4 5 9 35 50 8 9 5 5 5 5 5 5 5 7 54 27 100 100 78 67 84 85 64 8 5
100 100 100 97 50 5 5 5 5 5 2 4 14 98 100 27 5 5 5 5 7 23 13 21 32 30 5 5 5 4 4 5 5 5 41 98 60 41 97 59 72 61 5 11
100 100 100 100 97 7 69 44 57 7 5 5 5 5 6 96 45 6 5 30 5 5 52 5 5 5 8 8 5 5 5 5 5 5 79 100 77 10 73 98 63 9 13 18
100 100 100 100 100 89 66 59 62 66 28 5 39 22 14 32 34 6 9 31 6 5 18 6 5 10 54 22 5 6 16 5 9 54 100 100 78 84 99 97 22 12 5 5
100 100 100 100 100 100 100 93 100 86 70 53 62 90 11 6 44 41 6 5 5 19 60 6 5 51 96 97 68 28 45 15 5 21 100 100 55 100 48 48 5 9 5 5
78 100 100 100 100 100 100 100 100 94 52 62 64 59 12 18 99 32 18 21 98 100 53 5 12 69 50 62 98 98 47 18 5 7 79 42 24 67 9 5 8 7 8 5
100 100 89 100 100 100 100 100 100 100 100 100 78 6 5 5 36 51 91 61 31 5 5 5 5 61 98 100 100 69 11 33 11 9 39 46 26 31 11 5 5 5 12 5
71 6 49 46 74 94 100 100 100 100 100 100 100 100 83 71 17 100 60 11 6 5 14 11 21 5 26 61 64 58 45 53 28 16 6 87 44 49 5 5 5 5 2 4
35 5 5 5 10 96 98 100 100 100 100 100 100 100 100 100 50 97 85 71 52 41 77 77 35 5 5 13 18 63 21 58 63 5 6 42 56 6 5 5 4 5 0 2
76 38 3 45 72 49 100 100 100 93 91 100 100 100 100 100 100 100 99 97 84 25 51 8 39 14 10 83 66 63 78 59 6 5 6 100 17 5 5 5 0 4 0 1
56 97 16 4 64 100 100 100 100 100 99 100 100 100 100 100 100 100 100 61 100 86 75 46 62 47 80 97 96 54 92 5 5 5 5 34 5 5 5 4 0 1 0 0
96 37 9 5 5 98 100 100 100 100 100 100 100 100 100 98 100 100 100 92 100 79 78 100 100 100 92 100 100 100 98 6 5 5 5 6 5 5 5 2 0 0 0 5
88 32 15 5 5 72 100 100 100 100 100 100 100 100 100 100 100 100 100 100 99 87 100 83 100 100 100 100 100 100 76 6 5 5 9 5 5 5 5 0 0 5 5 5
100 94 5 4 8 94 100 100 100 100 100 100 100 100 100 100 100 100 100 100 99 100 100 86 100 100 100 100 100 100 61 5 5 5 8 20 5 5 5 4 5 5 5 5

GFSNW_prec_cloud_081.txt.gz
Cloud_Cover
100 100 100 100 100 100 96 100 100 100 100 100 100 100 100 100 100 100 20 6 87 100 100 98 100 100 100 98 100 100 100 100 100 100 100 100 100 100 100 100 55 100 100 100
95 100 100 100 100 97 100 100 100 100 100 100 100 100 100 92 76 21 59 18 93 100 98 72 100 97 92 38 29 80 34 99 81 67 95 97 38 28 5 24 16 90 77 100
74 100 100 100 100 100 100 100 100 100 100 99 100 100 5 90 100 30 6 28 53 39 15 5 80 5 5 58 96 3 1 5 6 42 28 5 5 5 3 3 0 4 4 5
5 68 84 100 100 100 100 100 100 100 100 93 83 22 35 85 34 5 5 5 22 37 33 10 9 5 5 2 1 2 5 4 3 4 4 0 1 0 0 4 2 1 2 5
100 100 100 100 100 100 94 55 58 100 40 93 18 5 80 5 5 45 5 5 5 5 5 5 5 3 3 2 1 0 0 4 0 0 0 4 5 3 0 0 0 0 0 2
100 100 100 100 100 13 20 50 5 38 94 60 46 43 5 5 5 4 38 31 5 4 3 1 0 0 0 0 0 0 0 2 2 3 0 0 1 0 3 1 0 0 4 0
47 100 100 100 39 5 5 6 2 61 89 28 51 9 5 2 4 0 0 3 5 4 0 1 0 0 0 0 0 0 0 0 4 4 0 3 0 0 0 0 0 0 0 0
56 71 100 60 5 5 0 0 3 26 48 19 5 5 2 0 0 0 0 0 0 0 0 11 5 4 4 2 0 0 0 0 0 3 0 0 0 0 0 0 0 0 0 0
52 2 5 5 5 5 5 4 0 5 4 7 0 15 8 7 4 0 3 1 0 0 4 4 5 4 2 0 0 0 0 0 2 0 0 0 0 0 0 0 0 0 0 0
32 5 5 5 3 4 4 0 0 0 0 4 5 18 4 5 5 3 5 3 1 0 3 0 2 1 0 1 0 0 1 0 2 0 0 0 5 4 5 2 2 4 1 0
87 6 5 4 0 0 0 0 0 0 0 0 3 2 0 0 2 6 2 3 3 4 5 4 3 1 0 1 0 3 4 5 5 5 5 5 5 5 5 5 5 5 5 4
100 46 5 0 0 5 1 0 0 0 0 2 0 1 5 0 0 0 2 1 0 5 5 17 5 5 5 5 5 5 5 5 4 5 5 5 5 13 17 63 49 7 5 5
100 100 82 32 2 0 0 1 0 0 0 4 5 5 5 4 1 0 2 0 4 5 5 5 3 0 0 0 2 1 0 3 5 5 6 8 5 6 100 93 15 24 5 5
100 100 100 94 97 10 3 4 2 3 2 4 4 5 5 5 2 5 5 5 5 5 5 5 5 5 5 5 5 5 7 5 5 6 6 69 15 15 83 78 20 12 5 5
100 100 100 100 100 100 83 5 5 5 5 5 5 5 5 5 5 5 5 5 5 5 5 5 8 16 16 15 52 60 65 55 24 48 11 5 5 5 27 18 5 8 5 5
100 100 100 100 100 100 100 100 53 6 83 29 6 5 5 5 5 5 5 5 5 5 5 77 92 52 56 92 94 51 12 27 5 33 44 27 60 8 5 5 77 5 5 5
77 100 100 100 100 100 100 100 100 75 64 99 100 99 81 37 17 22 26 7 5 14 8 37 97 23 98 93 91 24 5 5 27 68 39 62 62 49 5 14 8 5 5 5
6 28 93 100 100 100 100 100 100 100 97 60 90 74 53 18 30 34 53 46 51 83 5 6 70 61 92 66 38 81 33 40 41 51 68 75 71 40 5 5 5 5 5 5
7 5 7 69 100 100 100 100 100 100 100 98 100 95 79 100 20 18 49 89 42 82 11 72 85 42 71 25 85 47 19 5 33 71 56 70 45 32 5 5 5 5 5 0
100 7 5 6 34 94 100 100 100 100 100 100 100 100 100 84 58 5 44 72 90 100 98 100 96 70 23 35 72 86 87 39 8 25 17 57 14 5 5 5 5 1 5 4
100 70 5 0 3 18 20 86 100 100 100 100 100 100 100 100 100 96 90 76 97 94 50 54 80 88 72 67 46 97 100 100 79 37 5 7 5 14 5 5 5 2 4 2
100 85 51 4 0 0 37 93 86 100 100 100 100 100 100 100 100 100 100 95 96 98 81 55 97 100 98 59 96 100 100 100 100 62 5 5 5 30 5 5 5 5 0 0
100 100 96 25 95 5 1 60 100 85 69 94 87 81 100 100 100 98 100 100 100 100 100 100 81 100 100 100 100 100 98 100 100 77 5 5 5 49 5 5 5 0 1 0
100 100 100 100 100 100 78 2 5 89 100 19 97 84 5 85 72 38 72 44 40 100 100 70 99 100 100 100 100 88 99 100 100 100 20 5 5 9 5 5 5 0 0 0
87 100 100 100 100 100 100 97 5 5 5 32 83 98 92 87 33 22 16 38 88 100 100 96 88 100 100 100 100 98 100 100 100 100 58 5 5 2 1 4 5 0 0 1
97 80 48 100 100 100 100 100 88 5 5 5 97 100 100 100 100 93 81 28 100 100 100 100 100 100 100 100 100 100 100 100 100 100 100 7 5 0 0 2 5 0 5 5
100 100 87 100 100 100 100 100 100 85 43 5 5 5 43 53 100 100 100 100 100 100 100 100 100 97 100 100 100 100 100 100 100 100 100 20 5 3 4 5 5 5 5 5

GFSNW_prec_cloud_084.txt.gz
Cloud_Cover
60 100 100 90 40 6 6 55 100 90 100 100 100 100 100 100 100 90 22 53 70 42 40 97 98 100 100 97 100 100 100 100 100 99 98 100 100 97 32 100 100 100 100 100
100 100 100 100 100 96 22 100 100 100 100 100 100 100 96 73 19 17 38 41 97 100 100 100 100 100 100 100 100 100 51 93 75 100 100 95 98 18 44 62 100 96 90 100
100 100 100 100 100 100 100 100 100 91 100 100 99 40 42 44 89 100 96 75 71 99 88 93 80 70 95 100 50 91 87 12 6 30 12 93 12 5 4 5 89 62 5 18
99 14 50 5 68 90 72 79 100 86 91 7 41 82 79 78 9 5 5 5 39 66 100 73 5 4 1 2 0 1 1 2 4 1 2 3 1 1 1 5 28 17 5 10
49 5 5 5 12 5 65 12 8 5 5 5 24 7 17 4 5 23 6 5 38 49 25 22 5 5 0 0 0 0 0 0 0 0 0 0 0 0 0 0 0 0 0 0
96 18 0 4 0 0 0 0 5 4 5 5 4 3 4 2 5 5 6 77 5 5 4 0 0 0 0 0 0 0 0 1 2 4 0 0 1 0 0 0 0 0 4 0
92 6 0 0 1 3 0 0 5 4 5 0 0 4 2 2 2 0 3 5 0 0 0 0 0 0 0 0 0 0 0 0 15 2 0 1 0 0 0 0 0 0 0 0
8 0 0 0 0 0 0 5 9 3 5 5 3 0 0 0 0 0 0 0 0 0 0 0 0 0 0 0 0 0 0 0 0 1 1 0 0 0 0 0 0 0 0 0
56 0 0 0 1 2 0 1 5 1 0 0 0 4 2 4 0 0 0 0 0 0 0 0 0 0 0 0 0 0 0 0 0 0 0 0 0 0 0 0 0 0 0 0
14 5 0 0 0 3 0 0 0 0 0 0 0 4 5 5 4 1 0 0 0 0 0 0 0 0 0 1 1 0 0 0 0 0 0 0 0 0 0 0 0 0 0 0
53 6 5 0 0 0 0 0 0 0 0 0 0 0 0 0 0 2 0 2 0 1 1 0 0 0 0 0 0 0 0 0 0 1 2 2 4 0 0 0 0 4 4 0
30 88 17 5 5 5 0 0 0 0 0 0 0 0 0 0 0 0 0 2 3 0 1 2 4 4 2 5 5 5 5 5 5 5 5 5 5 5 5 5 21 5 5 5
100 22 93 23 14 6 5 2 0 0 5 0 0 3 5 5 4 1 1 5 5 5 5 5 5 5 5 5 5 5 5 5 5 5 5 5 5 5 5 66 5 6 5 5
4 100 91 51 86 37 74 16 5 5 5 5 5 5 5 5 5 5 5 5 35 47 38 12 12 5 5 5 5 12 5 5 5 5 5 5 5 27 7 5 5 5 5 5
75 4 48 100 54 14 36 86 84 73 62 12 5 6 42 63 44 8 6 43 87 74 14 5 5 12 5 5 5 5 5 33 33 7 6 7 8 5 33 6 5 5 5 5
100 47 5 9 100 99 7 19 26 99 100 100 100 72 55 91 100 97 81 98 100 100 93 82 8 5 5 5 5 5 6 14 22 55 45 55 39 47 32 8 5 5 5 0
72 97 6 2 76 100 94 20 5 25 86 98 100 100 86 73 82 81 91 97 99 100 73 98 100 48 10 10 54 88 33 6 55 97 8 5 7 5 5 5 5 5 2 0
100 100 48 5 5 23 100 100 66 53 8 13 100 100 74 86 83 75 70 81 92 85 100 91 92 27 13 42 65 84 99 100 100 98 79 90 8 4 5 5 5 5 0 0
100 100 100 100 5 5 14 89 100 80 34 100 100 100 100 22 22 83 81 75 74 24 65 91 87 94 15 28 84 78 92 85 100 100 100 100 96 5 1 5 5 5 0 0
100 100 18 100 100 6 2 5 97 100 100 100 100 100 100 17 6 10 27 42 77 83 63 76 91 34 98 7 8 64 100 100 100 100 100 100 100 94 5 5 5 5 0 0
100 100 100 65 97 92 18 0 0 3 85 64 99 66 45 76 100 100 100 100 100 100 89 96 100 71 100 91 94 12 94 100 100 100 100 100 100 100 92 14 17 35 5 0
68 100 100 88 97 100 100 19 61 91 89 47 6 5 61 71 58 100 100 100 49 81 100 100 100 49 100 100 76 59 62 99 99 100 100 100 100 100 100 100 16 59 5 1
22 76 100 100 48 100 100 100 100 96 100 100 99 62 30 14 6 10 53 21 88 72 15 100 100 37 99 100 96 81 94 100 100 45 98 100 100 100 100 100 100 37 5 2
100 99 100 100 100 62 100 100 100 100 100 100 100 13 5 5 5 5 5 17 48 98 100 100 100 100 40 65 76 100 100 100 100 100 100 100 100 100 100 100 100 70 5 5
100 97 100 87 100 99 100 83 100 100 100 100 100 94 11 5 5 5 51 60 85 99 100 96 81 13 7 12 91 98 81 99 100 98 100 100 100 100 100 100 100 92 8 5
99 100 100 99 35 100 97 98 11 99 100 100 100 100 5 5 5 9 29 50 100 100 97 100 55 78 100 100 100 98 100 100 100 100 100 100 100 100 100 100 100 100 31 5
100 100 100 99 5 59 95 14 69 33 100 95 78 75 70 5 20 5 63 85 99 100 100 100 100 100 100 100 100 100 100 100 100 100 100 100 100 100 100 100 100 100 31 5

GFSNW_prec_cloud_087.txt.gz
Cloud_Cover
100 100 100 100 100 100 100 100 100 44 60 100 96 100 100 97 100 100 96 90 5 37 35 100 100 19 100 95 100 100 64 95 73 100 100 100 100 100 100 100 100 100 100 100
90 59 100 100 100 100 49 100 100 100 64 83 99 100 85 61 35 33 21 5 16 84 100 90 48 90 94 100 100 100 95 93 83 100 98 92 100 99 100 100 100 100 100 100
94 49 59 50 77 100 79 100 100 83 90 47 69 48 5 36 14 51 40 18 54 100 33 56 9 97 81 89 31 16 71 100 99 89 26 5 5 11 20 82 100 11 19 76
91 72 7 5 8 39 36 59 18 7 70 18 50 5 31 5 5 5 6 6 7 8 6 10 22 94 69 67 6 5 2 6 56 10 5 4 2 0 0 5 6 2 6 5
98 2 2 0 0 0 0 0 1 1 4 11 5 5 5 0 5 5 5 5 5 3 3 0 0 0 0 0 0 0 0 0 0 0 0 0 0 0 0 0 0 0 0 0
3 0 0 0 0 0 0 0 4 5 4 5 3 4 4 2 0 5 0 3 0 0 0 0 0 0 0 0 0 0 0 0 4 4 0 0 0 0 0 0 0 0 0 0
0 0 0 0 0 0 0 0 2 1 1 0 0 1 0 0 0 0 2 0 0 0 0 0 0 0 0 0 0 0 0 0 13 5 1 0 0 0 0 0 0 0 0 0
0 0 0 0 0 0 0 0 0 0 0 0 0 0 0 0 0 0 0 0 0 0 0 0 0 0 0 0 0 0 0 0 2 4 3 0 0 0 0 0 0 0 0 0
0 0 0 0 0 0 0 5 1 0 0 0 0 0 0 0 0 0 0 0 0 0 0 0 0 1 0 0 0 0 0 0 0 0 0 0 0 0 0 0 0 0 0 0
0 0 3 0 0 5 1 0 0 0 0 0 0 0 0 0 0 0 0 0 0 0 0 0 0 1 0 0 0 0 0 0 0 0 2 0 0 0 0 0 0 0 0 0
2 5 2 5 2 0 5 5 5 4 4 3 0 0 0 0 0 0 0 0 0 0 0 0 0 0 0 0 0 0 1 2 4 4 2 4 0 0 0 0 0 0 0 0
0 0 1 1 1 5 4 2 5 11 5 5 5 5 5 5 4 5 5 5 5 5 5 5 5 5 5 5 5 5 1 0 5 5 5 4 4 5 5 4 4 5 5 5
4 0 0 4 0 0 4 5 5 5 32 50 44 18 33 30 46 51 36 5 5 5 5 5 5 5 5 5 5 5 5 5 5 5 5 5 5 5 5 5 5 5 5 5
100 100 2 0 0 1 0 0 3 5 5 5 18 59 30 7 50 96 89 71 50 48 24 5 5 5 5 5 5 5 5 5 5 5 5 5 5 5 5 5 5 5 5 4
100 100 85 3 0 0 0 0 0 5 6 4 5 6 44 97 29 33 72 82 34 7 28 66 30 5 5 5 5 19 52 76 72 92 6 5 29 11 5 5 1 0 0 3
100 100 100 100 35 5 0 5 3 0 6 100 100 40 5 5 5 5 39 60 82 61 5 14 51 59 35 22 10 46 62 65 100 100 100 99 99 95 37 39 9 5 5 5
100 100 100 100 100 94 2 0 8 57 30 5 47 100 100 52 7 5 5 5 6 56 61 20 9 43 63 48 52 42 30 34 40 100 100 100 100 100 54 47 65 81 28 11
87 100 100 100 100 100 39 0 0 5 95 53 72 23 9 39 72 42 8 33 6 6 52 70 50 30 12 18 5 5 5 5 39 56 86 99 100 100 100 100 100 100 68 95
84 100 93 100 100 100 100 62 1 0 1 34 82 7 5 5 4 5 63 25 45 24 57 75 100 28 83 77 5 52 8 5 20 29 19 37 38 100 100 100 100 100 100 100
98 52 94 57 100 100 100 100 28 0 0 0 5 12 19 6 6 5 5 69 52 98 100 100 100 100 8 100 16 100 100 100 91 6 46 73 94 94 59 56 100 100 100 100
100 42 48 100 58 87 100 100 100 100 59 18 5 32 41 77 96 100 91 52 25 82 100 100 100 100 82 15 70 41 98 66 72 9 19 54 68 79 71 86 99 100 100 100
68 57 30 91 41 6 85 100 100 100 100 52 54 100 83 31 51 87 91 100 100 100 100 100 100 100 100 19 5 5 12 6 36 18 23 94 100 94 64 100 100 100 100 100
98 54 91 86 70 61 56 100 100 100 100 100 90 83 100 100 94 5 5 8 52 5 63 93 100 100 100 100 19 5 70 100 99 26 65 99 100 94 98 91 100 100 100 100
100 94 93 100 100 22 97 82 93 95 99 100 100 100 100 100 99 56 5 5 5 11 95 4 4 17 99 100 100 100 100 100 100 100 99 100 100 100 100 100 99 100 100 100
100 100 98 100 100 100 39 52 51 93 98 93 100 100 100 96 77 14 5 11 13 5 1 4 30 100 89 61 96 100 100 100 100 100 100 100 100 100 100 100 100 100 100 100
100 90 100 100 100 100 55 56 100 100 100 76 67 100 100 99 34 13 14 5 21 6 5 5 5 75 100 100 98 100 100 100 100 100 100 100 100 100 100 100 100 100 100 100
100 100 100 100 100 97 61 100 100 100 100 100 96 80 98 100 72 50 35 38 7 10 17 5 5 5 6 53 100 100 100 100 100 100 100 100 100 100 100 100 100 100 100 100

GFSNW_prec_cloud_090.txt.gz
Cloud_Cover
8 80 99 88 44 6 99 100 100 100 100 96 100 100 100 100 100 100 100 100 100 64 100 83 100 100 100 97 100 95 100 60 100 100 100 87 98 100 100 100 100 100 100 100
5 5 7 44 0 4 64 94 47 80 100 80 84 78 42 21 10 5 53 19 40 40 100 100 100 88 15 95 98 86 100 100 99 87 95 100 100 100 74 100 35 94 100 100
62 2 5 0 0 0 22 0 8 2 5 54 43 5 10 5 5 5 19 81 100 33 88 73 100 100 100 83 31 11 7 31 33 42 11 6 43 84 100 97 66 76 64 89
4 0 0 0 0 0 0 0 3 7 60 5 71 9 5 5 5 24 80 39 32 91 16 5 32 12 6 49 69 44 41 72 10 5 2 4 8 5 5 6 3 7 3 4
0 0 0 0 0 0 0 0 2 4 5 5 5 5 0 4 0 0 0 0 0 0 1 0 1 0 0 0 0 0 0 0 0 0 0 0 0 0 0 0 0 0 0 0
0 0 0 0 0 0 0 0 0 0 1 1 0 0 0 0 0 0 0 5 4 1 0 0 0 0 0 0 0 0 0 0 4 1 0 0 0 0 0 0 0 0 0 0
5 0 0 0 0 0 0 0 0 0 0 0 0 0 0 0 0 0 0 0 0 0 0 0 0 0 0 0 0 0 0 0 9 4 0 0 0 0 0 0 0 0 0 0
5 5 2 0 0 0 0 0 0 0 0 0 0 0 0 0 0 0 0 0 0 0 0 0 0 0 0 0 0 0 0 0 3 2 3 0 0 0 0 0 0 0 0 0
0 0 4 5 0 0 0 0 0 0 0 0 0 0 0 0 0 0 0 0 0 0 0 0 0 0 0 0 0 0 0 0 0 3 0 0 0 0 0 0 0 0 0 0
8 2 0 1 5 2 0 0 0 0 5 2 2 0 0 0 0 0 0 0 0 0 0 0 0 3 0 0 0 0 0 0 1 0 2 0 0 0 0 0 0 0 0 0
6 5 25 2 0 0 5 3 0 0 0 4 5 5 5 5 5 5 3 2 3 4 4 2 0 0 0 0 0 0 0 1 3 1 2 0 2 0 0 0 0 0 0 0
34 86 29 100 12 0 0 0 1 2 0 0 0 2 5 5 2 4 0 1 0 1 0 0 0 0 0 0 0 0 0 0 0 0 0 0 3 1 5 4 0 0 0 0
74 85 100 84 100 9 0 0 0 0 0 0 1 2 0 1 4 5 5 5 2 1 5 2 2 2 1 5 5 2 2 5 7 2 0 0 1 0 0 0 0 0 0 0
99 23 38 94 63 76 46 0 0 0 0 2 1 28 75 7 5 2 2 1 0 2 5 5 5 2 5 5 5 5 5 5 37 93 100 69 19 92 66 13 5 5 5 5
100 97 90 24 6 30 99 73 1 0 1 5 5 4 5 5 5 5 5 2 5 5 5 5 5 5 5 5 5 5 5 5 5 7 81 68 7 62 100 100 100 95 88 61
86 100 100 100 90 100 92 100 99 8 0 5 5 5 5 5 5 5 5 5 5 5 20 56 14 50 93 68 16 5 5 5 4 5 5 6 6 46 56 27 99 100 100 100
53 100 49 42 18 99 39 39 95 100 53 49 4 6 5 5 5 8 60 68 87 46 60 17 26 5 8 65 100 100 61 5 5 5 5 5 73 100 96 56 100 100 96 100
55 99 73 10 31 5 69 98 100 100 97 74 52 16 4 5 4 0 6 22 90 100 100 97 100 100 13 71 88 5 20 97 100 96 71 70 62 43 67 72 61 98 96 100
69 15 28 100 32 14 84 57 100 100 53 46 66 100 72 0 0 4 5 60 92 100 100 100 100 100 100 100 100 100 99 82 49 52 23 49 90 92 71 86 100 100 100 100
52 48 19 6 96 10 6 85 100 100 87 90 72 59 100 96 24 4 5 24 9 54 94 98 100 100 87 92 5 5 59 97 100 91 30 55 100 100 100 100 100 100 100 100
37 76 55 41 5 90 7 16 71 89 100 18 77 58 100 100 100 79 7 9 37 5 5 5 5 11 20 19 6 14 51 72 95 99 100 100 100 100 100 100 100 100 100 100
22 72 79 100 38 29 8 12 97 68 84 85 22 56 5 64 50 22 100 85 89 90 24 24 41 4 2 2 0 0 3 91 100 100 100 100 100 100 100 100 100 100 100 100
83 96 70 100 94 56 24 5 97 42 95 100 89 45 19 7 76 100 29 100 100 100 96 84 79 5 4 0 0 1 72 100 100 100 100 100 100 100 100 100 100 100 100 100
86 48 99 89 100 100 76 86 71 100 90 55 72 63 59 41 5 80 99 7 48 99 97 69 41 75 43 6 1 0 2 5 54 99 100 100 100 100 100 100 100 100 100 100
100 99 100 100 100 100 100 89 30 70 100 61 94 100 100 92 20 78 10 95 13 23 48 60 52 100 12 30 51 4 0 4 5 5 5 51 96 100 100 100 100 100 100 100
95 70 86 100 100 100 100 75 55 91 100 66 21 100 100 100 100 100 14 66 100 77 34 14 27 51 49 59 14 30 12 20 61 9 31 45 76 64 78 100 100 100 100 100
99 92 97 100 100 100 100 26 65 55 99 91 38 100 100 100 100 72 98 97 100 100 22 5 55 95 62 36 95 81 100 98 91 74 85 83 96 94 78 44 62 68 100 100

GFSNW_prec_cloud_093.txt.gz
Cloud_Cover
7 7 0 5 0 0 0 31 5 36 100 100 98 100 100 100 100 100 100 100 100 81 23 97 100 100 100 96 97 100 100 100 100 100 97 100 100 100 100 100 100 100 100 100
0 0 0 0 0 0 0 0 2 4 5 42 85 100 99 100 100 98 100 100 100 100 100 93 96 100 84 61 72 100 100 100 100 100 100 100 95 97 100 100 100 100 100 100
0 0 0 0 0 0 0 0 1 0 0 18 8 30 5 5 63 88 59 99 24 7 9 100 83 17 100 57 72 16 73 100 90 100 100 100 100 61 62 48 90 100 100 100
0 0 0 0 0 0 0 8 1 2 37 0 3 0 0 57 5 5 22 8 5 16 5 4 5 21 5 19 7 4 2 1 1 4 4 15 29 14 5 5 3 14 95 100
0 0 0 0 0 0 1 0 0 0 0 0 0 0 0 5 5 4 4 0 5 1 3 11 5 0 0 0 0 0 0 0 0 4 0 0 0 0 0 0 0 0 0 1
5 0 0 0 0 0 0 0 0 0 0 0 0 0 0 0 0 0 0 0 0 0 0 0 0 0 0 0 0 0 0 0 5 1 0 0 0 0 0 0 0 0 0 0
2 2 0 0 0 0 0 0 0 0 0 0 0 0 0 0 0 0 0 0 0 0 0 0 0 0 0 0 0 0 0 0 16 5 1 0 0 0 0 0 0 0 0 0
0 5 0 0 0 0 0 0 0 0 0 0 0 0 0 0 0 0 0 0 0 0 0 0 0 0 0 0 0 0 0 1 3 4 3 0 0 0 0 0 0 0 0 0
79 0 0 0 0 0 0 0 0 0 0 0 0 0 0 0 0 0 0 0 0 0 0 0 0 0 0 0 0 0 0 0 1 3 0 0 0 0 0 0 0 0 0 0
88 34 0 0 3 0 0 0 0 2 0 0 0 0 0 0 0 0 0 0 0 0 0 0 0 3 0 0 0 0 0 2 1 4 4 0 0 0 0 0 0 0 0 0
35 99 52 1 4 5 0 0 0 0 2 0 4 3 0 0 0 0 0 0 0 0 0 0 0 0 0 0 0 0 0 2 5 4 2 0 0 0 0 0 0 0 0 0
11 6 100 5 3 5 24 0 0 0 0 0 0 5 5 0 0 0 0 0 0 0 0 0 0 0 0 0 0 0 2 0 0 0 0 0 0 0 0 0 0 0 0 0
15 58 4 100 10 4 2 5 2 6 5 3 0 0 0 4 5 0 0 0 0 0 5 5 4 3 0 4 4 0 0 0 0 0 0 0 0 1 5 5 5 5 5 5
16 80 66 56 100 32 7 5 65 6 2 4 1 0 1 0 0 3 0 0 4 5 5 5 5 4 1 4 4 4 5 5 5 5 3 4 34 10 44 35 60 83 78 76
100 93 86 47 36 54 96 36 5 7 15 2 2 2 0 0 0 2 5 5 8 27 5 10 5 5 5 8 9 5 11 6 9 35 20 5 5 5 5 18 45 62 100 100
100 100 61 81 77 98 97 96 84 28 5 5 5 1 0 0 4 0 0 5 5 33 84 100 89 98 80 34 12 100 75 5 18 5 61 78 76 5 19 74 99 89 100 100
100 100 100 99 12 26 21 97 92 72 13 1 0 1 5 4 1 0 2 5 5 40 98 99 93 100 100 100 94 96 100 100 100 100 100 100 100 100 98 78 98 100 100 100
87 99 95 100 42 6 57 79 97 70 26 37 18 10 3 4 7 7 5 2 2 4 3 4 5 5 5 25 5 5 5 5 5 5 5 8 63 100 100 100 100 100 100 100
45 7 5 100 94 12 5 6 5 21 42 57 78 59 4 0 2 5 49 43 49 19 5 5 5 5 16 4 4 4 1 3 5 0 0 0 9 96 100 100 100 100 100 100
100 100 100 100 79 92 5 5 69 11 28 6 42 84 98 2 2 5 5 5 10 37 58 79 22 86 100 93 6 5 5 2 4 0 0 0 52 100 100 100 100 100 100 100
100 43 98 100 98 40 5 5 5 6 7 5 5 13 43 66 5 5 5 5 22 28 33 14 57 96 97 12 79 89 92 26 25 3 0 2 11 76 97 100 100 100 100 100
100 100 56 100 100 87 16 19 77 14 71 42 37 16 5 50 46 5 93 6 6 5 78 100 100 100 60 38 13 7 5 5 5 5 4 0 5 4 5 8 40 86 100 97
100 100 100 54 80 100 100 100 100 85 100 35 27 40 98 84 12 8 5 23 65 61 100 100 100 100 100 100 100 100 51 93 93 74 5 6 5 5 5 34 64 83 75 6
100 100 100 100 100 52 99 100 100 78 33 48 16 83 91 100 97 83 58 5 23 100 100 100 99 100 100 100 100 100 47 99 100 100 100 100 63 13 5 25 8 6 26 5
100 100 100 100 100 100 100 100 100 100 92 97 85 30 5 67 100 100 100 34 80 99 69 23 49 60 100 98 100 100 100 19 5 100 100 89 82 82 91 92 100 99 100 55
100 85 100 100 100 100 100 100 100 100 100 100 86 91 13 8 42 100 100 100 100 100 26 42 68 49 100 100 100 100 100 22 12 80 100 100 70 90 58 55 8 31 69 43
100 100 100 100 100 100 100 100 100 37 98 100 57 100 6 50 65 100 100 100 100 100 100 100 83 83 100 97 100 100 36 5 96 72 13 86 97 93 96 81 12 49 58 63

GFSNW_prec_cloud_096.txt.gz
Cloud_Cover
0 0 0 0 0 0 0 0 0 5 4 6 31 95 67 38 18 61 61 5 82 100 64 38 100 100 100 100 100 100 100 99 51 100 100 100 100 100 100 100 97 100 100 100
0 0 0 0 0 0 0 0 0 3 4 15 81 78 40 15 88 99 66 65 50 5 98 100 100 100 100 100 100 100 92 100 98 91 100 100 100 100 100 100 100 100 99 100
0 0 0 0 0 0 0 0 0 0 0 5 4 47 5 5 26 33 5 20 59 58 95 52 62 100 100 71 63 25 56 62 82 35 5 12 38 76 90 100 34 8 85 84
0 0 0 0 0 0 0 6 0 2 5 0 0 0 2 0 5 5 5 5 5 3 6 4 4 3 6 4 10 20 2 4 12 4 6 3 0 1 4 5 11 5 5 6
0 0 0 0 0 0 5 0 0 0 0 0 0 0 0 4 4 5 0 0 0 0 0 0 0 0 0 0 0 0 0 0 0 0 0 0 0 0 0 0 0 0 0 0
5 1 0 0 0 0 0 6 0 0 0 0 0 1 0 0 0 0 0 0 0 0 0 0 0 0 0 0 0 0 0 1 5 3 0 0 0 0 0 0 0 0 0 0
28 5 1 0 0 0 0 0 0 0 0 0 0 0 0 0 0 0 0 0 0 0 0 0 0 0 0 0 0 0 0 2 9 5 1 0 0 0 0 0 0 0 0 0
7 4 5 1 0 0 0 0 0 0 0 0 0 0 0 0 0 0 0 0 0 0 0 0 0 0 0 0 0 0 0 2 4 4 4 0 0 0 0 0 0 0 0 0
5 8 5 20 4 0 0 0 0 0 0 0 0 0 0 0 0 0 0 0 0 0 0 0 0 0 0 0 0 0 0 0 1 3 0 0 3 2 0 0 0 0 0 0
16 5 11 44 90 20 0 0 0 0 0 0 4 0 0 0 0 0 0 0 0 0 0 0 0 3 0 0 0 0 0 3 2 4 2 0 0 0 0 0 0 0 0 0
99 14 7 5 33 72 42 3 2 0 0 0 0 5 3 0 0 0 0 0 0 0 1 0 1 5 0 0 0 0 0 1 3 4 2 1 0 0 2 5 5 5 5 5
100 88 26 8 16 87 100 69 15 2 0 0 0 0 2 5 4 4 1 4 0 0 0 0 0 0 0 0 0 0 0 0 0 0 0 0 0 0 0 0 0 0 0 0
100 100 58 20 5 5 55 97 85 98 17 0 0 0 0 0 0 0 3 5 5 5 5 5 5 5 5 9 7 8 6 5 4 5 5 5 5 5 5 3 0 0 0 0
100 100 100 68 47 7 27 69 88 85 30 90 6 0 0 0 0 0 0 0 0 4 5 5 5 5 5 5 5 55 99 57 84 41 99 55 5 12 8 11 70 77 55 74
100 96 100 100 100 100 8 12 60 21 58 86 88 63 3 0 0 0 0 0 0 0 5 14 21 5 15 5 5 68 100 32 53 36 12 9 12 4 58 95 70 77 100 100
100 100 100 100 100 98 74 5 5 12 70 95 82 100 94 41 3 0 0 2 5 5 5 5 5 5 4 0 4 5 3 5 5 5 43 5 5 1 0 3 84 100 100 100
100 100 100 100 100 100 78 5 5 5 5 5 7 23 81 46 96 45 3 2 5 5 5 8 5 5 6 6 8 19 2 8 5 5 5 2 5 0 0 0 1 65 100 100
100 100 100 100 100 100 95 5 5 5 5 4 5 5 10 9 7 26 7 5 4 5 5 5 5 5 7 38 5 17 15 23 25 26 8 5 5 3 0 0 6 99 100 100
100 100 100 100 100 100 100 96 70 5 5 20 7 5 5 6 9 5 7 37 7 7 5 5 4 8 51 1 5 51 100 100 27 39 97 36 99 5 2 0 4 32 79 88
100 89 100 100 100 100 100 100 100 100 19 78 87 9 5 5 86 18 5 24 58 6 43 5 48 9 1 5 76 100 77 100 100 32 4 3 6 11 50 6 1 0 5 5
77 82 100 100 100 100 100 100 100 100 100 40 17 6 8 5 26 36 69 99 40 50 44 29 92 14 5 8 100 100 100 100 100 53 47 93 6 5 0 1 5 6 44 47
100 88 84 97 100 100 100 100 100 100 100 72 7 13 89 14 27 7 41 46 89 64 55 98 99 20 18 84 100 83 93 100 100 98 100 98 5 1 1 0 3 4 5 5
100 100 100 91 96 100 100 100 100 100 100 100 100 94 6 46 6 6 13 34 97 43 100 100 100 91 30 80 98 100 81 100 100 82 16 2 5 98 24 7 70 5 2 0
100 100 100 100 60 100 100 100 100 100 100 100 100 100 100 100 30 5 12 40 100 94 100 100 100 100 100 100 100 100 100 80 100 100 14 13 99 100 100 100 28 8 100 95
100 100 100 100 100 93 100 100 100 100 100 100 100 100 100 100 100 30 7 81 94 100 47 100 90 100 100 100 100 100 100 96 100 100 100 46 38 90 100 100 97 100 41 9
100 94 93 100 100 100 100 100 100 100 100 100 100 100 100 100 100 100 98 99 98 5 44 100 39 15 59 92 100 100 100 100 96 100 98 100 76 56 100 76 99 100 100 90
100 97 25 100 100 100 100 100 100 100 100 100 100 100 100 56 61 100 100 100 17 5 5 5 95 100 100 100 100 100 100 100 100 100 71 80 80 76 100 93 100 100 100 100

GFSNW_prec_cloud_099.txt.gz
Cloud_Cover
0 0 0 0 0 0 0 0 0 0 0 3 36 99 63 5 5 5 6 65 81 6 62 100 100 13 22 48 88 100 75 90 100 100 100 100 5 15 100 100 100 65 100 94
0 0 0 0 0 0 0 0 0 0 0 9 23 4 5 5 5 5 5 5 5 5 98 97 100 98 66 94 93 99 100 100 100 100 47 100 100 93 100 100 100 89 100 74
0 0 0 0 0 0 0 0 0 0 0 0 0 3 0 4 5 5 5 5 5 14 5 6 58 18 60 5 5 5 5 5 5 31 77 38 7 5 5 32 63 91 33 65
0 0 0 0 0 0 0 3 0 2 0 0 0 0 3 2 5 5 1 0 0 1 5 4 4 0 0 0 0 2 4 1 4 2 0 1 1 2 4 4 6 5 37 5
0 0 0 0 0 0 4 0 0 0 0 0 0 0 0 0 0 0 0 0 0 0 0 0 0 0 0 0 0 0 0 0 1 0 0 0 0 0 0 0 0 0 2 2
3 5 1 0 0 0 0 22 0 0 0 0 0 0 0 0 0 0 0 0 0 0 0 0 0 0 0 0 0 0 0 0 5 3 0 0 0 0 0 0 0 0 0 0
1 5 5 5 0 0 0 0 0 0 0 0 0 0 0 0 0 0 0 0 0 3 3 3 4 5 5 5 5 5 5 4 7 5 3 0 1 0 0 0 0 0 0 0
12 5 5 5 5 4 1 0 0 0 0 0 0 0 0 0 0 0 0 0 0 0 0 0 0 0 4 5 1 3 2 4 5 5 4 3 5 5 3 0 1 4 4 0
100 54 5 5 4 5 1 0 0 0 0 0 0 0 0 0 0 0 0 0 0 0 0 0 0 0 0 0 0 0 0 0 2 3 0 0 0 0 0 3 3 5 0 0
28 80 93 5 6 5 24 8 5 0 0 0 0 0 0 0 0 0 0 0 0 0 0 0 0 3 0 1 0 0 1 3 4 5 4 2 2 1 0 3 4 5 5 5
100 100 67 100 18 32 73 5 33 5 2 0 0 3 0 0 0 0 0 0 3 1 0 0 4 5 5 8 7 15 18 46 42 20 18 16 16 15 5 5 4 3 2 2
100 72 100 79 97 5 90 76 12 5 20 0 0 0 1 0 0 0 0 0 0 0 4 5 5 5 5 5 5 27 8 7 17 45 100 56 46 23 33 16 56 100 100 95
100 92 100 98 76 59 61 92 30 16 5 5 4 5 4 0 0 0 0 0 0 0 0 0 2 5 5 5 5 6 5 3 5 5 5 5 5 5 3 0 0 0 0 11
11 100 100 100 100 92 91 100 98 81 24 5 50 6 5 5 4 1 0 0 0 0 0 0 0 1 0 2 1 1 2 5 5 0 0 0 0 4 5 3 0 0 0 0
100 100 100 100 100 100 100 100 100 100 100 57 5 6 49 6 5 5 5 2 3 4 2 10 4 5 3 0 13 22 4 3 4 5 5 5 1 1 4 2 0 0 0 0
100 100 100 80 100 100 100 100 100 100 100 73 52 7 5 11 38 28 33 5 5 2 5 5 5 5 4 4 4 0 0 3 5 21 100 88 99 5 5 4 0 0 0 0
100 100 100 100 100 100 99 98 100 100 100 100 48 5 5 5 5 5 5 5 5 5 8 20 5 5 7 9 16 0 8 78 30 16 33 6 16 20 50 5 1 0 0 0
100 100 100 100 100 74 85 100 98 100 100 100 100 60 78 59 5 5 5 15 5 94 92 100 79 28 12 91 31 6 64 15 43 60 14 8 6 98 9 3 95 1 1 0
100 100 100 100 100 100 98 65 100 98 100 100 100 100 100 100 51 5 5 5 31 5 94 61 95 100 92 90 100 100 100 66 99 33 49 78 69 91 5 5 100 8 16 1
100 100 100 100 100 100 72 96 7 80 100 100 100 100 100 100 100 68 7 6 15 52 86 68 100 100 57 100 100 78 100 100 100 100 63 100 94 38 23 6 78 5 1 0
100 100 100 100 100 100 100 100 100 86 100 100 100 100 100 100 100 66 21 20 40 82 94 45 100 39 88 86 100 90 50 100 100 100 98 100 100 49 44 57 13 5 5 87
100 100 100 100 100 100 100 100 100 100 100 100 99 71 74 100 100 77 98 92 52 100 100 91 100 8 62 5 12 57 100 100 100 100 100 100 100 100 100 62 42 36 5 28
100 100 100 100 100 100 100 100 100 100 100 100 100 62 48 89 67 100 24 98 100 100 100 100 58 6 58 67 37 65 16 95 100 100 100 100 100 78 100 88 29 93 68 44
100 100 100 100 60 99 100 100 100 100 100 100 100 100 68 36 66 98 100 100 100 100 100 100 100 95 96 86 100 100 100 100 100 100 100 100 100 100 100 100 100 100 100 100
100 100 98 100 100 79 100 100 100 100 100 100 100 100 100 34 55 98 100 100 100 100 100 100 100 100 16 10 89 100 100 100 100 100 100 100 100 100 100 100 100 100 100 100
100 100 94 12 18 97 100 100 100 100 100 100 100 100 100 97 43 69 100 100 100 100 91 95 100 100 100 98 97 100 100 96 33 53 100 100 100 100 100 100 100 100 100 100
100 97 54 6 19 91 56 99 100 100 100 100 100 100 100 100 100 67 87 100 100 94 100 100 97 100 100 100 100 100 100 96 100 100 100 100 100 100 100 100 100 100 100 100

GFSNW_prec_cloud_102.txt.gz
Cloud_Cover
0 0 0 0 4 0 0 0 29 0 0 7 40 59 5 5 5 5 5 5 5 5 5 5 5 5 6 5 28 7 19 100 89 60 27 87 100 100 100 72 100 58 93 62
0 0 0 0 0 0 0 0 0 0 0 4 5 5 5 5 5 5 13 85 99 99 39 5 10 5 5 6 95 90 98 91 100 94 97 100 30 29 33 74 47 36 29 55
0 0 0 0 0 0 0 0 27 0 0 0 0 2 5 5 5 2 3 2 2 2 2 4 3 3 3 11 11 82 36 47 5 5 5 5 32 44 17 60 99 61 56 16
0 0 0 0 0 0 0 0 0 0 0 0 0 0 0 0 0 0 0 0 0 0 0 0 0 0 0 0 0 0 4 5 0 0 0 0 0 0 1 5 2 3 6 7
5 0 0 2 0 0 0 0 0 0 0 0 0 0 0 0 0 0 0 0 0 0 0 0 0 0 0 0 0 0 0 4 2 4 0 0 0 0 0 0 0 0 0 0
12 2 0 0 0 0 0 0 0 0 0 0 0 0 0 0 0 0 0 0 0 0 0 0 0 3 5 5 5 5 5 5 5 5 2 1 0 0 0 0 0 0 0 0
40 46 0 2 0 0 2 0 0 2 2 0 0 0 0 0 0 0 0 0 0 0 0 0 0 0 0 1 1 1 0 0 4 4 0 0 0 1 1 2 2 0 0 0
100 73 11 97 4 4 0 0 1 0 0 1 1 0 0 0 0 0 0 0 0 0 0 0 0 0 0 4 5 5 5 5 5 5 5 4 4 3 0 0 0 0 0 0
100 100 100 100 7 21 5 0 0 0 5 5 4 0 0 0 0 0 0 0 1 3 5 5 5 4 0 1 5 5 5 6 11 56 71 90 98 100 99 91 76 90 81 42
86 98 100 100 62 5 19 5 1 0 0 5 5 5 5 2 0 0 0 0 0 0 2 5 21 28 37 60 28 5 5 5 26 5 5 7 5 4 4 0 0 2 3 4
6 96 72 100 64 86 14 50 5 6 0 0 1 5 1 2 4 3 2 0 0 0 0 2 5 20 20 10 5 1 1 2 0 4 4 2 1 0 0 0 0 0 0 0
100 97 82 100 100 100 100 100 90 40 95 32 5 5 5 5 4 0 0 0 0 0 4 0 0 0 0 0 0 0 2 0 0 0 0 4 5 5 5 5 5 3 0 0
100 100 100 89 100 100 100 100 100 100 100 12 95 5 5 38 74 35 6 2 0 0 4 1 0 0 3 0 0 0 4 4 5 3 5 9 5 19 16 12 0 2 0 0
100 100 100 100 100 100 100 100 100 100 100 96 85 25 6 5 5 8 5 5 5 3 0 0 0 0 0 3 0 1 2 3 5 5 5 5 5 5 100 30 3 5 2 0
100 100 100 100 100 100 100 100 100 100 100 100 100 41 5 5 5 5 5 5 5 5 5 5 5 4 4 5 5 5 5 5 5 12 20 5 5 14 61 10 5 12 5 12
96 100 98 100 100 100 100 100 100 100 100 100 100 100 100 24 23 5 6 5 5 5 32 15 5 55 28 5 5 5 5 0 6 5 5 5 5 8 5 20 5 5 5 5
100 100 98 87 100 100 100 100 100 100 100 100 100 100 100 100 100 53 100 9 5 5 5 5 16 50 84 5 6 52 13 5 5 5 5 5 6 100 100 100 22 5 5 5
100 100 100 100 91 100 100 100 100 100 100 100 100 100 100 100 100 100 30 92 5 5 5 5 5 5 54 44 6 100 100 94 99 94 32 20 68 100 94 100 98 7 18 59
100 100 100 100 100 84 83 78 100 100 100 100 100 100 100 100 100 100 95 7 22 5 29 8 12 85 92 84 58 100 100 100 100 100 100 100 100 100 100 100 100 100 100 100
100 100 100 100 100 100 71 83 83 100 100 100 100 100 100 100 100 100 100 100 99 72 32 20 80 20 20 100 100 100 99 100 100 100 100 100 100 100 100 100 100 100 100 100
100 100 100 100 100 100 82 98 91 73 100 100 100 100 100 100 100 100 100 100 100 100 97 42 56 100 100 100 100 100 100 100 100 100 100 100 100 100 100 100 100 100 100 100
100 100 100 100 100 93 62 68 100 100 89 100 100 100 100 100 100 98 99 74 100 100 100 100 100 8 57 100 100 100 100 100 88 98 100 100 100 100 100 98 99 100 100 100
100 100 100 100 98 82 97 100 93 100 100 99 28 45 99 100 100 100 100 100 100 46 99 100 96 2 0 68 100 100 100 100 87 100 100 100 100 100 100 100 100 100 100 100
100 100 100 100 100 100 100 98 100 83 100 78 91 71 16 16 95 100 100 100 100 100 100 100 96 34 100 96 99 44 99 96 58 100 85 100 100 100 100 100 100 100 100 100
100 100 100 77 78 86 29 40 96 100 99 100 92 55 98 63 60 69 100 92 100 100 100 100 98 100 8 32 30 100 87 15 93 25 74 100 100 100 100 100 100 100 100 100
100 100 100 76 18 12 15 78 100 100 100 100 100 100 93 99 87 54 17 87 100 100 100 100 100 94 38 77 50 98 100 100 60 77 45 61 100 100 100 100 100 100 100 100
100 86 78 8 5 5 5 97 100 100 100 100 100 100 99 100 68 11 88 98 100 100 79 100 99 100 100 100 100 100 100 100 99 99 84 63 100 100 100 100 100 100 100 100

GFSNW_prec_cloud_105.txt.gz
Cloud_Cover
0 0 0 0 0 0 0 0 29 0 0 60 67 71 52 20 5 5 4 5 5 15 12 76 65 51 44 5 47 70 4 9 98 100 96 100 100 92 100 81 92 100 100 66
0 0 0 0 0 0 0 0 0 0 0 26 5 5 5 5 6 2 4 3 5 4 5 4 5 6 40 5 41 33 12 8 68 94 23 18 97 56 49 17 26 14 5 48
0 0 0 1 0 0 0 0 29 0 0 0 4 5 5 4 0 1 3 0 0 4 5 4 5 5 2 5 5 4 23 53 85 23 2 8 43 16 4 50 16 54 4 12
2 5 2 0 0 0 0 0 0 0 0 0 0 0 1 1 1 0 0 0 0 0 0 0 0 0 0 0 0 0 1 5 2 0 0 0 0 0 1 5 0 0 0 0
5 5 5 0 4 0 0 0 0 0 0 0 0 0 0 0 0 0 0 0 0 0 0 0 0 2 2 1 3 2 2 5 3 5 5 5 5 4 0 0 0 0 0 0
0 5 16 3 0 0 0 0 0 0 0 0 0 0 0 0 0 0 0 0 0 0 0 0 0 0 0 0 0 0 0 3 3 1 1 1 3 2 0 1 1 1 1 0
4 8 6 0 0 0 0 5 0 0 0 0 0 0 0 0 0 0 0 0 0 0 0 0 0 0 0 0 0 4 5 5 5 5 5 19 13 5 5 5 5 16 10 22
16 4 4 83 0 0 0 2 5 2 3 0 0 0 0 0 0 0 0 0 2 4 5 5 5 20 52 50 62 53 50 58 82 93 84 73 91 58 17 5 3 1 1 2
95 55 93 100 18 9 0 0 5 2 2 4 2 0 2 5 0 0 0 0 0 4 5 7 31 25 26 13 14 5 8 20 7 5 8 5 5 3 0 2 4 3 0 0
5 56 54 100 48 100 100 72 6 12 18 5 5 3 1 2 5 5 2 0 0 0 0 0 3 5 3 3 2 0 2 4 3 4 4 0 0 4 5 3 0 0 0 0
80 78 15 100 90 100 100 95 22 19 100 9 96 14 5 4 4 6 5 5 5 5 1 0 0 0 0 0 0 0 0 0 0 0 0 2 0 2 5 2 0 0 0 0
17 64 100 100 76 54 100 100 100 95 100 100 100 100 63 22 5 5 5 5 5 5 4 5 5 1 0 0 0 0 1 0 1 0 0 0 0 0 0 0 0 0 0 0
29 78 91 23 76 92 92 100 100 100 100 100 100 100 100 100 76 6 5 7 5 5 19 0 0 0 1 5 5 5 5 5 5 6 5 5 6 69 46 69 42 1 0 0
9 13 99 100 53 6 71 98 100 100 100 100 100 100 100 100 100 100 58 68 39 5 5 14 26 4 0 5 4 5 6 55 6 5 5 14 63 41 100 100 100 100 34 6
96 77 98 14 95 50 26 17 95 53 28 98 100 100 100 100 100 100 100 100 100 49 4 5 7 11 9 31 13 64 85 100 100 100 100 100 97 100 100 100 100 100 100 100
100 100 100 100 100 100 100 46 18 95 100 55 73 29 91 100 100 100 100 100 100 100 96 20 5 5 66 19 5 10 65 100 12 77 100 100 100 100 100 100 100 100 73 100
100 100 100 100 100 100 100 100 100 8 29 96 100 93 91 11 50 89 100 100 100 100 100 87 42 91 20 29 5 8 24 4 6 7 4 22 41 77 100 100 100 100 100 100
100 100 100 100 100 100 100 100 100 100 100 96 100 100 100 66 39 5 11 100 100 100 100 100 100 100 58 21 5 5 37 59 7 8 96 87 73 66 100 100 100 100 100 90
100 100 100 100 100 100 100 100 100 100 100 100 100 100 97 100 100 83 80 27 99 100 100 100 100 100 100 87 10 4 89 100 100 73 7 4 4 21 62 100 100 100 100 100
100 100 100 100 100 100 100 100 100 100 100 100 100 100 100 100 82 99 99 99 50 94 75 100 100 100 100 100 100 100 70 100 100 100 99 99 76 49 6 5 99 100 100 100
100 100 100 76 94 97 100 100 100 100 100 100 100 100 100 73 8 38 27 45 44 77 28 100 100 100 100 100 99 98 100 98 51 50 34 36 25 97 100 53 59 86 100 100
100 100 100 100 90 92 96 100 100 100 100 100 100 100 100 100 100 36 5 11 43 73 5 74 99 100 100 100 96 70 99 100 100 98 59 100 100 100 100 99 83 32 74 98
100 100 100 100 100 100 100 100 90 53 87 100 100 100 100 100 100 100 20 67 75 6 50 31 100 5 18 34 92 100 100 100 100 100 100 87 100 100 92 89 100 96 73 100
100 100 100 100 100 100 100 100 100 100 95 87 100 100 93 99 100 100 100 16 8 58 87 29 6 5 3 4 82 27 100 100 100 100 100 100 100 94 100 63 100 100 100 100
100 100 72 87 99 100 100 100 100 100 100 100 100 100 100 99 100 100 42 24 84 66 35 24 88 98 89 82 38 19 89 100 100 100 100 100 100 100 100 100 100 100 100 100
100 100 97 97 42 30 18 6 11 24 70 91 100 100 98 100 100 45 17 54 66 100 100 100 88 90 96 100 100 96 78 66 100 100 100 100 100 100 100 100 100 100 100 100
100 74 65 5 5 5 5 0 2 20 100 100 100 100 100 100 100 16 5 5 100 100 100 100 100 100 100 100 100 88 25 55 71 100 100 100 100 100 100 100 100 100 100 100

GFSNW_prec_cloud_108.txt.gz
Cloud_Cover
0 0 0 0 0 0 0 0 27 0 3 3 4 5 5 5 5 2 5 5 5 6 70 100 33 77 13 6 11 86 3 17 56 22 10 35 32 5 55 28 100 88 76 5
5 0 0 0 0 0 0 0 0 0 0 3 5 1 0 4 5 2 4 5 5 11 28 9 5 5 1 0 2 4 3 9 4 2 25 73 82 59 11 5 6 5 15 4
0 0 0 0 0 0 0 0 11 0 0 0 2 0 0 0 0 0 0 0 2 2 1 2 5 3 4 11 5 5 10 5 5 3 5 5 20 5 5 5 5 3 2 0
14 0 2 0 0 0 0 0 0 0 1 0 0 0 0 0 0 0 0 0 0 0 0 0 0 0 0 0 0 0 1 3 1 0 0 0 0 0 0 0 0 0 0 0
5 70 7 5 0 0 0 0 0 0 0 0 0 0 0 0 0 0 0 0 0 0 0 0 0 0 0 0 0 2 4 2 0 4 0 0 0 0 0 0 0 0 0 0
3 39 88 0 5 4 0 1 0 0 0 0 0 0 0 0 0 0 0 0 0 0 0 1 0 0 0 0 1 1 0 0 1 4 1 1 1 2 3 5 5 4 2 3
39 5 100 4 61 5 16 0 8 2 0 0 0 0 0 0 0 0 0 4 3 2 5 5 5 5 5 5 5 5 5 5 5 18 28 39 32 5 1 0 0 0 0 0
8 5 13 100 99 82 54 79 46 5 22 5 0 0 2 4 4 0 0 0 1 2 5 5 5 7 36 16 10 5 5 5 4 4 1 0 0 0 0 0 0 0 0 0
12 5 17 13 5 88 100 100 93 54 99 100 36 2 5 1 0 0 3 1 0 0 0 0 0 0 0 0 0 0 3 3 3 1 0 2 4 2 0 0 0 4 5 5
91 8 5 17 26 29 50 74 99 100 100 100 96 8 48 34 2 1 0 0 0 2 0 4 0 0 0 0 0 0 2 5 5 5 5 10 74 99 100 77 14 5 5 5
96 22 9 5 5 5 5 9 63 100 100 100 100 100 100 98 82 5 1 2 4 2 5 5 1 0 0 0 0 0 1 4 3 5 5 5 10 74 100 100 100 100 100 58
100 50 6 5 7 5 5 9 27 5 4 52 2 40 99 100 100 90 12 5 5 5 17 5 5 5 5 5 5 5 22 96 92 94 100 100 90 87 71 100 13 100 100 100
100 100 90 18 5 5 69 15 5 40 5 5 6 80 9 93 100 100 100 100 86 45 42 10 5 18 14 9 5 5 6 53 64 52 98 100 100 98 98 100 49 5 7 41
100 100 100 100 100 59 23 99 100 87 1 4 4 6 9 36 25 99 93 100 100 100 100 100 98 14 9 23 41 5 64 100 45 5 5 5 3 6 25 3 5 29 100 76
100 100 100 100 100 100 100 100 100 100 99 67 41 5 6 9 12 5 23 100 63 96 92 100 99 100 100 100 56 5 5 5 5 13 86 99 99 96 4 5 5 12 50 64
100 100 100 100 100 100 100 100 100 100 100 100 100 100 71 51 9 5 5 54 48 24 67 28 6 6 100 100 100 100 92 32 7 5 8 100 100 100 100 99 62 68 6 12
100 100 100 100 100 100 100 100 100 67 85 100 100 100 100 100 89 25 28 4 4 3 8 72 45 27 32 100 21 96 100 100 100 100 76 6 43 77 100 100 100 100 100 100
100 100 100 100 100 100 100 100 100 100 100 100 100 100 100 100 100 100 73 66 100 98 59 72 91 84 100 100 100 97 61 100 100 100 100 100 99 23 10 37 42 97 100 100
100 100 100 100 100 100 100 100 100 100 100 100 100 100 100 100 100 100 82 99 100 100 100 100 100 98 98 5 41 25 4 6 27 99 100 100 100 100 100 46 47 56 100 100
100 100 100 100 100 100 100 100 100 100 100 100 100 100 100 100 100 100 100 100 100 100 100 100 100 100 100 67 5 0 0 0 0 4 14 11 91 100 100 100 100 100 100 100
100 100 100 100 100 100 100 100 100 100 100 100 100 99 100 100 100 100 100 100 100 100 100 100 100 100 100 100 15 1 0 0 1 5 2 7 26 81 83 100 100 100 95 100
100 96 100 73 73 98 100 97 100 100 100 100 95 93 100 84 98 69 71 100 100 100 100 100 100 100 100 100 97 12 5 3 0 0 1 5 5 4 12 86 100 100 100 100
100 100 100 100 88 100 100 100 100 100 100 100 100 92 74 74 76 50 84 89 75 15 60 100 100 100 94 8 4 26 10 5 5 5 5 5 5 5 5 22 100 100 100 100
100 100 100 100 98 100 100 100 100 100 100 100 100 100 100 100 93 90 100 83 84 86 82 66 26 36 5 5 29 44 12 46 98 76 83 99 100 99 47 61 100 100 100 100
99 100 92 90 99 100 100 100 100 100 100 100 94 100 100 76 100 99 96 99 93 80 100 86 18 39 58 100 100 100 95 96 82 64 39 45 95 100 93 94 100 100 100 100
100 100 100 100 91 86 98 100 100 91 94 100 94 100 100 75 69 93 58 79 19 42 100 94 48 99 99 98 100 100 94 92 93 89 71 97 100 100 99 91 100 100 100 100
100 100 99 85 11 35 6 9 26 93 50 99 92 72 12 92 100 88 23 6 5 47 11 18 99 38 18 22 100 100 100 100 100 100 100 100 100 100 100 100 100 100 100 100

GFSNW_prec_cloud_111.txt.gz
Cloud_Cover
0 0 0 0 0 0 0 0 0 0 0 0 0 0 5 4 1 0 5 5 6 9 24 5 5 5 3 1 2 5 5 24 12 2 4 5 5 1 4 5 6 14 14 4
0 4 0 0 0 0 0 0 0 0 0 0 0 0 0 0 0 4 0 0 1 5 4 2 2 0 0 1 2 2 1 3 5 5 5 5 3 1 2 5 5 5 8 3
4 0 4 4 0 0 0 0 1 0 0 0 1 0 0 0 0 0 0 0 0 0 0 0 0 0 0 0 0 0 0 3 1 4 0 0 0 0 0 0 20 3 1 1
5 5 2 0 1 0 0 0 0 0 0 0 0 0 0 0 0 0 0 0 0 0 0 0 0 0 0 0 0 0 0 5 0 0 0 0 0 0 0 0 0 1 0 0
5 5 5 46 5 2 0 5 4 0 0 0 0 0 0 0 0 0 0 0 0 0 0 0 0 0 0 0 0 0 0 2 0 1 0 0 0 0 0 0 0 2 5 2
46 5 24 5 38 5 0 5 4 0 0 1 0 0 0 0 0 0 0 2 5 5 5 11 4 2 1 0 0 0 0 0 2 2 0 0 0 0 0 0 0 0 0 0
99 16 5 16 41 5 5 5 5 1 4 0 5 4 0 0 0 3 0 1 0 0 0 2 3 5 4 3 2 1 0 0 0 5 2 0 0 0 0 0 0 2 1 0
100 99 18 5 4 5 4 5 5 4 3 4 0 3 5 0 0 0 1 4 0 0 0 0 0 0 0 0 0 0 0 2 5 38 95 97 84 55 27 78 78 37 3 0
100 100 54 84 5 5 5 5 5 8 4 4 3 2 5 5 5 17 2 0 0 0 0 1 2 0 0 0 0 4 5 5 6 13 6 5 9 96 71 7 95 10 5 3
100 100 98 60 25 6 21 5 5 4 5 0 0 2 3 5 4 43 31 8 6 3 1 2 4 5 5 5 5 73 90 53 94 100 100 100 95 95 100 100 45 56 80 88
100 100 100 100 95 43 52 5 5 54 3 0 2 2 5 5 5 97 59 63 20 22 7 5 5 16 5 5 4 5 19 44 77 82 63 29 20 22 25 19 5 11 100 100
100 100 100 100 100 87 51 7 5 40 100 51 5 0 5 4 5 17 5 34 100 100 76 97 72 8 21 8 15 25 90 28 5 54 77 6 5 18 5 5 5 14 59 100
100 100 100 100 100 100 100 96 70 100 100 100 99 5 81 4 4 32 5 5 31 8 5 4 29 67 100 15 5 5 100 80 76 13 6 9 19 18 100 97 60 16 26 49
100 100 100 100 100 100 100 100 100 100 100 100 100 100 100 71 95 26 24 36 5 5 5 3 5 3 100 100 43 52 38 87 100 100 100 96 88 22 5 7 100 100 100 100
100 100 100 100 100 100 100 100 100 100 100 100 100 100 100 100 100 100 100 90 92 72 21 5 5 57 45 83 4 5 60 20 36 79 71 100 100 100 100 100 75 84 85 60
100 100 100 100 100 100 100 100 100 100 89 100 100 100 100 98 100 100 100 100 100 100 100 100 42 5 5 53 11 5 20 5 0 5 5 5 5 9 45 74 100 100 100 100
100 100 100 100 100 100 100 100 100 100 100 100 100 100 100 100 77 96 100 36 100 100 100 100 100 100 42 100 100 100 40 25 89 5 5 1 0 5 4 6 29 60 83 100
100 100 100 100 100 100 100 100 100 100 100 100 100 100 100 100 100 100 60 84 100 100 100 100 100 100 100 100 64 98 100 100 100 99 18 5 4 5 11 5 5 22 44 25
100 100 100 100 100 100 100 100 100 100 100 100 100 100 100 100 100 100 100 100 100 100 100 100 100 100 100 100 100 100 90 98 100 100 100 95 54 5 5 7 6 5 15 48
100 100 100 100 100 100 100 100 100 100 100 100 100 100 100 100 100 100 100 100 100 100 100 100 100 100 100 100 100 100 100 100 100 100 100 90 95 10 5 0 5 24 5 5
95 100 100 100 100 100 100 100 100 100 100 100 100 100 100 100 100 100 100 100 100 100 100 100 100 100 100 100 100 100 100 100 99 99 97 28 5 5 4 0 0 2 2 3
95 95 100 100 100 100 100 100 100 100 100 100 100 94 32 72 100 100 88 53 80 81 100 100 100 100 100 100 100 100 100 100 100 50 32 6 5 5 5 5 5 5 5 30
88 78 99 100 100 100 100 100 100 100 98 99 99 100 81 52 51 5 17 86 72 24 78 100 100 100 100 100 100 85 5 1 1 4 4 5 5 4 5 5 28 81 9 84
100 100 98 100 100 100 100 100 100 100 100 100 97 99 53 73 32 23 98 5 6 74 86 98 100 100 100 100 66 97 92 21 10 5 5 8 25 100 100 100 100 100 100 95
86 100 100 100 100 88 100 92 74 54 99 100 100 99 75 34 84 81 87 70 87 40 100 100 100 63 31 57 35 61 79 16 48 68 89 100 73 64 100 100 100 100 100 100
98 99 100 100 98 100 100 58 66 26 5 20 76 83 65 76 73 95 96 56 48 88 33 18 90 92 100 100 76 18 79 80 81 100 98 100 43 39 54 100 100 100 100 100
100 100 100 85 40 20 99 100 48 5 5 59 100 100 100 88 98 99 97 96 16 6 4 3 78 99 100 68 5 0 0 5 100 55 93 100 100 92 60 90 100 98 100 100

GFSNW_prec_cloud_114.txt.gz
Cloud_Cover
5 5 0 15 0 0 0 0 0 0 0 0 0 0 3 2 4 0 1 2 12 28 62 19 12 6 3 0 0 5 4 5 29 3 5 5 5 5 0 5 4 5 5 12
9 5 5 0 3 0 0 0 0 0 0 0 0 0 0 0 0 4 0 4 5 4 5 2 2 3 3 1 2 3 0 4 5 6 3 5 32 5 5 4 5 5 12 5
8 4 3 0 0 7 0 0 0 0 0 0 0 0 0 0 0 0 0 0 0 1 0 0 0 0 0 0 0 1 0 1 1 3 0 0 19 1 1 4 4 5 4 1
42 4 5 4 0 0 0 0 0 0 0 0 0 0 0 0 0 0 0 0 0 0 0 0 0 0 0 0 0 0 0 4 0 0 0 0 0 0 0 0 0 3 0 0
66 5 5 5 4 0 0 0 0 0 4 0 0 0 0 0 0 0 0 0 0 0 0 0 0 0 0 0 0 0 0 0 0 0 0 0 0 0 0 0 0 0 1 2
100 58 6 5 5 5 0 0 0 0 0 0 0 0 0 0 0 0 0 0 0 0 0 0 0 0 0 0 0 1 0 0 1 4 0 3 18 5 5 1 5 5 4 76
100 100 100 6 17 5 5 4 0 0 0 0 0 0 0 0 0 0 0 0 0 0 0 0 0 0 0 0 1 2 2 1 35 69 93 34 3 17 5 2 1 4 5 5
100 100 100 82 21 9 5 25 14 0 0 0 0 0 0 2 0 0 0 0 0 0 0 0 1 1 2 0 0 3 4 5 14 79 5 5 89 5 4 4 6 5 37 8
100 100 100 100 100 98 14 18 10 4 5 2 0 0 0 4 2 3 0 1 0 0 0 0 0 3 0 5 4 4 5 5 5 5 5 5 4 5 5 5 5 5 5 5
80 100 100 100 69 6 100 75 100 23 18 50 22 1 1 5 3 0 0 1 2 1 3 0 2 1 2 0 1 0 3 6 8 10 23 65 5 5 16 68 72 21 52 60
37 93 100 100 100 99 86 83 66 90 75 93 72 8 5 5 20 4 4 4 5 5 4 3 5 4 5 5 4 73 27 13 26 41 36 23 5 5 5 38 9 89 82 100
98 91 100 100 100 100 100 100 100 100 35 42 100 74 66 69 6 10 8 10 5 5 5 3 5 5 5 5 10 3 87 100 88 10 15 38 71 94 85 99 91 99 97 99
99 96 94 100 100 100 100 100 100 100 100 100 76 72 100 100 100 92 64 99 100 100 100 100 99 42 7 4 82 38 7 83 97 100 5 99 73 100 100 100 99 61 100 100
100 100 100 100 100 100 100 100 100 100 100 100 100 100 100 100 100 100 100 31 95 100 100 100 100 100 98 24 83 23 9 67 54 16 27 24 20 5 80 26 36 6 5 12
100 100 100 100 100 100 100 100 100 100 100 100 100 100 100 100 100 100 100 100 100 100 100 100 100 100 100 100 100 100 41 81 39 5 39 24 26 29 5 5 5 5 69 73
100 100 100 100 100 100 100 100 100 100 100 100 100 100 100 100 100 100 100 100 100 100 100 100 100 88 100 100 100 100 100 100 89 100 100 100 100 98 83 79 50 20 5 6
99 100 100 100 100 100 100 100 100 100 100 100 100 100 100 94 100 100 100 100 100 100 100 100 100 100 100 100 100 100 100 100 100 100 100 100 100 100 100 100 100 100 100 74
100 100 100 100 100 100 100 100 100 100 100 100 100 100 100 100 100 100 100 100 100 100 100 100 100 100 100 100 100 100 100 100 100 100 100 100 100 100 100 100 100 100 97 38
100 98 100 100 81 83 100 100 100 100 100 100 100 100 100 100 100 100 100 100 100 100 100 100 100 100 100 100 100 100 100 100 100 100 100 96 100 100 100 93 56 61 72 100
100 100 100 100 96 100 97 99 100 100 100 100 100 100 100 100 100 100 100 100 100 100 100 100 100 100 100 100 100 100 100 100 100 100 100 100 100 100 100 92 100 100 100 100
100 100 99 82 99 100 100 100 100 100 100 100 100 100 100 100 100 100 100 100 100 100 100 100 100 100 100 100 100 100 94 82 65 32 78 98 100 100 100 100 100 100 62 86
100 69 86 98 99 98 95 100 88 100 97 89 100 100 100 100 100 100 100 44 78 87 59 100 100 100 100 100 100 100 100 10 14 58 100 100 98 99 67 61 18 16 64 85
96 76 94 94 88 99 100 79 93 99 90 95 100 94 97 100 98 100 100 100 100 92 80 98 100 100 100 93 52 4 5 5 5 5 5 5 17 72 41 5 5 5 37 85
87 100 100 96 86 100 98 100 100 100 81 44 8 18 43 84 54 84 100 100 100 100 100 100 100 100 99 89 100 45 42 95 95 98 88 31 9 76 96 80 44 70 91 100
90 100 77 96 76 85 100 100 100 100 100 100 92 98 44 18 42 80 100 100 100 100 100 100 92 23 51 76 73 20 6 45 42 8 5 7 98 84 56 100 100 100 80 88
98 100 94 100 97 100 100 100 100 98 100 100 54 35 58 38 56 96 100 99 100 100 100 80 4 0 4 5 5 43 10 5 4 5 4 0 7 59 54 94 100 100 65 8
100 100 100 100 100 100 100 100 100 100 100 100 97 92 64 43 99 98 63 100 98 76 5 2 0 2 5 2 0 0 1 2 0 0 0 0 0 0 2 5 90 82 7 26

GFSNW_prec_cloud_117.txt.gz
Cloud_Cover
5 18 46 20 0 0 0 0 0 0 0 0 0 0 0 4 5 66 100 100 100 100 100 100 97 98 6 5 3 5 5 5 67 4 4 3 5 5 1 5 2 5 5 15
5 8 4 91 30 0 0 0 0 0 0 0 0 0 0 0 0 0 0 0 0 0 1 1 0 3 2 0 5 4 2 4 5 5 2 4 5 2 5 2 4 5 10 1
5 5 5 22 70 11 0 0 0 0 0 0 0 0 0 0 0 0 0 0 0 0 0 0 0 0 0 0 0 0 0 0 0 0 0 0 3 0 1 5 5 5 5 2
98 4 5 5 4 0 0 0 0 0 0 0 0 0 0 0 0 0 0 0 0 0 0 0 0 0 0 0 0 0 0 0 1 1 0 0 0 0 0 4 3 4 3 0
100 87 9 21 59 1 4 0 0 0 0 0 0 0 0 0 0 0 0 0 0 0 0 0 0 0 0 0 0 0 0 0 1 4 0 0 0 0 0 2 5 5 4 4
97 100 87 5 22 66 5 20 4 0 0 0 0 0 0 0 0 0 0 0 0 0 0 0 0 0 2 4 1 1 0 4 4 4 0 0 0 1 0 1 4 5 5 5
62 98 100 100 7 68 8 43 42 5 0 0 0 2 3 0 0 0 0 0 0 0 0 0 0 0 0 0 0 0 0 1 6 5 2 0 0 2 4 4 7 60 26 5
94 100 100 100 7 17 34 90 50 99 16 5 4 1 0 0 3 4 2 0 0 0 0 0 0 0 0 0 0 0 0 1 3 5 9 0 0 0 0 0 0 4 5 5
8 42 99 100 100 40 29 16 100 55 55 30 1 4 5 2 0 0 0 0 3 4 5 2 4 5 5 6 5 5 3 1 3 5 5 5 0 3 5 6 10 5 27 95
100 69 100 100 100 100 100 18 97 100 70 32 74 81 5 39 55 3 3 2 0 2 4 4 5 2 5 5 4 5 5 9 8 6 16 5 5 5 5 5 5 5 42 98
98 98 98 71 100 100 93 100 98 100 100 100 94 59 97 69 100 100 100 18 41 32 27 16 5 9 4 3 4 5 4 30 51 54 45 22 5 5 5 7 11 12 100 100
100 100 100 100 100 100 100 97 100 100 100 83 82 100 100 100 66 99 100 100 99 86 7 19 50 10 17 31 28 5 99 83 10 28 10 43 5 6 5 35 99 96 54 10
100 100 100 100 100 100 100 100 76 98 100 100 100 100 100 100 100 100 100 100 100 100 100 94 25 100 100 100 93 100 100 100 82 100 100 58 16 92 100 38 100 100 10 5
79 100 100 100 100 100 100 100 100 100 100 100 100 100 100 100 100 100 98 100 100 100 100 100 100 98 100 100 100 100 92 97 100 100 100 100 100 100 100 100 100 100 100 68
99 100 100 100 100 100 100 100 100 100 100 100 100 100 100 100 100 91 11 99 100 100 100 100 100 100 100 100 100 82 5 100 100 100 100 100 100 100 100 100 100 100 100 100
100 100 100 100 100 100 100 100 100 100 100 100 100 100 100 100 100 100 100 100 100 100 100 100 100 100 100 100 100 100 90 93 64 100 100 100 100 100 100 100 100 100 100 100
100 89 100 100 100 100 100 100 100 100 100 100 100 100 100 100 100 100 100 100 100 100 100 100 100 100 100 100 100 100 100 100 100 100 98 100 100 100 100 100 100 100 100 100
100 100 100 100 100 99 100 98 89 25 70 98 100 100 100 100 100 100 100 100 100 100 100 100 100 100 100 100 100 100 100 100 100 100 100 100 100 100 100 100 100 100 100 100
100 98 100 99 99 100 100 100 100 89 82 83 98 100 100 100 100 100 100 100 100 100 100 100 100 100 100 100 100 100 100 100 100 100 100 92 24 100 100 100 100 100 100 100
100 97 97 100 90 99 100 100 100 100 100 98 100 100 100 100 100 100 100 100 100 100 100 100 100 100 100 100 100 100 100 92 5 5 84 100 65 58 93 100 100 96 98 75
100 100 88 100 100 98 77 55 97 100 100 100 100 100 100 99 100 90 61 63 90 100 100 100 100 100 100 100 100 100 23 16 64 22 15 27 67 100 100 97 76 38 82 100
80 97 100 100 100 95 94 94 100 100 91 69 100 100 100 100 100 100 100 60 79 91 69 100 100 100 100 100 100 5 62 100 100 100 100 100 100 100 100 100 100 84 7 6
29 65 100 100 100 100 100 100 100 100 100 100 100 97 24 59 100 100 99 94 84 10 91 92 100 100 94 39 5 22 89 100 100 100 100 100 100 85 46 35 14 6 5 28
54 83 96 75 100 100 100 100 100 100 100 87 75 59 14 8 7 100 100 72 61 100 100 100 99 6 5 66 68 5 6 93 100 100 100 100 34 9 34 9 0 0 1 6
56 81 72 37 73 100 100 100 100 98 96 98 89 36 45 30 41 98 74 94 100 99 100 100 11 5 56 5 5 5 4 0 4 28 60 67 16 5 0 0 0 0 0 0
78 94 77 84 91 100 100 100 100 99 95 96 62 35 27 64 89 98 99 99 100 100 100 24 5 5 8 4 3 3 1 0 5 1 2 5 5 2 0 0 0 0 0 0
93 99 99 100 100 100 100 100 100 100 100 100 99 84 100 69 84 84 100 100 100 100 76 24 5 13 6 51 24 5 5 7 5 34 5 5 1 0 0 0 0 0 0 0

GFSNW_prec_cloud_120.txt.gz
Cloud_Cover
50 9 10 52 45 0 0 0 0 0 0 0 0 1 5 2 10 100 74 7 17 73 49 5 8 44 100 84 59 4 3 3 67 3 3 3 5 5 3 5 1 5 5 18
8 22 52 27 23 6 0 0 0 0 0 0 0 0 0 0 0 0 0 44 42 78 77 49 10 5 34 4 1 0 2 4 5 5 3 4 5 0 5 3 5 5 5 0
89 6 4 63 7 25 1 0 0 0 0 0 0 0 0 0 0 0 0 0 0 0 0 0 0 0 1 0 1 1 0 0 0 0 0 0 2 0 0 4 19 5 5 3
97 5 5 36 92 5 4 3 0 0 0 0 0 0 0 0 0 0 0 0 0 0 0 0 0 0 0 0 0 0 0 0 4 4 4 0 0 0 0 5 5 5 5 4
49 100 64 71 9 59 17 5 5 4 0 0 0 0 0 0 0 0 0 0 0 0 0 0 0 0 0 0 0 0 0 0 4 5 0 4 5 2 0 3 0 0 1 0
34 98 10 93 96 5 5 79 16 4 5 4 0 0 0 0 0 0 0 0 0 0 0 0 0 0 0 0 0 0 0 0 4 2 0 3 0 1 2 1 0 0 2 3
5 54 87 89 9 73 6 5 42 84 4 6 17 2 4 4 0 0 0 0 0 0 0 0 0 0 0 0 3 3 5 4 7 5 3 1 3 1 3 1 2 2 3 5
91 5 5 35 100 75 10 60 5 88 68 26 5 12 5 25 16 4 0 0 3 3 4 5 3 4 5 2 0 1 1 0 5 5 6 4 5 5 5 5 5 5 21 98
21 100 52 10 94 62 47 25 99 100 16 16 100 5 97 46 5 35 92 5 3 1 5 5 0 2 5 5 5 5 5 5 5 5 5 5 5 5 5 5 5 5 7 98
51 23 88 22 100 100 100 86 9 42 100 11 8 72 98 100 100 30 21 96 100 100 70 24 5 5 5 5 4 5 5 6 18 5 17 5 5 5 5 5 5 5 5 5
33 41 13 93 99 100 100 99 98 95 80 100 91 10 5 99 100 100 99 61 89 100 100 100 100 94 13 6 5 5 5 44 41 58 72 23 5 9 7 37 14 69 86 60
100 54 100 100 96 100 100 100 100 100 100 100 100 100 97 10 98 99 100 100 100 100 100 100 100 100 100 100 91 89 100 88 6 5 8 46 8 100 100 100 100 100 100 100
100 68 18 100 100 100 100 92 97 100 100 86 100 100 100 100 96 100 100 100 100 100 100 100 100 100 100 100 100 100 100 100 100 100 96 100 25 20 100 100 100 100 100 100
100 100 100 90 16 100 100 100 100 100 100 100 100 100 100 100 100 100 100 100 100 100 100 100 60 96 100 100 100 100 100 100 100 100 100 100 100 59 18 100 100 100 100 100
100 100 100 100 100 58 92 100 100 100 100 100 90 100 100 100 100 100 100 84 100 100 100 100 100 100 100 100 100 100 100 100 100 100 100 100 100 100 93 91 100 100 100 100
100 100 100 100 100 100 100 100 100 100 100 100 100 100 100 100 100 100 100 100 100 100 100 100 100 100 100 100 100 100 100 100 100 100 100 100 100 100 100 100 100 100 100 100
100 99 99 100 100 100 100 98 100 53 100 100 100 100 100 100 100 100 100 100 100 100 100 100 100 100 100 100 100 100 100 100 100 43 18 78 88 100 100 100 100 100 100 100
100 100 99 100 100 98 99 98 99 100 100 100 100 100 100 100 88 70 100 100 100 100 100 100 100 100 100 100 100 100 100 88 99 100 100 100 100 100 100 100 100 100 100 100
100 100 100 100 100 99 100 100 100 100 57 100 100 96 100 100 100 100 100 100 98 75 86 100 97 100 100 100 100 100 100 100 100 100 96 98 95 100 100 100 100 100 100 100
100 100 100 100 100 100 100 100 100 100 100 100 100 100 93 99 100 100 96 99 100 100 100 100 100 100 100 98 45 38 15 99 51 69 100 100 100 100 100 100 100 100 100 100
100 100 100 100 100 100 100 100 100 100 100 100 100 100 100 100 100 100 34 28 62 100 100 100 100 100 100 86 5 2 4 5 20 5 5 73 97 99 100 100 100 100 100 100
100 100 100 100 100 100 100 100 100 100 100 100 100 100 100 100 100 100 100 100 100 92 79 100 100 100 98 28 8 5 5 5 5 87 100 100 98 54 93 100 100 100 81 64
100 100 100 100 96 100 100 100 100 100 100 100 100 84 95 100 100 100 100 100 100 100 98 100 100 100 45 11 5 5 5 18 19 56 100 100 100 87 16 33 39 5 5 2
100 100 100 100 100 86 100 100 100 71 100 100 100 100 100 82 100 100 100 100 100 100 100 100 100 84 5 5 10 45 5 5 5 5 8 85 46 45 100 100 100 37 1 0
100 100 100 99 100 100 100 100 73 60 88 97 97 100 95 100 99 91 93 100 100 100 100 39 10 4 5 4 5 5 5 5 5 5 32 97 100 83 56 67 24 3 1 0
100 99 98 100 100 100 100 100 80 64 96 100 100 100 78 82 100 100 99 96 99 100 99 10 15 0 5 6 35 68 80 69 22 14 14 40 94 61 11 8 5 4 3 3
96 100 100 100 100 100 100 100 90 86 98 100 98 86 16 64 93 85 10 82 100 98 54 62 67 91 99 100 99 98 86 49 35 10 22 37 21 17 9 0 0 0 0 0

GFSNW_prec_cloud_123.txt.gz
Cloud_Cover
7 25 100 94 64 0 0 0 0 0 0 0 1 2 6 16 4 5 5 65 98 98 100 100 100 100 96 37 99 5 0 5 28 4 4 4 5 1 2 0 2 5 5 9
5 6 35 81 91 7 1 0 0 0 0 0 0 0 0 0 0 54 92 58 62 63 97 75 100 100 100 100 12 5 0 0 5 5 3 4 5 4 0 3 2 5 2 0
27 5 5 8 50 66 42 4 0 0 0 5 0 0 0 0 0 0 0 0 0 1 8 44 17 10 73 76 20 4 0 0 0 0 0 0 5 0 2 1 5 5 4 0
5 5 5 5 93 89 5 65 11 3 0 0 4 0 0 0 0 0 0 0 0 0 0 0 0 0 0 0 0 0 0 0 4 1 3 0 0 0 0 4 0 1 0 4
80 6 5 9 72 85 98 56 53 53 26 5 5 5 0 0 0 0 0 0 0 0 0 0 0 0 0 0 0 0 0 2 3 4 0 5 5 5 0 0 1 3 0 2
5 5 8 61 5 37 29 99 80 13 85 54 10 7 5 3 0 0 0 0 0 0 0 0 0 0 0 0 0 0 0 2 4 1 0 1 0 0 4 5 5 4 5 0
4 28 5 5 47 18 61 54 80 100 6 86 26 90 60 5 11 2 5 5 4 0 0 0 0 0 0 0 0 0 0 3 6 5 5 5 5 5 5 5 5 2 4 3
5 10 4 5 13 85 10 6 18 26 5 5 55 16 97 49 14 32 5 12 96 16 47 1 1 0 5 4 5 4 4 5 5 5 4 5 5 5 5 5 5 5 5 3
65 42 5 5 9 80 81 5 6 11 88 79 8 12 32 100 73 100 95 41 5 50 100 100 79 46 6 4 4 5 4 5 5 5 5 5 5 5 5 5 5 6 4 3
87 71 55 5 5 24 71 100 79 43 14 69 99 76 17 12 99 100 100 100 100 57 6 71 100 99 99 100 91 88 61 37 16 5 9 5 4 5 5 26 53 65 52 63
87 64 97 100 42 54 97 73 93 97 100 93 85 100 100 98 27 60 29 75 100 100 100 100 100 100 100 100 100 100 100 100 100 81 67 22 5 11 51 78 100 90 62 99
89 80 59 80 11 27 96 68 62 94 100 100 100 100 100 100 100 100 89 73 100 92 84 100 100 100 100 100 100 100 100 100 100 100 100 100 100 100 100 94 84 86 100 99
100 100 87 25 9 50 94 100 100 100 100 100 88 50 83 100 100 100 100 100 98 100 100 100 100 92 100 100 92 20 100 68 100 100 100 100 100 100 100 100 100 100 100 100
100 100 100 100 91 97 67 100 96 100 99 100 100 100 100 100 65 80 73 100 100 100 89 100 97 100 100 100 100 100 100 100 100 100 100 100 100 100 100 100 100 100 100 100
100 100 100 100 100 100 100 100 99 70 95 100 100 100 100 100 100 100 90 100 100 100 100 70 95 97 66 100 100 100 38 13 99 100 100 100 100 100 100 100 100 100 100 100
100 100 100 100 100 100 100 100 99 100 100 100 100 100 100 100 100 100 100 100 100 100 100 100 100 100 100 100 100 100 100 100 100 100 100 100 100 100 97 100 100 99 79 35
100 100 100 100 100 100 100 100 100 100 100 100 100 100 100 100 100 100 100 100 100 100 100 100 100 100 100 100 100 100 99 40 100 88 99 60 100 100 100 100 100 100 100 100
100 100 100 100 100 100 100 100 100 100 100 100 100 96 100 77 85 90 99 88 77 100 100 100 100 100 88 97 91 63 48 5 19 66 39 53 80 98 100 94 91 98 92 72
100 100 100 99 96 96 98 100 100 100 100 100 100 100 100 92 82 90 100 78 52 46 99 70 99 100 100 100 39 13 58 60 22 6 41 79 96 100 93 93 100 99 49 45
100 100 100 98 100 96 70 72 100 100 100 100 100 100 100 100 100 100 100 100 100 100 100 100 100 100 100 100 98 96 76 84 100 100 100 100 99 99 100 62 5 5 5 5
100 100 100 95 100 76 76 64 94 93 100 100 100 100 100 100 100 100 100 100 100 100 100 100 100 100 100 100 91 44 62 83 100 100 100 100 100 96 100 100 80 73 58 98
100 100 100 100 100 96 60 72 100 100 86 100 100 100 100 100 100 100 100 100 100 100 100 100 100 100 95 100 96 88 88 99 96 100 99 73 98 99 100 98 100 100 100 100
100 100 100 100 100 98 94 73 100 92 96 71 93 100 100 100 100 100 100 100 100 100 100 100 100 100 100 100 100 84 100 94 89 42 5 5 7 6 62 88 100 51 20 64
100 100 100 100 100 70 88 71 99 47 58 78 98 42 99 98 89 98 99 99 100 100 100 100 100 100 10 5 19 49 64 15 41 32 5 5 5 27 61 56 5 5 4 1
100 100 100 91 98 100 80 81 84 92 52 59 98 94 57 79 89 93 89 100 100 100 66 96 86 28 5 5 85 28 5 5 5 5 5 5 5 11 79 100 97 98 16 1
100 100 100 100 100 100 100 100 88 81 98 94 100 100 100 100 100 100 100 93 100 100 94 11 5 5 5 21 35 60 5 5 1 0 2 4 16 5 3 2 4 4 3 5
100 100 100 100 100 100 99 96 91 98 100 100 100 95 80 86 94 86 100 100 100 64 17 9 8 49 64 30 25 7 5 5 5 5 5 5 1 0 5 5 1 3 5 5

GFSNW_prec_cloud_126.txt.gz
Cloud_Cover
36 10 9 100 100 5 44 5 7 0 0 0 0 2 5 5 5 65 100 100 100 94 98 13 26 100 23 5 17 6 2 2 5 5 3 2 0 2 0 0 0 1 0 0
9 85 5 10 89 87 16 6 5 3 0 0 0 0 0 0 0 75 84 100 65 92 98 100 43 44 93 3 0 0 0 0 4 5 3 4 5 3 0 0 0 0 0 0
5 14 44 6 37 69 27 5 68 10 5 0 0 0 0 0 0 0 0 0 2 38 88 100 100 46 99 5 0 0 0 0 0 0 0 1 3 0 4 1 0 0 0 0
2 3 44 31 86 41 18 40 0 63 87 14 0 0 0 0 0 0 0 0 0 0 0 0 0 19 93 72 28 5 0 0 2 0 0 0 1 0 1 5 0 0 0 0
5 0 3 98 75 5 45 28 27 2 5 100 37 0 0 2 1 0 0 0 0 0 0 0 0 0 0 0 0 0 0 0 0 0 0 0 0 0 0 3 1 0 0 0
11 1 4 5 52 5 5 12 55 5 5 1 84 38 3 0 4 5 1 1 0 0 0 0 0 0 0 0 0 0 0 0 0 0 0 0 0 0 0 0 0 0 0 0
94 28 14 5 5 63 5 0 5 32 5 17 5 72 47 13 0 5 3 6 4 2 0 0 0 0 0 0 0 0 0 0 0 0 0 0 0 0 0 0 0 0 0 2
99 99 61 20 5 6 88 5 9 5 5 5 20 5 52 38 98 75 1 5 38 27 5 5 4 1 0 0 0 0 0 0 0 0 0 0 0 3 4 4 4 5 5 5
29 99 100 17 53 5 5 46 22 22 8 5 5 77 100 15 5 34 98 9 1 1 48 16 14 44 60 77 58 29 10 2 1 5 3 3 4 5 5 5 10 5 5 5
18 69 100 100 43 14 37 8 15 91 40 36 39 10 5 90 100 44 5 68 92 65 43 28 89 100 43 100 100 100 100 100 100 92 66 14 5 5 5 5 5 5 27 22
39 47 18 48 56 8 11 30 5 5 28 82 100 100 87 20 17 38 100 100 24 83 34 45 58 5 20 85 100 97 63 88 100 100 100 100 100 100 100 100 99 89 81 86
98 89 9 12 93 56 64 6 32 88 46 68 95 85 100 91 99 92 37 92 100 100 59 16 21 94 91 24 85 100 99 83 100 100 32 92 100 100 100 100 100 100 100 100
100 100 100 100 78 34 100 99 67 5 70 83 97 96 100 100 95 80 100 95 95 100 100 98 11 21 8 59 99 94 99 100 100 100 71 100 100 100 100 100 100 100 100 100
100 100 100 100 100 100 100 100 98 93 100 93 14 13 5 91 100 100 91 100 95 100 82 95 98 88 9 5 12 5 68 100 100 100 100 100 100 100 100 100 100 100 100 100
100 100 100 100 100 100 100 94 100 100 100 100 100 100 100 94 100 100 100 100 100 100 100 100 100 100 100 100 100 100 85 100 100 100 95 71 89 99 100 47 42 99 100 54
100 100 100 100 100 100 100 100 100 100 100 100 100 69 93 100 100 100 100 100 77 60 100 100 100 100 100 100 100 100 100 100 100 100 100 100 100 98 70 53 26 6 24 56
100 100 100 100 100 100 100 100 100 100 100 100 100 100 100 100 100 100 100 100 99 93 88 89 100 100 99 94 100 100 100 84 100 100 93 100 80 97 100 94 47 25 40 87
100 100 100 100 100 100 100 100 100 100 100 100 100 100 100 100 100 100 100 100 100 95 59 56 26 27 98 98 98 88 69 88 99 100 100 100 100 73 90 97 74 87 55 35
100 100 100 100 100 100 100 100 100 100 100 100 100 100 100 100 100 100 100 100 100 100 100 100 100 100 100 100 100 100 100 93 87 97 100 100 100 97 82 100 100 74 11 10
100 100 100 100 100 100 100 100 100 100 100 100 100 100 100 100 99 100 100 100 100 100 100 100 100 100 100 100 100 100 100 100 100 100 100 100 100 100 100 100 96 92 100 100
100 100 100 100 100 100 100 100 100 100 100 100 100 100 100 94 89 79 67 86 77 82 100 100 100 100 100 100 100 100 100 100 100 100 100 100 100 100 100 100 100 100 98 15
100 100 100 100 100 100 100 100 70 99 87 100 100 100 100 51 12 52 100 93 72 86 79 100 100 98 76 93 100 100 100 67 71 92 100 100 100 100 99 86 100 100 61 12
100 100 100 100 100 100 100 100 100 98 98 100 100 100 29 42 28 31 40 100 90 87 99 100 100 14 11 5 12 55 89 97 56 76 95 100 94 15 54 99 100 100 100 100
100 100 100 100 100 100 100 100 100 100 100 100 94 88 16 47 87 55 98 100 100 100 100 85 5 5 5 5 16 28 5 28 9 5 5 5 9 75 100 100 100 73 84 100
100 100 100 100 100 100 100 100 100 100 100 100 100 100 92 93 100 100 100 100 100 98 25 5 27 5 8 19 10 50 90 96 71 90 100 100 100 100 100 88 5 2 2 2
100 100 100 100 100 100 100 100 100 100 100 100 100 100 100 100 100 100 100 100 100 100 100 93 95 98 99 99 100 100 100 100 100 100 100 100 100 100 92 15 3 0 0 2
100 100 100 100 100 100 100 100 100 100 100 100 100 100 100 100 100 100 100 100 98 89 100 100 100 100 93 64 99 82 100 100 100 100 100 86 62 44 5 5 0 0 2 5